[[{"header":{"parameterUnit":"m.s-1","parameterCategory":1,"la1":30.6,"la2":28.766,"lo1":-90.7593,"lo2":-88.6598,"dy":0.0162,"dx":0.0183,"nx":116,"ny":114,"refTime":"2024-07-05T00:00:00:Z","depth":0,"parameterNumber":2,"parameterNumberName":"U-component_of_WINDS"},"data":[0.0,0.0,0.0,0.0,0.0,0.0,0.0,0.0,0.0,0.0,0.0,0.0,0.0,0.0,0.0,0.0,0.0,0.0,0.0,0.0,0.0,0.0,0.0,0.0,0.0,0.0,0.0,0.0,0.0,0.0,0.0,0.0,0.0,0.0,0.0,0.0,0.0,0.0,0.0,0.0,0.0,0.0,0.0,0.0,0.0,0.0,0.0,0.0,0.0,0.0,0.0,0.0,0.0,0.0,0.0,0.0,0.0,0.0,0.0,0.0,0.0,0.0,0.0,0.0,0.0,0.0,0.0,0.0,0.0,0.0,0.0,0.0,0.0,0.0,0.0,0.0,0.0,0.0,0.0,0.0,0.0,0.0,0.0,0.0,0.0,0.0,0.0,0.0,0.0,0.0,0.0,0.0,0.0,0.0,0.0,0.0,0.0,0.0,0.0,0.0,0.0,0.0,0.0,0.0,0.0,0.0,0.0,0.0,0.0,0.0,0.0,0.0,0.0,0.0,0.0,0.0,0.0,0.0,0.0,0.0,0.0,0.0,0.0,0.0,0.0,0.0,0.0,0.0,0.0,0.0,0.0,0.0,0.0,0.0,0.0,0.0,0.0,0.0,0.0,0.0,0.0,0.0,0.0,0.0,0.0,0.0,0.0,0.0,0.0,0.0,0.0,0.0,0.0,0.0,0.0,0.0,0.0,0.0,0.0,0.0,0.0,0.0,0.0,0.0,0.0,0.0,0.0,0.0,0.0,0.0,0.0,0.0,0.0,0.0,0.0,0.0,0.0,0.0,0.0,0.0,0.0,0.0,0.0,0.0,0.0,0.0,0.0,0.0,0.0,0.0,0.0,0.0,0.0,0.0,0.0,0.0,0.0,0.0,0.0,0.0,0.0,0.0,0.0,0.0,0.0,0.0,0.0,0.0,0.0,0.0,0.0,0.0,0.0,0.0,0.0,0.0,0.0,0.0,0.0,0.0,0.0,0.0,0.0,0.0,0.0,0.0,0.0,0.0,0.0,0.0,0.0,0.0,0.0,0.0,0.0,0.0,0.0,0.0,0.0,0.0,0.0,0.0,0.0,0.0,0.0,0.0,0.0,0.0,0.0,0.0,0.0,0.0,0.0,0.0,0.0,0.0,0.0,0.0,0.0,0.0,0.0,0.0,0.0,0.0,0.0,0.0,0.0,0.0,0.0,0.0,0.0,0.0,0.0,0.0,0.0,0.0,0.0,0.0,0.0,0.0,0.0,0.0,0.0,0.0,0.0,0.0,0.0,0.0,0.0,0.0,0.0,0.0,0.0,0.0,0.0,0.0,0.0,0.0,0.0,0.0,0.0,0.0,0.0,0.0,0.0,0.0,0.0,0.0,0.0,0.0,0.0,0.0,0.0,0.0,0.0,0.0,0.0,0.0,0.0,0.0,0.0,0.0,0.0,0.0,0.0,0.0,0.0,0.0,0.0,0.0,0.0,0.0,0.0,0.0,0.0,0.0,0.0,0.0,0.0,0.0,0.0,0.0,0.0,0.0,0.0,0.0,0.0,0.0,0.0,0.0,0.0,0.0,0.0,0.0,0.0,0.0,0.0,0.0,0.0,0.0,0.0,0.0,0.0,0.0,0.0,0.0,0.0,0.0,0.0,0.0,0.0,0.0,0.0,0.0,0.0,0.0,0.0,0.0,0.0,0.0,0.0,0.0,0.0,0.0,0.0,0.0,0.0,0.0,0.0,0.0,0.0,0.0,0.0,0.0,0.0,0.0,0.0,0.0,0.0,0.0,0.0,0.0,0.0,0.0,0.0,0.0,0.0,0.0,0.0,0.0,0.0,0.0,0.0,0.0,0.0,0.0,0.0,0.0,0.0,0.0,0.0,0.0,0.0,0.0,0.0,0.0,0.0,0.0,0.0,0.0,0.0,0.0,0.0,0.0,0.0,0.0,0.0,0.0,0.0,0.0,0.0,0.0,0.0,0.0,0.0,0.0,0.0,0.0,0.0,0.0,0.0,0.0,0.0,0.0,0.0,0.0,0.0,0.0,0.0,0.0,0.0,0.0,0.0,0.0,0.0,0.0,0.0,0.0,0.0,0.0,0.0,0.0,0.0,0.0,0.0,0.0,0.0,0.0,0.0,0.0,0.0,0.0,0.0,0.0,0.0,0.0,0.0,0.0,0.0,0.0,0.0,0.0,0.0,0.0,0.0,0.0,0.0,0.0,0.0,0.0,0.0,0.0,0.0,0.0,0.0,0.0,0.0,0.0,0.0,0.0,0.0,0.0,0.0,0.0,0.0,0.0,0.0,0.0,0.0,0.0,0.0,0.0,0.0,0.0,0.0,0.0,0.0,0.0,0.0,0.0,0.0,0.0,0.0,0.0,0.0,0.0,0.0,0.0,0.0,0.0,0.0,0.0,0.0,0.0,0.0,0.0,0.0,0.0,0.0,0.0,0.0,0.0,0.0,0.0,0.0,0.0,0.0,0.0,0.0,0.0,0.0,0.0,0.0,0.0,0.0,0.0,0.0,0.0,0.0,0.0,0.0,0.0,0.0,0.0,0.0,0.0,0.0,0.0,0.0,0.0,0.0,0.0,0.0,0.0,0.0,0.0,0.0,0.0,0.0,0.0,0.0,0.0,0.0,0.0,0.0,0.0,0.0,0.0,0.0,0.0,0.0,0.0,0.0,0.0,0.0,0.0,0.0,0.0,0.0,0.0,0.0,0.0,0.0,0.0,0.0,0.0,0.0,0.0,0.0,0.0,0.0,0.0,0.0,0.0,0.0,0.0,0.0,0.0,0.0,0.0,0.0,0.0,0.0,0.0,0.0,0.0,0.0,0.0,0.0,0.0,0.0,0.0,0.0,0.0,0.0,0.0,0.0,0.0,0.0,0.0,0.0,0.0,0.0,0.0,0.0,0.0,0.0,0.0,0.0,0.0,0.0,0.0,0.0,0.0,0.0,0.0,0.0,0.0,0.0,0.0,0.0,0.0,0.0,0.0,0.0,0.0,0.0,0.0,0.0,0.0,0.0,0.0,0.0,0.0,0.0,0.0,0.0,0.0,0.0,0.0,0.0,0.0,0.0,0.0,0.0,0.0,0.0,0.0,0.0,0.0,0.0,0.0,0.0,0.0,0.0,0.0,0.0,0.0,0.0,0.0,0.0,0.0,0.0,0.0,0.0,0.0,0.0,0.0,0.0,0.0,0.0,0.0,0.0,0.0,0.0,0.0,0.0,0.0,0.0,0.0,0.0,0.0,0.0,0.0,0.0,0.0,0.0,0.0,0.0,0.0,0.0,0.0,0.0,0.0,0.0,0.0,0.0,0.0,0.0,0.0,0.0,0.0,0.0,0.0,0.0,0.0,0.0,0.0,0.0,0.0,0.0,0.0,0.0,0.0,0.0,0.0,0.0,0.0,0.0,0.0,0.0,0.0,0.0,0.0,0.0,0.0,0.0,0.0,0.0,0.0,0.0,0.0,0.0,0.0,0.0,0.0,0.0,0.0,0.0,0.0,0.0,0.0,0.0,0.0,0.0,0.0,0.0,0.0,0.0,0.0,0.0,0.0,0.0,0.0,0.0,0.0,0.0,0.0,0.0,0.0,0.0,0.0,0.0,0.0,0.0,0.0,0.0,0.0,0.0,0.0,0.0,0.0,0.0,0.0,0.0,0.0,0.0,0.0,0.0,0.0,0.0,0.0,0.0,0.0,0.0,0.0,0.0,0.0,0.0,0.0,0.0,0.0,0.0,0.0,0.0,0.0,0.0,0.0,0.0,0.0,0.0,0.0,0.0,0.0,0.0,0.0,0.0,0.0,0.0,0.0,0.0,0.0,0.0,0.0,0.0,0.0,0.0,0.0,0.0,0.0,0.0,0.0,0.0,0.0,0.0,0.0,0.0,0.0,0.0,0.0,0.0,0.0,0.0,0.0,0.0,0.0,0.0,0.0,0.0,0.0,0.0,0.0,0.0,0.0,0.0,0.0,0.0,0.0,0.0,0.0,0.0,0.0,0.0,0.0,0.0,0.0,0.0,0.0,0.0,0.0,0.0,0.0,0.0,0.0,0.0,0.0,0.0,0.0,0.0,0.0,0.0,0.0,0.0,0.0,0.0,0.0,0.0,0.0,0.0,0.0,0.0,0.0,0.0,0.0,0.0,0.0,0.0,0.0,0.0,0.0,0.0,0.0,0.0,0.0,0.0,0.0,0.0,0.0,0.0,0.0,0.0,0.0,0.0,0.0,0.0,0.0,0.0,0.0,0.0,0.0,0.0,0.0,0.0,0.0,0.0,0.0,0.0,0.0,0.0,0.0,0.0,0.0,0.0,0.0,0.0,0.0,0.0,0.0,0.0,0.0,0.0,0.0,0.0,0.0,0.0,0.0,0.0,0.0,0.0,0.0,0.0,0.0,0.0,0.0,0.0,0.0,0.0,0.0,0.0,0.0,0.0,0.0,0.0,0.0,0.0,0.0,0.0,0.0,0.0,0.0,0.0,0.0,0.0,0.0,0.0,0.0,0.0,0.0,0.0,0.0,0.0,0.0,0.0,0.0,0.0,0.0,0.0,0.0,0.0,0.0,0.0,0.0,0.0,0.0,0.0,0.0,0.0,0.0,0.0,0.0,0.0,0.0,0.0,0.0,0.0,0.0,0.0,0.0,0.0,0.0,0.0,0.0,0.0,0.0,0.0,0.0,0.0,0.0,0.0,0.0,0.0,0.0,0.0,0.0,0.0,0.0,0.0,0.0,0.0,0.0,0.0,0.0,0.0,0.0,0.0,0.0,0.0,0.0,0.0,0.0,0.0,0.0,0.0,0.0,0.0,0.0,0.0,0.0,0.0,0.0,0.0,0.0,0.0,0.0,0.0,0.0,0.0,0.0,0.0,0.0,0.0,0.0,0.0,0.0,0.0,0.0,0.0,0.0,0.0,0.0,0.0,0.0,0.0,0.0,0.0,0.0,0.0,0.0,0.0,0.0,0.0,0.0,0.0,0.0,0.0,0.0,0.0,0.0,0.0,0.0,0.0,0.0,0.0,0.0,0.0,0.0,0.0,0.0,0.0,0.0,0.0,0.0,0.0,0.0,0.0,0.0,0.0,0.0,0.0,0.0,0.0,0.0,0.0,0.0,0.0,0.0,0.0,0.0,0.0,0.0,0.0,0.0,0.0,0.0,0.0,0.0,0.0,0.0,0.0,0.0,0.0,0.0,0.0,0.0,0.0,0.0,0.0,0.0,0.0,0.0,0.0,0.0,0.0,0.0,0.0,0.0,0.0,0.0,0.0,0.0,0.0,0.0,0.0,0.0,0.0,0.0,0.0,0.0,0.0,0.0,0.0,0.0,0.0,0.0,0.0,0.0,0.0,0.0,0.0,0.0,0.0,0.0,0.0,0.0,0.0,0.0,0.0,0.0,0.0,0.0,0.0,0.0,0.0,0.0,0.0,0.0,0.0,0.0,0.0,0.0,0.0,0.0,0.0,0.0,0.0,0.0,0.0,0.0,0.0,0.0,0.0,0.0,0.0,0.0,0.0,0.0,0.0,0.0,0.0,0.0,0.0,0.0,0.0,0.0,0.0,0.0,0.0,0.0,0.0,0.0,0.0,0.0,0.0,0.0,0.0,0.0,0.0,0.0,0.0,0.0,0.0,0.0,0.0,0.0,0.0,0.0,0.0,0.0,0.0,0.0,0.0,0.0,0.0,0.0,0.0,0.0,0.0,0.0,0.0,0.0,0.0,0.0,0.0,0.0,0.0,0.0,0.0,0.0,0.0,0.0,0.0,0.0,0.0,0.0,0.0,0.0,0.0,0.0,0.0,0.0,0.0,0.0,0.0,0.0,0.0,0.0,0.0,0.0,0.0,0.0,0.0,0.0,0.0,0.0,0.0,0.0,0.0,0.0,0.0,0.0,0.0,0.0,0.0,0.0,0.0,0.0,0.0,0.0,0.0,0.0,0.0,0.0,0.0,0.0,0.0,0.0,0.0,0.0,0.0,0.0,0.0,0.0,0.0,0.0,0.0,0.0,0.0,0.0,0.0,0.0,0.0,0.0,0.0,0.0,0.0,0.0,0.0,0.0,0.0,0.0,0.0,0.0,0.0,0.0,0.0,0.0,0.0,0.0,0.0,0.0,-4.313,-4.3198,0.0,0.0,0.0,0.0,0.0,0.0,0.0,0.0,0.0,0.0,0.0,0.0,0.0,0.0,0.0,0.0,0.0,0.0,0.0,0.0,0.0,0.0,0.0,-2.6309,-2.7248,-2.793,-2.7981,-2.8117,-2.8509,0.0,0.0,0.0,0.0,0.0,-2.5405,-2.509,-2.4959,-2.5074,-2.5074,-2.5071,-2.5097,-2.4489,-2.4449,-2.4827,0.0,0.0,0.0,0.0,0.0,0.0,0.0,0.0,0.0,0.0,0.0,0.0,0.0,0.0,0.0,0.0,0.0,0.0,0.0,0.0,0.0,0.0,0.0,0.0,0.0,0.0,0.0,0.0,0.0,0.0,0.0,0.0,0.0,0.0,0.0,0.0,0.0,0.0,0.0,0.0,0.0,0.0,0.0,0.0,0.0,0.0,0.0,0.0,0.0,0.0,0.0,0.0,0.0,0.0,0.0,0.0,0.0,0.0,0.0,0.0,0.0,0.0,0.0,0.0,0.0,0.0,0.0,0.0,0.0,0.0,-4.4253,-4.3907,0.0,0.0,0.0,0.0,0.0,0.0,0.0,0.0,0.0,0.0,0.0,0.0,0.0,0.0,0.0,0.0,0.0,0.0,0.0,0.0,0.0,-2.4641,-2.4611,-2.5909,-2.708,-2.7873,-2.7886,-2.8152,-2.8891,-2.8388,0.0,0.0,0.0,-2.6033,-2.5981,-2.5373,-2.5064,-2.5067,-2.4973,-2.4973,-2.505,-2.5141,-2.5464,-2.599,-2.6043,0.0,0.0,0.0,0.0,0.0,0.0,0.0,0.0,0.0,0.0,0.0,0.0,0.0,0.0,0.0,0.0,0.0,0.0,0.0,0.0,0.0,0.0,0.0,0.0,0.0,0.0,0.0,0.0,0.0,0.0,0.0,0.0,0.0,0.0,0.0,0.0,0.0,0.0,0.0,0.0,0.0,0.0,0.0,0.0,0.0,0.0,0.0,0.0,0.0,0.0,0.0,0.0,0.0,0.0,0.0,0.0,0.0,0.0,0.0,0.0,0.0,0.0,0.0,-4.58,-4.5807,-4.5807,-4.5807,-4.5821,-4.5854,-4.5251,-4.4594,-4.4007,-4.4624,0.0,0.0,0.0,0.0,0.0,0.0,0.0,0.0,0.0,0.0,0.0,0.0,0.0,0.0,0.0,0.0,0.0,0.0,0.0,-2.4463,-2.4288,-2.548,-2.6806,-2.8053,-2.8036,-2.8313,-2.9118,-2.9068,0.0,0.0,-2.7959,-2.7634,-2.7095,-2.6995,-2.6681,-2.6099,-2.5996,-2.5996,-2.6099,-2.6236,-2.6468,-2.6721,-2.5932,-2.5679,-2.5817,0.0,0.0,0.0,0.0,0.0,0.0,0.0,0.0,0.0,0.0,0.0,0.0,0.0,0.0,0.0,0.0,0.0,0.0,0.0,0.0,0.0,0.0,0.0,0.0,0.0,0.0,0.0,0.0,0.0,0.0,0.0,0.0,0.0,0.0,0.0,0.0,0.0,0.0,0.0,0.0,0.0,-3.9671,-4.1587,0.0,0.0,0.0,0.0,0.0,0.0,0.0,0.0,0.0,0.0,0.0,0.0,0.0,-4.6246,-4.5561,-4.6461,-4.6561,-4.5795,-4.5812,-4.5807,-4.5807,-4.5807,-4.5807,-4.5814,-4.577,0.0,-4.5716,-4.5068,0.0,0.0,0.0,0.0,0.0,0.0,0.0,0.0,0.0,0.0,0.0,0.0,0.0,0.0,0.0,0.0,0.0,0.0,0.0,0.0,0.0,-2.5155,-2.6293,-2.7209,-2.7109,-2.7316,-2.8068,-2.8096,-2.7934,-2.7652,-2.7672,-2.7587,-2.7346,-2.6994,-2.6477,-2.5795,-2.5742,-2.5742,-2.5795,-2.5924,-2.6157,-2.6437,-2.6189,-2.6127,-2.626,-2.6489,0.0,0.0,0.0,0.0,0.0,0.0,0.0,0.0,0.0,0.0,0.0,0.0,0.0,0.0,0.0,0.0,0.0,0.0,0.0,0.0,0.0,0.0,0.0,0.0,0.0,0.0,0.0,0.0,0.0,0.0,0.0,0.0,0.0,0.0,0.0,0.0,0.0,0.0,0.0,-3.8809,-4.0523,-4.2328,-4.2321,-4.2439,0.0,0.0,0.0,0.0,0.0,0.0,0.0,0.0,0.0,-4.5804,-4.6985,-4.7474,-4.7105,-4.705,-4.687,-4.6515,-4.6035,-4.5805,-4.5807,-4.5807,-4.5807,-4.5807,-4.5821,-4.5893,-4.5953,-4.5668,-4.5558,-4.5534,0.0,0.0,0.0,0.0,-4.4741,-4.5091,0.0,0.0,0.0,0.0,0.0,0.0,0.0,0.0,0.0,0.0,0.0,0.0,-2.3753,-2.4767,-2.5712,-2.6266,-2.6104,-2.6277,0.0,0.0,-2.7056,-2.7245,-2.7304,-2.7353,-2.7429,-2.6575,-2.5819,-2.5173,-2.5134,-2.5134,-2.5173,-2.5323,-2.557,-2.5872,-2.6193,-2.6451,-2.6694,-2.6964,-2.6708,0.0,0.0,0.0,0.0,0.0,0.0,0.0,0.0,0.0,0.0,0.0,0.0,0.0,0.0,0.0,0.0,0.0,0.0,0.0,0.0,0.0,0.0,0.0,0.0,0.0,0.0,0.0,0.0,0.0,0.0,0.0,0.0,0.0,0.0,0.0,0.0,0.0,0.0,-4.0203,-4.1344,-4.2943,-4.2762,-4.2854,0.0,0.0,0.0,0.0,0.0,0.0,-4.5764,-4.6675,-4.7183,-4.7212,-4.8037,-4.8401,-4.817,-4.781,-4.7571,-4.7399,-4.6546,-4.6131,-4.6136,-4.5904,-4.5807,-4.5807,-4.5807,-4.5821,-4.5874,-4.6008,-4.6071,-4.6069,-4.6153,-4.6171,-4.6129,-4.5526,-4.5722,-4.621,0.0,0.0,0.0,0.0,0.0,0.0,0.0,0.0,0.0,0.0,0.0,-2.3534,-2.3259,-2.4211,-2.5037,-2.5502,-2.5437,-2.5666,0.0,0.0,-2.6717,-2.7365,-2.7381,-2.7442,-2.7488,-2.614,-2.5154,-2.4559,-2.4421,-2.4405,-2.4559,-2.4751,-2.4977,-2.5253,-2.5649,-2.6317,-2.7192,-2.7457,-2.725,-2.6766,0.0,0.0,0.0,0.0,0.0,0.0,0.0,0.0,0.0,0.0,0.0,0.0,0.0,0.0,0.0,0.0,0.0,0.0,0.0,0.0,0.0,0.0,0.0,0.0,0.0,0.0,0.0,0.0,0.0,0.0,0.0,0.0,0.0,0.0,0.0,0.0,0.0,0.0,0.0,-4.3638,-4.3852,0.0,0.0,0.0,0.0,-4.4934,-4.584,-4.6458,-4.6617,-4.7463,-4.7982,-4.8038,-4.8894,-4.8933,-4.8105,-4.894,-4.8994,-4.8235,-4.7418,-4.7032,-4.6999,-4.6174,-4.5807,-4.5807,-4.5807,-4.5807,-4.5814,-4.5886,-4.5953,-4.6012,-4.6072,-4.6141,-4.6198,-4.6147,-4.6204,-4.6288,0.0,0.0,0.0,-2.3223,-2.2919,-2.2636,-2.2391,-2.2206,-2.2017,-2.1842,-2.2328,-2.2776,0.0,-2.3474,-2.4019,-2.4505,-2.4322,-2.4284,-2.4512,0.0,-2.5394,-2.5659,-2.661,-2.6963,-2.6543,-2.5618,-2.483,-2.4187,-2.413,-2.413,-2.4172,-2.4302,-2.4533,-2.4835,-2.5192,-2.5705,-2.6316,-2.6873,-2.7072,-2.7051,-2.6841,-2.6769,0.0,0.0,0.0,0.0,0.0,0.0,0.0,0.0,0.0,0.0,0.0,0.0,0.0,0.0,0.0,0.0,0.0,0.0,0.0,0.0,0.0,0.0,0.0,0.0,0.0,0.0,0.0,0.0,0.0,0.0,0.0,0.0,0.0,0.0,0.0,0.0,0.0,-4.4349,-4.5021,0.0,-4.5642,-4.5828,-4.6035,-4.6278,-4.6695,-4.706,-4.7262,-4.8146,-4.8673,-4.8736,-4.9671,-5.0018,-4.9701,-4.9529,-4.9315,-4.9052,-4.8265,-4.787,-4.7832,-4.7011,-4.6631,-4.6619,-4.6039,-4.5807,-4.5807,-4.5834,-4.5874,-4.5943,-4.6052,-4.6117,-4.6142,-4.6187,-4.6216,-4.6231,-2.3937,-2.3753,0.0,-2.3163,-2.2881,-2.2605,-2.2338,-2.2104,-2.1868,-2.1632,-2.1859,-2.2179,-2.2511,-2.2671,-2.3036,-2.37,-2.3372,-2.3191,-2.3348,0.0,-2.4208,-2.4491,-2.5698,-2.6129,-2.5655,-2.5025,-2.4365,-2.3689,-2.3732,-2.3649,-2.3423,-2.357,-2.3758,-2.4025,-2.4331,-2.4853,-2.55,-2.6034,-2.6725,-2.7428,-2.7239,-2.7326,-2.7524,0.0,0.0,0.0,0.0,0.0,0.0,0.0,0.0,0.0,0.0,0.0,0.0,0.0,0.0,0.0,0.0,0.0,0.0,0.0,0.0,0.0,0.0,0.0,0.0,0.0,0.0,0.0,0.0,0.0,0.0,0.0,0.0,0.0,0.0,-4.3406,-4.4212,-4.5073,-4.5714,-4.6151,-4.6289,-4.644,-4.6619,-4.6851,-4.7282,-4.7643,-4.7878,-4.8826,-4.9372,-4.9465,-5.0139,-5.0511,-5.0572,-5.0047,-4.9846,-4.9911,-4.9099,-4.8718,-4.8697,-4.7878,-4.7359,-4.7076,-4.6484,-4.6078,-4.5807,-4.5807,-4.584,-4.5874,-4.5991,-4.603,-4.6032,-4.6138,-4.6164,-4.6189,-2.3937,-2.3753,-2.3495,-2.3163,-2.2881,-2.2605,-2.2338,-2.2061,-2.1781,-2.1448,-2.1598,-2.1813,-2.1957,-2.1782,-2.2082,-2.3142,-2.2585,-2.2432,-2.301,-2.2928,-2.3233,-2.4063,-2.4687,-2.4994,-2.4946,-2.4347,-2.3741,-2.3083,-2.3201,-2.2921,-2.2281,-2.2533,-2.2699,-2.2772,-2.3127,-2.3836,-2.4764,-2.5091,-2.6243,-2.7861,-2.8134,-2.8415,-2.8633,0.0,0.0,0.0,0.0,0.0,0.0,0.0,0.0,0.0,0.0,0.0,0.0,0.0,0.0,0.0,0.0,0.0,0.0,0.0,0.0,0.0,0.0,0.0,0.0,0.0,0.0,0.0,0.0,0.0,0.0,0.0,0.0,0.0,-4.3551,-4.425,-4.5057,-4.5847,-4.5957,-4.603,-4.6175,-4.6226,-4.6382,-4.6634,-4.7629,-4.8321,-4.8517,-4.9457,-5.0038,-5.0175,-5.0255,-5.0348,-5.05,-5.0553,-5.0634,-5.0701,-4.9911,-4.9571,-4.9605,-4.8736,-4.789,-4.7134,-4.7115,-4.6619,-4.5807,-4.5807,-4.5807,-4.5807,-4.5867,-4.5899,-4.5917,-4.6046,-4.6108,-4.6107,-2.3937,-2.3753,-2.3495,-2.3163,-2.2881,-2.2592,-2.2279,-2.2003,-2.1676,-2.1309,-2.1018,-2.0953,-2.123,-2.1008,-2.108,-2.1649,-2.1514,-2.1547,-2.1929,-2.1944,-2.2462,-2.3625,-2.3277,-2.3288,-2.377,-2.3121,-2.2698,-2.2512,-2.2314,-2.212,-2.1931,-2.1712,-2.1671,-2.1808,-2.2591,-2.3213,-2.3725,-2.5125,-2.6114,-2.6741,-2.6923,-2.7538,-2.835,0.0,0.0,0.0,0.0,0.0,0.0,0.0,0.0,0.0,0.0,0.0,0.0,0.0,0.0,0.0,0.0,0.0,0.0,0.0,0.0,0.0,0.0,0.0,0.0,0.0,0.0,0.0,0.0,0.0,0.0,0.0,-4.3665,-4.4378,-4.4378,-4.5553,-4.6526,-4.6727,-4.7297,-4.7645,-4.7701,-4.7813,-4.7923,-4.8048,-4.846,-4.881,-4.9002,-4.936,-4.9655,-4.983,-5.0005,-5.0182,-5.0348,-5.0478,-5.0584,-5.0712,-5.0471,-5.0383,-5.0371,-4.96,-4.8783,-4.7948,-4.7359,-4.6619,-4.5807,-4.5807,-4.5807,-4.5807,-4.5867,-4.5906,-4.5899,-4.5997,-4.6061,-4.6099,-2.3927,-2.3753,-2.3524,-2.3163,-2.2906,-2.2619,-2.2262,-2.1974,-2.1631,-2.1183,-2.0761,-2.057,-2.0808,-2.0348,-2.0303,-2.0959,-2.0676,-2.0705,-2.129,-2.1482,-2.2011,-2.293,-2.2289,-2.2199,-2.2836,-2.2189,-2.1745,-2.1565,-2.142,-2.1102,-2.0656,-2.0509,-2.0515,-2.0686,-2.1355,-2.1964,-2.2536,-2.3994,-2.4811,-2.5179,-2.5647,-2.6827,-2.8336,-2.8322,-2.8899,-2.9755,-2.9994,-2.9882,-2.9719,-3.0365,0.0,0.0,0.0,0.0,0.0,0.0,0.0,0.0,0.0,0.0,0.0,0.0,0.0,0.0,0.0,0.0,0.0,0.0,0.0,0.0,0.0,0.0,0.0,0.0,-4.4254,-4.5169,-4.559,-4.6489,-4.7223,-4.7553,-4.8012,-4.8306,-4.8306,-4.8363,-4.8457,-4.855,-4.8696,-4.8855,-4.9062,-4.9176,-4.9337,-4.957,-4.9707,-4.9933,-5.0219,-5.0348,-5.05,-5.0653,-5.0683,-5.0702,-5.0663,-4.9907,-4.9109,-4.8261,-4.7453,-4.6605,-4.5807,-4.5807,-4.5807,-4.5807,0.0,0.0,0.0,0.0,-4.6,-4.606,-2.3927,-2.38,-2.3589,-2.3205,-2.2957,-2.2672,-2.2276,-2.1974,-2.16,-2.1055,-2.0697,-2.0505,-2.0501,-1.9845,-1.9733,-2.0604,-2.0,-1.9992,-2.0962,-2.1321,-2.1654,-2.1982,-2.1455,-2.1363,-2.1862,-2.1222,-2.067,-2.0263,-2.0333,-1.9896,-1.8982,-1.912,-1.9256,-1.9412,-1.9823,-2.0444,-2.1265,-2.2303,-2.2991,-2.3471,-2.4437,-2.626,-2.8355,-2.7999,-2.8522,-2.9486,-2.9644,-2.9764,-2.9913,-3.0182,0.0,0.0,0.0,0.0,0.0,0.0,0.0,0.0,0.0,0.0,0.0,0.0,0.0,0.0,0.0,0.0,0.0,0.0,0.0,0.0,0.0,0.0,0.0,0.0,-4.4591,-4.5942,-4.6938,-4.7127,-4.746,-4.8195,-4.8306,-4.8306,-4.8306,-4.8306,-4.8363,-4.8457,-4.855,-4.8678,-4.8856,-4.8925,0.0,0.0,0.0,-4.966,-5.0082,-5.0207,-5.0371,-5.0582,-5.0633,-5.0673,-5.0663,-4.9864,-4.9041,-4.8237,-4.7434,-4.6595,-4.58,-4.58,-4.58,-4.5807,-4.5807,-4.5807,-4.5807,-4.5886,-4.5938,-4.5997,-2.3986,-2.3821,-2.3623,-2.3383,-2.3045,-2.2699,-2.2405,-2.2032,-2.16,-2.1055,-2.0697,-2.0352,-1.9909,-1.9597,-1.9349,-1.9219,-1.9398,-1.9796,0.0,0.0,-2.0787,-2.0754,-2.0021,-1.9664,-1.978,-1.9227,-1.8902,-1.881,-1.8552,-1.8403,-1.8296,-1.8007,-1.7963,-1.818,-1.9062,-1.9642,-2.005,-2.1641,-2.2456,-2.2791,-2.383,-2.5699,-2.7862,-2.8061,-2.9073,-3.0479,-3.0815,-3.063,-3.0329,-3.1181,-3.1115,-3.089,-3.2172,0.0,0.0,0.0,0.0,0.0,0.0,0.0,0.0,0.0,0.0,0.0,0.0,0.0,0.0,0.0,0.0,0.0,0.0,0.0,0.0,-4.4843,-4.5726,-4.6478,-4.7417,-4.7613,-4.7811,-4.8249,-4.8306,-4.8306,-4.8306,-4.8306,-4.8306,-4.8343,-4.8438,-4.8532,-4.8569,-4.8751,-4.8909,-4.9059,-4.9257,-4.9518,-4.992,-5.0031,-5.0194,-5.0435,-5.0457,0.0,-5.0595,-4.9798,-4.8979,-4.8165,-4.7378,-4.6549,-4.5795,-4.5795,-4.5798,-4.5807,-4.5807,-4.5807,-4.5807,-4.5886,-4.5906,-4.5925,-2.4006,-2.3831,-2.3634,-2.3448,-2.3114,-2.279,-2.2446,-2.2092,-2.1676,-2.1166,-2.0745,-2.034,-1.9902,-1.9578,-1.9284,-1.8988,-1.9413,0.0,0.0,-2.0345,-2.0334,-2.0016,-1.9346,-1.8982,-1.8883,-1.837,-1.8005,-1.7785,-1.7634,-1.7466,-1.7294,-1.7169,-1.7308,-1.7731,-1.844,-1.9014,-1.9556,-2.1061,-2.1881,-2.224,-2.3276,-2.4921,-2.68,-2.7373,-2.8693,-3.0284,-3.0617,-3.0644,-3.0588,-3.121,-3.117,-3.1175,-3.2718,-3.3294,-3.3547,0.0,0.0,0.0,0.0,0.0,0.0,0.0,0.0,0.0,0.0,0.0,0.0,0.0,0.0,-4.0245,-4.1528,0.0,-4.3334,-4.5075,-4.5569,-4.6123,-4.7255,-4.7539,-4.7809,-4.8208,-4.8247,-4.8267,-4.8287,-4.8306,-4.8306,-4.8306,-4.8363,-4.8438,-4.8494,-4.8606,-4.8732,-4.8942,-4.9044,-4.9286,-4.9693,-4.9778,-4.994,-5.0243,-5.0278,-5.0119,-4.9767,-4.8975,-4.8182,-4.7395,-4.6604,-4.6029,-4.5708,-4.5773,-4.5791,-4.5807,-4.5807,-4.5807,-4.5807,-4.5847,-4.5854,-4.586,-2.4006,-2.3852,-2.3667,-2.3464,-2.3217,-2.2919,-2.2528,-2.2158,-2.1781,-2.1294,-2.0844,-2.0426,-2.0061,-1.9806,-1.9633,0.0,0.0,0.0,0.0,-2.0238,-2.0118,-1.9604,-1.9006,-1.8622,-1.8509,-1.8007,-1.7565,-1.7239,-1.7239,-1.7062,-1.6716,-1.6814,-1.715,-1.767,-1.8028,-1.8543,-1.9243,-2.0479,-2.1229,-2.172,-2.2855,-2.4228,-2.5725,-2.6561,-2.8012,-2.9639,-2.9919,-3.0258,-3.0593,-3.0797,-3.0915,-3.1211,-3.2739,-3.3245,-3.3473,-3.4381,-3.4657,0.0,0.0,0.0,0.0,0.0,0.0,0.0,0.0,-3.8485,-3.8758,-3.9389,-4.0243,-4.1094,-4.1948,-4.2837,-4.3804,-4.4865,-4.5207,-4.5705,-4.6768,-4.7169,-4.7533,-4.797,-4.8128,-4.8226,-4.8286,-4.8287,-4.8306,-4.8306,-4.8306,-4.8343,-4.8457,-4.8494,-4.8606,-4.882,-4.8891,-4.9059,-4.9439,-4.9514,-4.9689,-5.0018,-5.0082,-4.9713,-4.8919,-4.8106,-4.7352,-4.6606,-4.5831,-4.553,-4.5616,-4.5723,-4.5795,-4.5793,-4.5793,-4.58,-4.5807,-4.5807,-4.5807,-4.5807,-2.4006,-2.3886,-2.3739,-2.3607,-2.3348,-2.307,-2.2725,-2.234,-2.1909,-2.1448,-2.1007,-2.0595,-2.015,-2.0376,-2.0759,-2.1277,0.0,0.0,-2.0875,-2.0345,-1.9901,-1.9617,-1.8739,-1.8256,-1.8256,-1.7713,-1.7436,-1.7376,-1.7376,-1.74,-1.7471,-1.7495,-1.7639,-1.7866,-1.8055,-1.8325,-1.875,-1.9767,-2.0524,-2.1143,-2.2687,-2.3966,-2.5111,-2.6083,-2.7444,-2.8873,-2.9332,-2.9733,-3.0113,-3.0309,-3.0535,-3.0862,-3.1594,-3.1988,-3.242,-3.3707,-3.4169,-3.4393,-3.4958,-3.5572,-3.6149,-3.6441,-3.7627,-3.8763,0.0,-3.941,-3.9901,-3.9985,-4.0722,-4.1546,-4.2304,-4.3305,-4.4277,-4.5069,-4.5485,-4.5858,-4.6242,-4.6619,-4.7007,-4.7363,-4.787,-4.8207,-4.8207,-4.8267,-4.8306,-4.8306,-4.8306,-4.8306,-4.8306,-4.8438,-4.855,-4.8623,-4.8803,-4.9012,-4.9228,-4.9289,-4.9461,-4.975,-4.975,-4.9403,-4.8707,-4.7896,-4.7132,-4.6391,-4.5764,-4.5531,-4.5612,-4.5676,-4.5758,-4.5795,-4.5795,-4.5798,-4.5807,-4.5807,-4.5807,-4.5807,-2.4016,-2.3947,-2.3865,-2.375,-2.3487,-2.3193,-2.2816,-2.2517,-2.2155,-2.1691,-2.1277,-2.1036,-2.1037,-2.1178,-2.1435,-2.1795,-2.1516,-2.1472,-2.1846,-2.0993,-2.0399,-2.0236,-1.9077,-1.8357,-1.8205,-1.7676,-1.7387,-1.7387,-1.7387,-1.7424,-1.7472,-1.7472,-1.7715,-1.808,-1.8547,-1.9031,-1.961,-2.0656,-2.1417,-2.2028,-2.3022,-2.4137,-2.5254,-2.5917,-2.6917,-2.8042,-2.8756,-2.9241,0.0,0.0,-3.007,-3.041,-3.109,-3.1446,-3.1874,-3.3336,-3.3812,-3.4024,-3.4841,-3.5978,-3.6935,-3.6991,-3.817,-3.9353,-3.948,-3.9767,-4.0011,-4.007,-4.1052,-4.2019,-4.2325,-4.3484,-4.4528,-4.4899,-4.5177,-4.5441,-4.5684,-4.6087,-4.6477,-4.6852,-4.7302,-4.7687,-4.805,-4.8169,-4.8267,-4.8287,-4.8306,-4.8306,-4.8306,-4.8363,-4.842,-4.8532,-4.866,-4.882,-4.9029,-4.9131,-4.9279,-4.9464,-4.8991,-4.8407,-4.7669,-4.6838,-4.6094,-4.5454,-4.5379,-4.539,-4.5495,-4.5593,-4.5668,-4.575,-4.5781,-4.5795,-4.5798,-4.58,-4.5807,-4.5807,-2.4026,-2.3996,-2.3955,-2.3807,-2.3634,-2.3372,-2.2965,-2.2721,-2.2508,-2.227,-2.1881,-2.1761,-2.2185,-2.2137,-2.2148,-2.2388,-2.2105,-2.205,-2.2387,-2.1617,-2.1079,-2.0881,-1.9894,-1.9147,-1.8716,-1.8291,-1.8061,-1.8061,-1.8061,-1.8145,-1.8277,-1.8289,-1.8506,-1.8879,-1.9383,-1.9879,-2.0422,-2.1277,-2.1994,-2.259,-2.3271,-2.4246,-2.5348,-2.5904,-2.6627,-2.7437,-2.8213,-2.8756,0.0,0.0,-2.9522,-2.9857,-3.047,-3.0738,-3.111,-3.2495,-3.3228,-3.3825,-3.4877,-3.6157,-3.7295,-3.7536,-3.8638,-3.9677,-3.9807,-3.9833,-3.9858,-3.9986,-4.1024,-4.1996,-4.2216,-4.3341,-4.4372,-4.4686,-4.4858,-4.5032,-4.5257,-4.5606,-4.5988,-4.6398,-4.676,-4.7173,-4.7749,-4.801,-4.8169,-4.8267,-4.8287,-4.8306,-4.8306,-4.8306,-4.8325,-4.8438,-4.8532,-4.8642,-4.8803,-4.8945,-4.91,-4.9244,-4.8421,-4.7645,-4.6881,-4.5823,-4.5124,-4.4764,-4.4979,-4.5184,-4.5321,-4.5429,-4.5558,-4.566,-4.5719,-4.575,-4.5773,-4.5798,-4.5793,-4.5807,-2.4026,-2.3996,-2.3955,-2.3807,-2.3793,-2.3645,-2.3253,-2.2952,-2.293,-2.3301,-2.2933,-2.2881,-2.3493,-2.3196,-2.31,-2.342,-2.2965,-2.2535,-2.2236,-2.2114,-2.1834,-2.1302,-2.1239,-2.0825,-1.9967,-1.9791,-1.9736,-1.9736,-1.9736,-2.0001,-2.0494,-2.0502,-2.0497,-2.0538,-2.0555,-2.0653,-2.0803,-2.1103,-2.1552,-2.2208,-2.3265,-2.4205,-2.5115,-2.6093,-2.68,-2.7284,-2.7831,0.0,0.0,0.0,-2.8904,-2.9182,-2.9464,-2.9598,-2.9839,-3.089,-3.2325,-3.3917,-3.5366,-3.6422,-3.7293,-3.816,-3.8935,-3.9537,-3.9677,-3.9703,-3.9703,-3.9703,-4.0438,-4.1257,-4.1954,-4.2837,-4.369,-4.4479,-4.4737,-4.4858,-4.4978,-4.523,-4.5572,-4.5963,-4.6357,-4.6783,-4.728,-4.7747,-4.807,-4.8187,-4.8267,-4.8306,-4.8306,-4.8306,-4.8306,-4.8306,-4.8438,-4.855,-4.8605,-4.8732,-4.8911,-4.9101,-4.8226,-4.7418,-4.6657,-4.5121,-4.4487,-4.4619,-4.4745,-4.4919,-4.5106,-4.5188,-4.5332,-4.5513,-4.5577,-4.5654,-4.5715,-4.5773,-4.5791,-4.5807,-2.4016,-2.4384,-2.4696,-2.4599,-2.5007,-2.5247,-2.5033,-2.4312,-2.3746,-2.3616,-2.3895,0.0,0.0,0.0,0.0,0.0,-2.353,-2.3303,-2.3272,-2.2961,-2.2645,-2.2445,-2.2081,-2.1574,-2.0875,-2.0592,-2.0407,-2.0334,-2.0334,-2.043,-2.0598,-2.061,-2.0581,-2.0617,-2.1344,-2.1735,-2.1922,-2.2856,-2.3616,-2.427,-2.4964,-2.5484,-2.5939,-2.669,-2.7021,-2.7119,0.0,0.0,0.0,-2.8332,-2.8518,-2.8724,-2.8811,-2.8912,-2.9318,-3.0846,-3.2547,-3.4064,-3.4652,-3.5859,-3.7041,-3.7323,-3.8404,-3.9405,-3.9537,-3.9563,-3.959,-3.9677,-4.0316,-4.0929,-4.1198,-4.2265,-4.3255,-4.3619,-4.4131,-4.4536,-4.4709,-4.4886,-4.5167,-4.5555,-4.5887,-4.6308,-4.6916,-4.7472,-4.7927,-4.8168,-4.8226,-4.8247,-4.8287,-4.8306,-4.8306,-4.8306,-4.8438,-4.8494,-4.8532,-4.8715,-4.8563,-4.8094,-4.6771,-4.5722,-4.4898,-4.4453,-4.4285,-4.4344,-4.4565,-4.4738,-4.4846,-4.5042,-4.5208,-4.5322,-4.5457,-4.5566,-4.5646,-4.57,-4.5739,-4.5734,-2.4389,-2.4803,-2.5205,-2.54,-2.5825,0.0,0.0,0.0,0.0,0.0,0.0,0.0,0.0,0.0,0.0,0.0,0.0,-2.3752,-2.3728,-2.3497,-2.3315,-2.3264,-2.2897,-2.2428,-2.1857,-2.1469,-2.1165,-2.0957,-2.0957,-2.1012,-2.1175,-2.1175,-2.1272,-2.1488,-2.2223,-2.2727,-2.3028,-2.4045,-2.4795,-2.5358,-2.5879,-2.6327,-2.6711,-2.7343,-2.7618,0.0,0.0,0.0,0.0,-2.8181,-2.8122,-2.8189,-2.8286,-2.8585,-2.9244,-3.0873,-3.2333,-3.3558,-3.4226,-3.5333,-3.6413,-3.7006,-3.7985,-3.8931,-3.9232,-3.9379,-3.9458,-3.9537,-3.9957,-4.0401,-4.0695,-4.1759,-4.2702,-4.3065,-4.3794,-4.4338,-4.4468,-4.4626,-4.4858,-4.5203,-4.5477,-4.5912,-4.6542,-4.707,-4.7554,-4.7988,-4.8128,-4.8226,-4.8267,-4.8287,-4.8306,-4.8306,-4.8382,-4.8457,-4.8513,-4.8643,-4.816,-4.712,-4.5904,-4.4841,-4.4005,-4.4085,-4.415,-4.4199,-4.4387,-4.451,-4.4619,-4.4821,-4.4972,-4.5079,-4.5301,-4.5438,-4.5513,-4.5618,-4.5687,-4.5711,-2.5074,-2.5262,-2.5521,0.0,0.0,0.0,0.0,0.0,0.0,0.0,0.0,0.0,0.0,0.0,0.0,0.0,0.0,0.0,-2.3659,-2.3818,0.0,-2.378,-2.373,-2.3461,-2.2925,-2.2434,-2.205,-2.1684,-2.1696,-2.1904,-2.2247,-2.2259,-2.2513,-2.3039,-2.3203,-2.3603,-2.4112,-2.4671,-2.5115,-2.5511,-2.6171,-2.6803,-2.7434,-2.8023,0.0,0.0,0.0,0.0,0.0,-2.8267,-2.7806,-2.773,-2.7966,-2.8646,-2.9603,-3.0872,-3.1711,-3.255,-3.4064,-3.4824,-3.5552,-3.7123,-3.7756,-3.8157,-3.8848,-3.9121,-3.9272,-3.9272,-3.9395,-3.9701,-4.0411,-4.1259,-4.2111,-4.2808,-4.3692,-4.431,-4.431,-4.4468,-4.4709,-4.4951,-4.5203,-4.558,-4.6112,-4.6525,-4.7025,-4.7615,-4.7968,-4.8168,-4.8187,-4.8267,-4.8287,-4.8306,-4.8306,-4.8363,-4.8494,-4.8402,-4.7683,-4.6286,-4.5572,-4.4804,-4.4005,-4.4005,-4.407,-4.4184,-4.4184,-4.427,-4.4397,-4.4537,-4.4672,-4.4827,-4.508,-4.5208,-4.5312,-4.5504,-4.5631,-4.5682,0.0,0.0,0.0,0.0,0.0,0.0,0.0,0.0,0.0,0.0,0.0,0.0,0.0,0.0,0.0,0.0,0.0,0.0,-2.4379,-2.4896,0.0,0.0,0.0,-2.4817,-2.4226,-2.3809,0.0,0.0,0.0,-2.2982,-2.3103,-2.2939,-2.3014,-2.3341,-2.4173,-2.4772,-2.5275,-2.6342,-2.702,-2.736,0.0,-2.814,-2.8168,0.0,0.0,0.0,0.0,0.0,0.0,-2.9244,-2.9017,-2.8854,-2.8827,-2.9381,-3.0128,-3.0554,-3.1393,-3.2322,-3.2948,-3.392,-3.4995,-3.6001,-3.6999,-3.7872,-3.8559,-3.8805,-3.8958,-3.9067,-3.9094,-3.9224,-3.9557,-4.0663,-4.1632,-4.1972,-4.3215,-4.4184,-4.4281,-4.4468,-4.4654,-4.4831,-4.5005,-4.5283,-4.5709,-4.6112,-4.6525,-4.7002,-4.7529,-4.7907,-4.8032,-4.8149,-4.8247,-4.8287,-4.8306,-4.8306,-4.8363,-4.7261,-4.6558,-4.6286,-4.4913,-4.4165,-4.4005,-4.4005,-4.402,-4.4055,-4.4169,-4.4214,-4.4274,-4.4401,-4.4537,-4.4672,-4.4833,-4.5003,-4.5154,-4.5262,-4.539,-4.5495,0.0,0.0,0.0,0.0,0.0,0.0,0.0,0.0,0.0,0.0,0.0,0.0,0.0,0.0,0.0,0.0,0.0,0.0,0.0,-2.6032,0.0,0.0,0.0,-2.5582,-2.5287,-2.4809,0.0,0.0,0.0,0.0,0.0,-2.356,-2.3688,-2.406,-2.48,-2.5382,-2.5869,0.0,0.0,0.0,0.0,0.0,0.0,0.0,0.0,0.0,0.0,0.0,-3.0404,-3.0376,-2.985,-2.9212,-2.9311,-2.9677,-3.0201,-3.0524,-3.1029,-3.1544,-3.2056,-3.28,-3.3757,-3.5181,-3.6302,-3.7292,-3.8288,-3.8667,-3.8832,-3.8969,-3.8996,-3.905,-3.9272,-4.0448,-4.1453,-4.1538,-4.3251,-4.4495,-4.4246,-4.4699,-4.4998,-4.4743,-4.4831,-4.5032,-4.531,-4.5632,-4.5988,-4.6332,-4.7143,-4.7699,-4.7868,-4.8088,-4.8226,-4.8247,-4.8287,-4.8141,-4.7773,-4.6654,-4.5951,-4.5631,-4.4476,-4.3913,-4.3961,-4.3989,-4.4005,-4.4005,-4.407,-4.4119,-4.4135,-4.4255,-4.4358,-4.4426,-4.4646,-4.4796,-4.4943,-4.5098,-4.522,-4.5332,0.0,0.0,0.0,0.0,0.0,0.0,0.0,0.0,0.0,-2.8166,-2.7889,-2.7882,-2.8353,-2.8203,0.0,0.0,0.0,0.0,0.0,0.0,0.0,0.0,0.0,-2.6221,-2.6238,-2.5714,-2.5245,0.0,0.0,0.0,0.0,0.0,0.0,0.0,0.0,0.0,0.0,0.0,0.0,0.0,0.0,0.0,0.0,0.0,0.0,0.0,0.0,0.0,-3.1467,-3.1351,-3.0435,-2.9438,-2.9711,-2.99,-3.0162,-3.0705,-3.0732,-3.0761,-3.1488,-3.1845,-3.2498,-3.4663,-3.5724,-3.66,-3.804,-3.8572,-3.8777,-3.8942,-3.8969,-3.9023,-3.9272,-4.0448,-4.1409,-4.1409,-4.3473,-4.4846,-4.4181,-4.4928,-4.5314,-4.4682,-4.4709,-4.4831,-4.4951,-4.5203,-4.5468,-4.5735,-4.6719,-4.7403,-4.7575,-4.7947,-4.8148,-4.8187,-4.8137,-4.781,-4.7113,-4.6305,-4.5531,-4.4776,-4.4171,-4.3865,-4.3897,-4.3958,-4.3989,-4.4005,-4.4005,-4.4005,-4.4005,-4.4119,-4.4184,-4.4229,-4.4458,-4.4592,-4.4699,-4.4931,-4.5076,-4.5169,0.0,0.0,0.0,0.0,0.0,0.0,0.0,0.0,0.0,0.0,0.0,0.0,0.0,0.0,0.0,0.0,0.0,0.0,0.0,0.0,0.0,-2.7837,-2.7859,-2.7737,-2.7419,-2.699,-2.6692,-2.6493,-2.6135,0.0,0.0,0.0,0.0,0.0,0.0,0.0,0.0,0.0,0.0,0.0,0.0,0.0,0.0,0.0,0.0,0.0,0.0,-3.1626,0.0,0.0,-3.1129,-3.0908,-3.0866,-3.0852,-3.0911,-3.1014,-3.1102,-3.1245,-3.1595,-3.2,-3.2776,-3.4732,-3.5542,-3.6295,-3.787,-3.8379,-3.856,-3.8777,-3.8832,-3.8914,-3.9245,-4.0448,-4.1409,-4.1409,-4.3027,-4.4248,-4.4114,-4.4518,-4.475,-4.4632,-4.4626,-4.4682,-4.4831,-4.4995,-4.5177,-4.5468,-4.5945,-4.6483,-4.7017,-4.7515,-4.7907,-4.8187,-4.7566,-4.7184,-4.7094,-4.5663,-4.489,-4.4776,-4.4019,-4.3751,-4.3897,-4.3913,-4.3961,-4.4005,-4.4005,-4.4005,-4.4005,-4.402,-4.4104,-4.4199,-4.4259,-4.4344,-4.4468,-4.4632,-4.4757,-4.49,0.0,0.0,0.0,0.0,0.0,0.0,0.0,0.0,0.0,0.0,0.0,0.0,0.0,0.0,0.0,0.0,0.0,0.0,0.0,0.0,0.0,0.0,0.0,-2.8764,-2.8312,-2.7997,-2.7881,-2.7987,0.0,-2.7718,-2.8003,-2.7556,-2.741,-2.7504,-2.7542,0.0,0.0,0.0,0.0,0.0,0.0,0.0,0.0,0.0,0.0,0.0,0.0,-3.1727,-3.1626,0.0,-3.1409,-3.138,-3.1161,-3.1117,-3.1117,-3.1117,-3.0939,-3.0904,-3.1534,-3.1832,-3.2493,-3.4654,-3.5554,-3.6307,-3.7842,-3.8379,-3.856,-3.875,-3.886,-3.8969,-3.9245,-4.0177,-4.0994,-4.1359,-4.2927,-4.4097,-4.4097,-4.5058,-4.5478,-4.4699,-4.4925,-4.5038,-4.4716,-4.4748,-4.4886,-4.5086,-4.5389,-4.5895,-4.6602,-4.7169,-4.7482,-4.7468,-4.7084,-4.6558,-4.5865,-4.5076,-4.4506,-4.4118,-4.3766,-4.3649,-4.3751,-4.3818,-4.3867,-4.3899,-4.3899,-4.3913,-4.3961,-4.3961,-4.4008,-4.4101,-4.4184,-4.4244,-4.4314,-4.444,-4.4578,-4.4719,0.0,0.0,0.0,0.0,0.0,0.0,0.0,0.0,-2.9179,-3.0749,-3.092,-3.12,-3.1882,-3.1941,0.0,0.0,0.0,0.0,0.0,0.0,0.0,0.0,0.0,-2.9655,-2.9212,0.0,0.0,-2.9425,-2.9367,0.0,0.0,0.0,0.0,0.0,-2.8519,-2.8198,-2.8052,0.0,0.0,0.0,0.0,-3.133,0.0,0.0,0.0,0.0,0.0,-3.1912,-3.187,-3.1683,-3.1626,-3.1568,-3.1322,-3.1234,-3.119,-3.119,-3.0907,-3.081,-3.1617,-3.1861,-3.2449,-3.4802,-3.5735,-3.6459,-3.7967,-3.8504,-3.8683,-3.8805,-3.8942,-3.905,-3.9272,-3.9912,-4.0591,-4.111,-4.2665,-4.3834,-4.3863,-4.5264,-4.5843,-4.475,-4.5111,-4.5229,-4.4666,-4.4615,-4.4654,-4.4765,-4.5005,-4.5503,-4.6308,-4.6812,-4.6946,-4.6608,-4.6504,-4.5858,-4.4637,-4.449,-4.4122,-4.3515,-4.3548,-4.3582,-4.3599,-4.3719,-4.3769,-4.3804,-4.3804,-4.3837,-4.3883,-4.3881,-4.3929,-4.3989,-4.4119,-4.4169,-4.4165,-4.4314,-4.4411,-4.4537,0.0,0.0,0.0,0.0,0.0,0.0,0.0,0.0,-2.9263,-3.0871,-3.103,-3.154,-3.2991,-3.3611,0.0,0.0,0.0,0.0,0.0,0.0,0.0,0.0,0.0,0.0,0.0,0.0,0.0,-3.0741,-3.1134,0.0,0.0,0.0,0.0,0.0,0.0,-2.9822,-2.9152,-2.9312,0.0,0.0,0.0,0.0,0.0,0.0,0.0,0.0,0.0,-3.2274,-3.215,-3.1981,-3.194,-3.194,-3.1784,-3.1612,-3.1453,-3.1453,-3.1567,-3.1751,-3.2216,-3.2528,-3.3215,-3.5465,-3.6147,-3.6707,-3.8368,-3.8777,-3.8805,-3.8942,-3.8996,-3.905,-3.9272,-3.9912,-4.0426,-4.0492,-4.1848,-4.2967,-4.3093,-4.3922,-4.4564,-4.4587,-4.4666,-4.4682,-4.4615,-4.4615,-4.4615,-4.4615,-4.4858,-4.5363,-4.6186,-4.6381,-4.6317,-4.5986,-4.5516,-4.4983,-4.4437,-4.3815,-4.352,-4.3515,-4.3515,-4.3531,-4.3599,-4.3599,-4.3684,-4.3804,-4.3804,-4.3804,-4.382,-4.3883,-4.3897,-4.3913,-4.3989,-4.402,-4.402,-4.4165,-4.4229,-4.4255,0.0,0.0,0.0,0.0,0.0,0.0,0.0,0.0,-2.9344,-3.0946,-3.1137,-3.1724,-3.3313,-3.4561,0.0,0.0,0.0,0.0,0.0,0.0,0.0,0.0,0.0,0.0,0.0,0.0,-3.2044,-3.2782,-3.2879,0.0,0.0,0.0,0.0,0.0,0.0,-3.0807,-3.0502,-3.0569,0.0,0.0,0.0,0.0,0.0,0.0,0.0,0.0,0.0,0.0,-3.2645,-3.2425,-3.237,-3.2342,-3.2191,-3.2066,-3.1896,-3.1712,-3.1784,-3.2116,-3.3045,-3.3498,-3.4182,-3.6204,-3.6793,-3.7215,-3.8416,-3.8738,-3.8832,-3.8969,-3.9094,-3.9218,-3.9299,-3.9547,-3.9879,-4.0326,-4.1366,-4.2294,-4.2801,-4.4083,-4.4827,-4.4462,-4.4919,-4.5077,-4.4649,-4.4615,-4.4615,-4.4615,-4.4709,-4.4923,-4.5336,-4.5351,-4.5228,-4.4894,-4.435,-4.3892,-4.3504,-4.3342,-4.3322,-4.3446,-4.348,-4.3496,-4.3531,-4.3531,-4.3566,-4.3617,-4.3617,-4.3634,-4.3684,-4.3718,-4.3767,-4.3851,-4.3913,-4.3945,-4.3961,-4.4039,-4.4135,-4.4214,0.0,0.0,0.0,0.0,0.0,0.0,-2.8929,-2.9071,-2.9673,-3.1042,-3.143,-3.2165,-3.3769,-3.5173,-3.5742,-3.5135,0.0,0.0,0.0,0.0,0.0,0.0,0.0,0.0,0.0,0.0,-3.3528,-3.4346,-3.4471,-3.4682,0.0,0.0,-3.3962,-3.369,0.0,0.0,0.0,0.0,0.0,0.0,0.0,0.0,0.0,0.0,0.0,0.0,0.0,0.0,0.0,0.0,0.0,-3.29,-3.2711,-3.2547,-3.237,-3.2122,-3.2275,-3.2744,-3.3865,-3.4462,-3.5163,-3.6878,-3.7334,-3.7611,-3.8509,-3.8794,-3.8914,-3.9067,-3.9202,-3.9299,-3.9299,-3.9299,-3.9547,-4.0293,-4.1089,-4.1904,-4.2682,-4.4035,-4.4795,-4.436,-4.4884,-4.5105,-4.4649,-4.4615,-4.4615,-4.4615,-4.4615,-4.4626,-4.4737,-4.4302,-4.4014,-4.3933,-4.3457,-4.3022,-4.271,-4.2939,-4.3142,-4.334,-4.3429,-4.348,-4.3515,-4.3515,-4.3515,-4.3515,-4.3515,-4.3532,-4.3565,-4.3582,-4.3651,-4.3753,-4.3835,-4.3883,-4.3915,-4.3942,-4.4039,-4.4153,0.0,0.0,0.0,0.0,0.0,0.0,0.0,0.0,-3.0381,-3.1192,-3.1926,-3.2999,-3.4604,-3.5516,-3.6322,-3.7091,0.0,0.0,0.0,0.0,0.0,0.0,0.0,0.0,0.0,0.0,-3.537,-3.5186,-3.5921,-3.6114,-3.5805,-3.5766,-3.5309,-3.4489,0.0,0.0,0.0,0.0,0.0,0.0,0.0,0.0,0.0,0.0,0.0,0.0,0.0,0.0,0.0,0.0,0.0,0.0,0.0,-3.3113,-3.2926,-3.2668,-3.3098,-3.3852,-3.4606,-3.5289,-3.6098,-3.7443,-3.7633,-3.7769,-3.8777,-3.8996,-3.905,-3.9272,-3.9299,-3.9299,-3.9299,-3.9299,-3.9547,-4.0293,-4.0961,-4.1747,-4.2682,-4.3431,-4.4015,-4.4281,-4.431,-4.4384,-4.457,-4.4615,-4.4615,-4.4615,-4.4615,-4.4615,-4.4615,-4.3284,-4.2749,-4.3304,-4.2929,-4.2551,-4.2216,-4.2537,-4.2864,-4.3196,-4.334,-4.3429,-4.3515,-4.3515,-4.3515,-4.3515,-4.3515,-4.3515,-4.3515,-4.3565,-4.3599,-4.3634,-4.3736,-4.3835,-4.3897,-4.3897,-4.3945,-4.402,0.0,0.0,0.0,0.0,0.0,0.0,0.0,0.0,-3.0461,-3.1268,-3.2538,0.0,-3.482,0.0,0.0,0.0,0.0,0.0,0.0,0.0,0.0,0.0,0.0,0.0,0.0,0.0,0.0,-3.6568,-3.6676,-3.6658,-3.6539,-3.6412,-3.6205,-3.5904,-3.5363,-3.4981,0.0,0.0,0.0,0.0,0.0,0.0,-3.5222,0.0,0.0,0.0,0.0,0.0,0.0,0.0,0.0,0.0,0.0,0.0,0.0,-3.4503,-3.4303,-3.4427,-3.5973,-3.6543,-3.6952,-3.8084,-3.8219,-3.824,-3.8756,-3.886,-3.8942,-3.9245,-3.9299,-3.9299,-3.9299,-3.9299,-3.9547,-4.0293,-4.0961,-4.1856,-4.3173,-4.4059,-4.4857,-4.558,-4.5433,-4.5071,-4.4649,-4.4615,-4.4615,-4.4615,-4.4615,-4.435,-4.3809,-4.2898,-4.2541,-4.2885,-4.1909,-4.1487,-4.1644,-4.1987,-4.2376,-4.2786,-4.3013,-4.3232,-4.3429,-4.348,-4.3515,-4.3515,-4.3515,-4.3515,-4.3515,-4.3513,-4.3513,-4.3531,-4.3634,-4.3684,-4.3718,-4.3802,-4.3883,-4.3945,0.0,0.0,0.0,0.0,0.0,0.0,0.0,0.0,-3.0834,-3.1342,-3.3073,0.0,0.0,0.0,0.0,0.0,0.0,0.0,0.0,0.0,0.0,0.0,0.0,0.0,0.0,-3.6737,-3.7041,-3.7449,-3.7338,-3.7207,-3.7092,-3.6956,-3.6858,-3.6801,-3.6287,-3.6018,0.0,0.0,0.0,0.0,0.0,0.0,-3.5745,0.0,0.0,0.0,0.0,0.0,0.0,0.0,0.0,0.0,0.0,0.0,0.0,0.0,-3.6068,-3.5954,-3.7129,-3.7583,-3.7892,-3.8569,-3.8655,-3.86,-3.8832,-3.8887,-3.8958,-3.9245,-3.9299,-3.9299,-3.9299,-3.9531,-3.9962,-4.0647,-4.1359,-4.2336,-4.3827,-4.4467,-4.5083,-4.5791,-4.5471,-4.502,-4.4649,-4.4615,-4.4615,-4.4615,-4.4615,-4.4231,-4.3426,-4.2692,-4.2247,-4.2159,-4.1182,-4.0843,-4.1169,-4.1534,-4.192,-4.2333,-4.2691,-4.2994,-4.3251,-4.3393,-4.348,-4.3515,-4.3515,-4.3515,0.0,-4.3515,-4.3515,-4.3496,-4.3566,-4.3565,-4.3599,-4.3684,-4.3786,-4.3867,0.0,0.0,0.0,0.0,0.0,0.0,0.0,0.0,0.0,0.0,0.0,0.0,0.0,0.0,0.0,0.0,0.0,0.0,0.0,0.0,0.0,0.0,0.0,0.0,0.0,-3.7772,-3.8052,-3.7934,-3.7934,-3.7757,-3.745,-3.7431,-3.7376,-3.7245,-3.7167,-3.7071,0.0,0.0,0.0,0.0,-3.6314,-3.6247,0.0,0.0,0.0,0.0,0.0,0.0,0.0,0.0,0.0,0.0,0.0,0.0,0.0,0.0,0.0,0.0,0.0,-3.8465,-3.8832,-3.8969,-3.8914,-3.8832,-3.8969,-3.8996,0.0,-3.9272,-3.9299,-3.9299,-3.9299,-3.9912,-4.0641,-4.1293,-4.2009,-4.3032,-4.4473,-4.4768,-4.4876,-4.5159,-4.4699,-4.4417,-4.4587,-4.4598,-4.4615,-4.4615,-4.4564,-4.4164,-4.3341,-4.2625,-4.188,-4.1153,-4.0695,-4.0566,-4.0754,-4.1146,-4.1507,-4.1878,-4.2313,-4.2689,-4.2995,-4.3251,-4.3411,-4.3497,-4.3497,-4.3515,-4.3515,-4.3515,-4.3515,-4.3515,-4.3515,-4.3549,-4.3582,-4.3582,-4.3667,-4.3786,0.0,0.0,0.0,0.0,0.0,0.0,0.0,0.0,0.0,0.0,0.0,0.0,0.0,0.0,0.0,0.0,0.0,0.0,0.0,0.0,0.0,0.0,0.0,0.0,0.0,-3.8275,-3.8318,-3.8287,-3.8223,-3.8104,-3.793,-3.7879,-3.781,-3.7739,-3.7613,0.0,0.0,0.0,0.0,0.0,-3.6713,-3.6591,0.0,0.0,0.0,0.0,-3.5975,-3.5822,0.0,0.0,0.0,0.0,0.0,0.0,0.0,0.0,-3.8335,-3.9156,-3.9146,0.0,-3.8832,-3.8969,-3.8914,-3.8832,0.0,-3.8996,-3.905,-3.9272,-3.9299,-3.9299,-3.9299,-3.9912,-4.0641,-4.1293,-4.2009,-4.3032,-4.4473,-4.5308,-4.5566,-4.5043,-4.5077,-4.4945,-4.4417,-4.4514,-4.4615,-4.4615,-4.4028,-4.3352,-4.2591,-4.1863,-4.1119,-4.0383,-4.0248,-4.0288,-4.0436,-4.0614,-4.0931,-4.1373,-4.1731,-4.2192,-4.2709,-4.2957,-4.3214,-4.3429,-4.348,-4.3515,-4.3515,-4.3515,-4.3515,-4.3515,-4.3515,-4.3515,-4.3513,-4.3513,-4.3583,-4.3651,0.0,0.0,0.0,0.0,0.0,0.0,0.0,0.0,0.0,0.0,0.0,0.0,0.0,0.0,0.0,0.0,0.0,0.0,0.0,0.0,0.0,0.0,0.0,0.0,0.0,-3.8562,-3.8512,-3.8446,-3.8417,-3.832,-3.8204,-3.8154,-3.8105,-3.8021,-3.7898,0.0,0.0,0.0,0.0,0.0,-3.7537,0.0,0.0,0.0,0.0,0.0,-3.6297,-3.6084,0.0,-3.5734,-3.5644,-3.5667,0.0,0.0,0.0,0.0,-3.8807,-3.959,-3.9528,-3.9272,-3.904,-3.9121,-3.9094,-3.904,-3.9121,-3.9148,-3.9175,-3.9272,-3.9299,-3.9398,-3.9746,-4.0393,-4.1094,-4.1806,-4.2506,-4.3413,-4.4522,-4.5128,-4.5305,-4.495,-4.4795,-4.4591,-4.4246,-4.4355,-4.4468,-4.4468,-4.3787,-4.3098,-4.2337,-4.1593,-4.0849,-4.013,-4.0096,-4.0121,-4.0213,-4.0337,-4.0583,-4.0884,-4.1283,-4.1709,-4.2192,-4.2632,-4.2975,-4.3233,-4.3375,-4.3463,-4.3515,-4.3515,-4.3515,-4.3515,-4.3515,-4.3515,-4.3515,-4.3515,-4.3513,-4.3548,0.0,0.0,0.0,0.0,0.0,0.0,0.0,0.0,0.0,0.0,0.0,0.0,0.0,0.0,0.0,0.0,0.0,0.0,0.0,0.0,0.0,0.0,0.0,0.0,-3.8707,-3.8707,-3.864,-3.8525,-3.851,-3.8449,-3.8323,-3.8289,-3.8257,-3.8192,-3.8088,0.0,0.0,0.0,0.0,-3.7972,-3.847,0.0,0.0,0.0,0.0,0.0,0.0,0.0,0.0,-3.5883,-3.5734,-3.574,-3.6423,0.0,0.0,0.0,0.0,0.0,-3.953,-3.9422,-3.9332,-3.9448,-3.9547,-3.957,-3.9454,-3.9411,-3.9377,-3.9235,-3.9301,-3.9582,-4.0194,-4.0988,-4.1732,-4.2361,-4.3118,-4.3813,-4.444,-4.4522,-4.4553,-4.469,-4.4234,-4.3939,-4.4056,-4.4196,-4.4231,-4.4142,-4.3563,-4.2902,-4.2168,-4.1424,-4.0747,-4.013,-4.0096,-4.0096,-4.0096,-4.0213,-4.0337,-4.0485,-4.0884,-4.1283,-4.1644,-4.221,-4.2632,-4.2957,-4.3214,-4.3375,-4.348,-4.3497,-4.3515,-4.3515,-4.3515,-4.3515,-4.3515,-4.3515,-4.3515,-4.3515,0.0,0.0,0.0,0.0,0.0,0.0,0.0,0.0,0.0,0.0,0.0,0.0,0.0,0.0,0.0,0.0,0.0,0.0,0.0,0.0,0.0,0.0,0.0,-3.9405,-3.8707,-3.8707,-3.8692,-3.8658,-3.8559,-3.8462,-3.8385,-3.8322,-3.8257,-3.8209,-3.8174,-3.8157,-3.8158,0.0,-3.8346,-3.8977,-3.9013,0.0,0.0,0.0,0.0,0.0,0.0,0.0,0.0,-3.6062,-3.5866,-3.5768,-3.578,0.0,0.0,0.0,0.0,0.0,-3.9527,-3.9484,-3.9448,-4.0078,-4.0647,-4.0872,-4.015,-3.999,-3.9753,-3.9018,-3.938,-3.9856,-3.997,-4.1173,-4.2215,-4.2301,-4.303,-4.3631,-4.3731,-4.3764,-4.3794,-4.3794,-4.3859,-4.3898,-4.3927,-4.4056,-4.3915,-4.3407,-4.2694,-4.2034,-4.1407,-4.0663,-4.0231,-4.0096,-4.0096,-4.0096,-4.0096,-4.0138,-4.0188,-4.0337,-4.0534,-4.0836,-4.1283,-4.1666,-4.2151,-4.267,-4.2939,-4.3214,-4.3411,-4.348,-4.3515,-4.3515,-4.3515,-4.3515,-4.3515,-4.3515,-4.3515,-4.3515,0.0,0.0,0.0,0.0,0.0,0.0,0.0,0.0,0.0,0.0,0.0,0.0,0.0,0.0,0.0,0.0,0.0,0.0,0.0,0.0,0.0,0.0,-4.0763,-3.9974,-3.8726,-3.8707,-3.8707,-3.8707,-3.8643,-3.8528,-3.8399,-3.8289,-3.8242,-3.8209,-3.8209,-3.8209,-3.8192,-3.8122,-3.8575,-3.9353,0.0,0.0,0.0,0.0,0.0,0.0,0.0,0.0,0.0,0.0,-3.5997,-3.5773,-3.5644,0.0,0.0,0.0,0.0,0.0,-3.9502,-3.9794,-4.005,-4.0668,-4.0856,-4.0834,-4.0732,-4.0692,-4.0565,-4.0082,-4.025,-4.0623,-4.0983,-4.1723,-4.245,-4.2917,-4.3353,-4.3598,-4.3598,-4.3598,-4.3598,-4.3598,-4.3687,-4.3734,-4.3734,-4.3544,-4.3292,-4.2997,-4.1992,-4.1312,-4.1116,-4.0391,-4.0037,-4.0096,-4.0096,-4.0096,-4.0096,-4.0096,-4.0121,-4.0188,-4.0337,-4.0541,-4.0853,-4.1237,-4.1727,-4.2234,-4.2613,-4.2975,-4.3305,-4.3411,-4.3463,-4.3515,-4.3515,-4.3515,-4.3515,-4.3515,-4.3515,-4.3515,0.0,0.0,0.0,0.0,0.0,0.0,0.0,0.0,0.0,0.0,0.0,0.0,0.0,0.0,0.0,0.0,0.0,0.0,0.0,0.0,0.0,0.0,0.0,0.0,-3.8726,-3.8707,-3.8707,-3.8707,-3.8658,-3.8562,-3.8385,-3.8457,-3.848,-3.848,-3.848,-3.848,-3.848,-3.848,-3.8934,-3.9713,0.0,0.0,0.0,0.0,0.0,0.0,0.0,0.0,0.0,0.0,0.0,0.0,0.0,0.0,0.0,-3.7635,-3.8117,-3.8514,-3.9417,-3.9874,-4.02,-4.0729,-4.0847,-4.0915,-4.1231,-4.1304,-4.1196,-4.0769,-4.0853,-4.116,-4.1694,-4.2149,-4.2746,-4.3469,-4.3598,-4.3598,-4.3598,-4.3598,-4.3598,-4.3598,-4.3598,-4.3598,-4.3598,-4.3053,-4.2687,-4.2549,-4.1426,-4.0742,-4.0699,-4.0178,-3.991,-4.0062,-4.0062,-4.0087,-4.0096,-4.0096,-4.0096,-4.0096,-4.0213,-4.0313,-4.0461,-4.086,-4.1283,-4.1753,-4.2231,-4.267,-4.3068,-4.3269,-4.3411,-4.348,-4.3479,-4.3515,-4.3515,-4.3515,-4.3515,-4.3515,0.0,0.0,0.0,0.0,0.0,0.0,0.0,0.0,0.0,0.0,0.0,0.0,0.0,0.0,0.0,0.0,0.0,0.0,0.0,0.0,0.0,0.0,0.0,0.0,-3.8726,-3.8707,-3.8707,-3.8707,-3.8575,-3.8449,-3.8307,-3.9004,-3.9297,-3.9297,-3.9297,-3.9297,-3.9297,-3.9297,-3.9749,-4.0474,-4.1288,0.0,0.0,0.0,0.0,0.0,0.0,0.0,0.0,0.0,0.0,0.0,0.0,0.0,-3.5971,-3.7466,-3.7764,-3.787,-3.917,-3.9305,-3.9216,-3.9703,-4.0996,-4.2052,-4.1666,-4.1561,-4.1229,-4.0033,-4.0495,-4.1116,-4.1164,-4.2192,-4.3169,-4.3552,-4.3598,-4.3598,-4.3598,-4.3598,-4.3598,-4.3598,-4.3598,-4.3598,-4.3598,-4.2965,-4.2311,-4.1821,-4.1067,-4.0364,-3.9821,-3.972,-3.9781,-3.9901,-3.9926,-3.9961,-4.0096,-4.0096,-4.0096,-4.0096,-4.0113,-4.0188,-4.033,-4.0485,-4.0813,-4.1277,-4.1731,-4.2213,-4.2688,-4.3068,-4.3286,-4.3394,-4.348,-4.3515,-4.3515,-4.3515,-4.3515,-4.3515,0.0,0.0,0.0,0.0,0.0,0.0,0.0,0.0,0.0,0.0,0.0,0.0,0.0,0.0,0.0,0.0,0.0,0.0,0.0,0.0,0.0,0.0,0.0,-3.9515,-3.8726,-3.8707,-3.8707,-3.8707,-3.8512,-3.8672,-3.9117,-3.9311,-3.9641,-4.0057,-3.9604,-3.9387,-3.9387,-3.9387,-3.9822,-4.0564,-4.1379,-4.1705,0.0,0.0,0.0,0.0,0.0,0.0,0.0,0.0,-3.6673,-3.6335,0.0,-3.5822,-3.5994,-3.7466,-3.7713,-3.7803,-3.9128,-3.9255,-3.9079,-3.9451,-3.9949,-4.0524,-4.114,-4.1626,-4.1741,-4.1007,-4.1262,-4.1694,-4.1995,-4.2456,-4.2929,-4.3402,-4.3479,-4.3492,-4.3598,-4.3598,-4.3598,-4.3598,-4.3184,-4.2903,-4.2903,-4.1872,-4.1105,-4.0912,-4.0198,-3.9731,-3.958,-3.9563,-3.9642,-3.9781,-3.9849,-3.991,-3.9977,-4.0062,-4.0096,-4.0096,-4.0096,-4.0138,-4.0188,-4.0313,-4.059,-4.0984,-4.1401,-4.1878,-4.2376,-4.2731,-4.3032,-4.3286,-4.3445,-4.3515,-4.3515,-4.3515,-4.3515,-4.3515,0.0,0.0,0.0,0.0,0.0,0.0,0.0,0.0,0.0,0.0,0.0,0.0,0.0,0.0,0.0,0.0,0.0,0.0,0.0,0.0,0.0,0.0,0.0,-3.9258,-3.8707,-3.8707,-3.8707,-3.8707,-3.8496,-3.869,-3.9221,-3.9582,-4.0021,-4.0474,-3.9967,-3.9749,-3.9749,-3.9749,-4.0039,-4.0583,-4.165,-4.1959,0.0,0.0,0.0,0.0,0.0,0.0,0.0,0.0,-3.6992,-3.6571,0.0,0.0,-3.6429,-3.7581,-3.7881,-3.8087,-3.9194,-3.9228,-3.8996,-3.9205,-3.925,-3.9491,-4.0404,-4.1038,-4.1402,-4.1194,-4.1372,-4.1719,-4.2174,-4.2365,-4.2618,-4.316,-4.3221,-4.3216,-4.3135,-4.3162,-4.3109,-4.2861,-4.2411,-4.2142,-4.2142,-4.1077,-4.0409,-4.0409,-3.973,-3.9325,-3.9432,-3.9448,-3.9484,-3.9625,-3.9772,-3.9875,-3.9901,-4.0037,-4.0096,-4.0096,-4.0096,-4.0096,-4.0096,-4.0188,-4.0395,-4.0652,-4.1053,-4.149,-4.1987,-4.2378,-4.2807,-4.3233,-4.3393,-4.348,-4.3515,-4.3515,-4.3515,-4.3515,0.0,0.0,0.0,0.0,0.0,0.0,0.0,0.0,0.0,0.0,0.0,0.0,0.0,0.0,0.0,0.0,0.0,0.0,0.0,0.0,0.0,0.0,0.0,-3.8707,-3.8707,-3.8707,-3.8707,-3.8707,-3.8496,-3.8399,-3.8453,-3.9836,-4.0492,-4.0492,-4.0492,-4.0492,-4.0492,-4.0492,-4.0492,-4.0619,-4.223,-4.2486,-4.1796,0.0,0.0,0.0,0.0,0.0,0.0,0.0,-3.7299,-3.6838,-3.6447,0.0,0.0,-3.7773,-3.8235,-3.8731,-3.9328,-3.9148,-3.883,-3.8884,-3.915,-3.9408,-3.9488,-3.9745,-4.0049,-4.0167,-4.0509,-4.0969,-4.1489,-4.1867,-4.227,-4.279,-4.2883,-4.27,-4.2179,-4.22,-4.1992,-4.1263,-4.1324,-4.138,-4.138,-4.0779,-4.0393,-4.0393,-3.9713,-3.9299,-3.9299,-3.9299,-3.9352,-3.9501,-3.9642,-3.9755,-3.9901,-4.0037,-4.0096,-4.0096,-4.0096,-4.0096,-4.0096,-4.0096,-4.0163,-4.033,-4.0652,-4.1013,-4.1458,-4.1987,-4.2596,-4.3214,-4.334,-4.3446,-4.3515,-4.3515,-4.3515,-4.3515,0.0,0.0,0.0,0.0,0.0,0.0,0.0,0.0,0.0,0.0,0.0,0.0,0.0,0.0,0.0,0.0,0.0,0.0,0.0,0.0,0.0,0.0,0.0,0.0,0.0,0.0,-3.8707,-3.8707,-3.8496,-3.869,-3.9258,-3.9564,-4.0003,-4.0474,-3.9967,-3.9731,-3.9731,-3.9731,-3.9731,-3.9804,-4.0818,-4.1143,-4.0978,0.0,0.0,0.0,0.0,0.0,0.0,0.0,0.0,0.0,-3.7512,0.0,0.0,-3.8687,-3.8787,-3.8849,-3.9354,-3.9245,-3.8985,-3.9076,-3.8831,-3.8733,-3.9347,-3.9828,-4.0163,-4.0205,-4.0285,-4.0493,-4.0953,-4.08,-4.0749,-4.1135,-4.1066,-4.0911,-4.0853,-4.1075,-4.1171,-4.0942,-4.0582,-4.0339,-4.0339,-3.9781,-3.9424,-3.9424,-3.9334,-3.9299,-3.9299,-3.9299,-3.9325,-3.9352,-3.9484,-3.9616,-3.9755,-3.9884,-4.0011,-4.0096,-4.0096,-4.0096,-4.0096,-4.0096,-4.0163,-4.0305,-4.0493,-4.0741,-4.1036,-4.1778,-4.236,-4.2882,-4.3142,-4.334,-4.3429,-4.348,-4.3515,-4.3515,0.0,0.0,0.0,0.0,0.0,0.0,0.0,0.0,0.0,0.0,0.0,-3.8212,0.0,0.0,0.0,0.0,0.0,0.0,0.0,0.0,0.0,0.0,0.0,0.0,0.0,-3.8707,-3.8707,0.0,0.0,-3.8654,-3.913,-3.931,-3.9641,-4.0039,-3.9604,-3.9387,-3.9387,-3.9387,-3.9387,-3.946,-4.0184,-4.0399,-4.0211,0.0,0.0,0.0,0.0,0.0,0.0,0.0,0.0,0.0,-3.8629,0.0,-3.9225,-3.9262,-3.9306,-3.9354,-3.9525,-3.9309,-3.9078,-3.9401,-3.8963,-3.8635,-3.9295,-3.9677,-3.9804,-3.9531,-3.954,-3.9603,-3.9687,-3.9504,-3.9441,-3.9767,-3.9692,-3.9548,-3.9476,-3.9702,-3.9831,-3.9586,-3.9324,-3.919,-3.919,-3.8967,-3.8832,-3.8832,-3.9067,-3.9175,-3.9175,-3.9272,-3.9299,-3.9299,-3.9432,-3.9563,-3.9703,-3.9833,-3.9977,-4.0096,-4.0096,-4.0096,-4.0096,-4.0096,-4.0121,-4.0238,-4.0412,-4.0645,-4.0937,-4.1578,-4.2113,-4.2537,-4.2882,-4.3123,-4.334,-4.3429,-4.348,-4.3515,0.0,0.0,-3.6321,-3.6395,0.0,0.0,0.0,0.0,0.0,-3.7621,-3.7547,-3.7492,0.0,0.0,0.0,-3.8524,0.0,0.0,0.0,0.0,0.0,0.0,0.0,0.0,0.0,0.0,0.0,0.0,0.0,-3.8399,-3.8417,-3.9001,-3.9278,-3.9278,-3.9278,-3.9278,-3.9278,-3.9278,-3.9278,-3.9351,-4.0021,-3.9962,-3.9495,-3.9495,0.0,0.0,0.0,0.0,0.0,0.0,0.0,0.0,-3.9771,-3.9912,-4.0232,-3.9697,-3.981,-4.0062,-3.9781,-3.9372,-3.916,-3.9794,-3.9519,-3.9102,-3.9264,-3.9334,-3.9155,-3.8527,-3.8502,-3.845,-3.8001,-3.8065,-3.8251,-3.8565,-3.8567,-3.8447,-3.8075,-3.8197,-3.8144,-3.7662,-3.7828,-3.7985,-3.803,-3.8315,-3.8511,-3.8539,-3.8805,-3.8969,-3.8996,-3.9175,-3.9272,-3.9299,-3.9422,-3.9537,-3.9677,-3.9807,-3.9935,-4.0087,-4.0096,-4.0096,-4.0096,-4.0096,-4.0096,-4.0096,-4.0362,-4.0662,-4.0977,-4.1386,-4.1788,-4.2177,-4.2537,-4.2882,-4.3178,-4.3323,-4.3411,-4.3462,0.0,0.0,-3.6486,-3.7125,0.0,0.0,0.0,0.0,-3.8432,-3.8432,-3.7896,-3.7492,-3.7492,-3.6942,0.0,-3.7694,-3.6248,0.0,0.0,0.0,0.0,0.0,0.0,0.0,0.0,0.0,0.0,0.0,0.0,-3.8399,-3.8399,-3.8437,-3.8462,-3.8462,-3.8462,-3.8462,-3.8462,-3.8462,-3.8462,-3.848,-3.8627,-3.869,-3.8672,-3.8672,-3.8677,0.0,0.0,0.0,0.0,0.0,0.0,0.0,-4.0883,-4.1007,-4.1208,-4.0648,-4.038,-4.0205,-3.9926,-3.9513,-3.938,-4.03,-4.034,-3.9879,-3.8838,-3.8616,-3.8571,-3.8422,-3.8023,-3.7653,-3.7537,-3.727,-3.7071,-3.7155,-3.6926,-3.6736,-3.6645,-3.6879,-3.7032,-3.6923,-3.7042,-3.7207,-3.7387,-3.7637,-3.7927,-3.8201,-3.8511,-3.8777,-3.8996,-3.9023,-3.9148,-3.9299,-3.9325,-3.9405,-3.9537,-3.9694,-3.9807,-3.9935,-4.0062,-4.0096,-4.0096,-4.0096,-4.0096,-4.0096,-4.0146,-4.0345,-4.0638,-4.0977,-4.1396,-4.1842,-4.2297,-4.2632,-4.2918,-4.3104,-4.3215,-4.3286,0.0,0.0,0.0,0.0,0.0,0.0,0.0,0.0,-3.812,-3.812,-3.7422,-3.6942,-3.6942,-3.6174,0.0,0.0,-3.5738,-3.5188,0.0,0.0,0.0,0.0,0.0,0.0,0.0,0.0,0.0,0.0,-3.8496,-3.8399,-3.8399,-3.8256,-3.8209,-3.8209,-3.8209,-3.8209,-3.8209,-3.8209,-3.8209,-3.8209,-3.8209,-3.8272,-3.8399,-3.8399,-3.8512,-3.8817,-3.9606,0.0,0.0,0.0,0.0,0.0,0.0,0.0,-4.1749,-4.11,-4.071,-4.0404,-4.0003,-3.9625,-3.9478,-3.996,-3.9769,-3.9321,-3.8687,-3.7997,-3.7479,-3.7479,-3.721,-3.6866,-3.6552,-3.6289,-3.6129,-3.6129,-3.5991,-3.5878,-3.5943,-3.6101,-3.6274,-3.6336,-3.6476,-3.6616,-3.6723,-3.6997,-3.7268,-3.7504,-3.7899,-3.8242,-3.8539,-3.8706,-3.8914,-3.9148,-3.9148,-3.9272,-3.9501,-3.9625,-3.9755,-3.9901,-4.0037,-4.0096,-4.0096,-4.0096,-4.0096,-4.0096,-4.0096,-4.0213,-4.0436,-4.0734,-4.1094,-4.149,-4.1941,-4.2313,-4.2631,-4.2785,-4.2975,-4.316,0.0,0.0,0.0,0.0,0.0,0.0,0.0,0.0,0.0,-3.7713,-3.7015,-3.645,-3.6321,-3.5518,-3.5298,0.0,0.0,0.0,-3.5004,0.0,0.0,0.0,0.0,0.0,0.0,0.0,0.0,0.0,-3.8496,-3.8455,-3.8585,-3.8457,-3.848,-3.8607,-3.8607,-3.8535,-3.8408,-3.8408,-3.8336,-3.8209,-3.8209,-3.8272,-3.8399,-3.8399,-3.8512,-3.8817,-3.9606,-4.0414,-4.1224,-4.1946,0.0,0.0,0.0,0.0,-4.2092,-4.1328,-4.0924,-4.0607,-4.0104,-3.9821,-3.96,-3.9411,-3.8935,-3.8504,-3.8455,-3.7444,-3.648,-3.6375,-3.6312,-3.6148,-3.5609,-3.5504,-3.5504,-3.5504,-3.5504,-3.5554,-3.5638,-3.5671,-3.5735,-3.5878,-3.6005,-3.6085,-3.6101,-3.6399,-3.6646,-3.683,-3.7237,-3.7637,-3.7985,-3.8343,-3.8667,-3.8942,-3.8996,-3.9148,-3.9475,-3.9616,-3.9729,-3.9875,-4.002,-4.0096,-4.0096,-4.0096,-4.0096,-4.0096,-4.0096,-4.0163,-4.0305,-4.0551,-4.0853,-4.1169,-4.1542,-4.1938,-4.2315,-4.2452,-4.2727,-4.303,0.0,0.0,0.0,0.0,0.0,0.0,0.0,0.0,0.0,0.0,-3.7826,-3.707,-3.6376,-3.5518,-3.5059,-3.5169,-3.4417,-3.4266,0.0,0.0,0.0,0.0,0.0,0.0,0.0,0.0,0.0,-3.8707,-3.8496,-3.8733,-3.9343,-3.9276,-3.9586,-4.0184,-4.0184,-3.984,-3.9224,-3.9224,-3.8826,-3.8209,-3.8209,-3.8272,-3.8399,-3.8399,-3.8512,-3.8817,-3.9606,-4.0414,-4.1224,-4.2012,-4.2787,0.0,0.0,0.0,-4.2257,-4.1697,-4.1163,-4.07,-4.0337,-4.0225,-4.0012,-3.9317,-3.9137,-3.8791,-3.7652,-3.7031,-3.6478,-3.5791,-3.5639,-3.5609,-3.5519,-3.5504,-3.5504,-3.5504,-3.5504,-3.5504,-3.5522,-3.5537,-3.5537,-3.5554,-3.5587,-3.5636,-3.5752,-3.5958,-3.6226,-3.6538,-3.6846,-3.7207,-3.7637,-3.7985,-3.8371,-3.8805,-3.8942,-3.9121,-3.9325,-3.9458,-3.959,-3.9729,-3.9969,-4.0096,-4.0096,-4.0096,-4.0096,-4.0096,-4.0096,-4.0096,-4.0163,-4.0412,-4.0645,-4.0873,-4.1169,-4.1542,-4.1892,-4.2103,-4.2371,-4.2688,0.0,0.0,0.0,0.0,0.0,0.0,0.0,0.0,0.0,0.0,0.0,-3.7364,-3.7015,-3.5775,-3.5004,-3.5004,-3.4266,0.0,0.0,0.0,0.0,0.0,0.0,0.0,0.0,0.0,0.0,-3.8707,-3.8937,-3.9427,-4.0108,-4.0474,-4.0528,-4.0329,-4.0402,-4.0257,-3.9932,-3.9569,-3.9205,-3.8862,-3.8862,-3.8929,-3.9082,-3.9569,-3.9833,-4.0001,-4.0435,-4.0799,-4.115,-4.1499,-4.1831,-4.2075,-4.1866,0.0,0.0,0.0,-4.0819,-4.0429,-4.0226,-4.0068,-3.9873,-3.9557,-3.898,-3.8319,-3.7732,-3.6946,-3.6177,-3.5714,-3.5554,-3.5504,-3.5504,-3.5504,-3.5504,-3.5504,-3.5504,-3.5504,-3.5504,-3.5504,-3.5504,-3.5504,-3.5504,-3.5522,-3.5572,-3.5668,-3.5797,-3.6022,-3.6258,-3.66,-3.7058,-3.746,-3.7956,-3.8511,-3.8761,-3.9013,-3.9299,-3.9432,-3.9606,-3.9807,-4.0011,-4.0096,-4.0096,-4.0096,-4.0096,-4.0096,-4.0096,-4.0096,-4.0096,-4.0313,-4.0468,-4.0645,-4.0853,-4.1134,-4.148,-4.1635,-4.1959,-4.2351,0.0,0.0,0.0,0.0,0.0,0.0,0.0,0.0,0.0,0.0,0.0,-3.7731,-3.7529,0.0,0.0,0.0,-3.4454,0.0,0.0,0.0,0.0,0.0,0.0,0.0,0.0,0.0,-3.8707,-3.8707,-3.9102,-3.9738,-4.0581,-4.1016,-4.1047,-4.0753,-4.0885,-4.0851,-4.0617,-4.0113,-3.9787,-3.9607,-3.9642,-3.9694,-3.9835,-4.0503,-4.0842,-4.0906,-4.1009,-4.1189,-4.1389,-4.1389,-4.1389,-4.139,-4.1204,-4.0885,0.0,0.0,0.0,-4.0172,-4.019,-4.0011,-3.9795,-3.9765,-3.893,-3.8043,-3.7912,-3.7018,-3.61,-3.5816,-3.5653,-3.5554,-3.5504,-3.5504,-3.5504,-3.5504,-3.5504,-3.5504,-3.5504,-3.5504,-3.5504,-3.5504,-3.5504,-3.5504,-3.5504,-3.5504,-3.5554,-3.5638,-3.5799,-3.6116,-3.6554,-3.7058,-3.7623,-3.8214,-3.8595,-3.8942,-3.9299,-3.9458,-3.9642,-3.9833,-4.0037,-4.0096,-4.0096,-4.0096,-4.0096,-4.0096,-4.0096,-4.0096,-4.0113,-4.0213,-4.0337,-4.0461,-4.0551,-4.0799,-4.1094,-4.1277,-4.1618,-4.2044,0.0,0.0,0.0,0.0,0.0,0.0,0.0,0.0,0.0,0.0,0.0,-3.834,-3.7584,-3.7419,-3.6725,-3.5151,-3.4968,0.0,0.0,0.0,0.0,0.0,0.0,0.0,0.0,-3.8707,-3.8707,-3.8707,-3.8551,-3.9158,-4.051,-4.0346,-4.0948,-4.2203,-4.2404,-4.207,-4.1351,-4.1297,-4.0847,-4.0183,-4.0293,-4.0402,-4.0456,-4.0652,-4.079,-4.0906,-4.0906,-4.1469,-4.2249,-4.2249,-4.2249,-4.2233,-4.2149,-4.1516,-4.0704,0.0,0.0,0.0,-4.0384,-4.0271,-4.0011,-3.9763,-3.9121,-3.8444,-3.802,-3.727,-3.6523,-3.6068,-3.5831,-3.5638,-3.5522,-3.5504,-3.5504,-3.5504,-3.5504,-3.5504,-3.5504,-3.5504,-3.5504,-3.5504,-3.5504,-3.5504,-3.5504,-3.5504,-3.5504,-3.5504,-3.5653,-3.5879,-3.6211,-3.6846,-3.7506,-3.8071,-3.8567,-3.8942,-3.9299,-3.9547,-3.9703,-3.9703,-3.9986,-4.0096,-4.0096,-4.0096,-4.0096,-4.0096,-4.0096,-4.0096,-4.0096,-4.0113,-4.0188,-4.0305,-4.033,-4.0502,-4.0769,-4.1094,-4.144,-4.1796,0.0,0.0,0.0,0.0,0.0,0.0,0.0,0.0,0.0,0.0,0.0,0.0,0.0,-3.7823,-3.7254,-3.6652,-3.6138,0.0,0.0,0.0,0.0,0.0,0.0,0.0,0.0,-3.8707,-3.8707,-3.8707,-3.901,-3.9358,-3.975,-4.058,-4.1163,-4.1556,-4.2215,-4.2327,-4.1944,-4.1484,-4.1109,-4.0858,-4.0991,-4.1122,-4.1288,-4.1978,-4.2268,-4.2249,-4.1861,-4.1948,-4.2165,-4.1684,-4.1534,-4.1444,-4.0895,-4.0465,-4.0043,-3.9481,-3.9447,-3.9678,-3.9922,-3.9799,-3.9627,-3.9792,-3.9382,-3.8898,-3.8567,-3.7799,-3.7074,-3.6815,-3.6352,-3.6022,-3.5973,-3.5701,-3.5504,-3.5504,-3.5504,-3.5504,-3.5504,-3.5504,-3.5504,-3.5504,-3.5392,-3.5326,-3.5326,-3.518,-3.518,-3.5294,-3.5344,-3.5589,-3.6053,-3.6585,-3.7164,-3.7831,-3.8387,-3.886,-3.9299,-3.9573,-3.9703,-3.9703,-3.9969,-4.0096,-4.0096,-4.0096,-4.0096,-4.0096,-4.0096,-4.0096,-4.0096,-4.0096,-4.0138,-4.0163,-4.0163,-4.0288,-4.0478,-4.0776,-4.114,-4.1574,0.0,0.0,0.0,-4.1626,0.0,-4.0503,-4.006,-3.9498,-3.8994,-3.8708,0.0,0.0,0.0,0.0,-3.8098,-3.7547,-3.6758,-3.6303,-3.6303,0.0,0.0,0.0,0.0,0.0,0.0,-3.8707,-3.8707,-3.8707,-3.9029,-3.9248,-3.9385,-4.0257,-4.0699,-4.0792,-4.1596,-4.1996,-4.2068,-4.1596,-4.1385,-4.1388,-4.1624,-4.1799,-4.2025,-4.2738,-4.3049,-4.305,-4.2649,-4.2555,-4.2516,-4.2035,-4.1702,-4.1407,-4.0873,-4.0294,-3.9692,-3.9139,-3.9093,-3.9247,-3.9442,-3.9457,-3.9477,-3.9639,-3.9519,-3.9302,-3.9061,-3.8383,-3.7725,-3.7476,-3.6997,-3.6569,-3.6399,-3.61,-3.5829,-3.5604,-3.5522,-3.5504,-3.5504,-3.5504,-3.5504,-3.5504,-3.5326,-3.518,-3.518,-3.5001,-3.4968,-3.518,-3.518,-3.5442,-3.5973,-3.6445,-3.7104,-3.7976,-3.8472,-3.8914,-3.9299,-3.9537,-3.9668,-3.9703,-3.9935,-4.0062,-4.0096,-4.0096,-4.0096,-4.0096,-4.0096,-4.0096,-4.0096,-4.0096,-4.0096,-4.0096,-4.0096,-4.0163,-4.0263,-4.0576,-4.0971,-4.1413,-4.1186,-4.1186,-4.1232,-4.138,-4.0757,-4.0096,-3.9676,-3.9116,-3.8865,-3.9193,0.0,0.0,0.0,0.0,0.0,-3.7731,-3.6868,-3.6413,-3.6413,-3.6376,0.0,0.0,0.0,0.0,-3.8689,-3.8707,-3.8707,-3.8707,-3.8496,-3.8769,-3.9471,-3.9281,-3.9517,-4.0083,-4.0637,-4.1141,-4.1617,-4.1744,-4.1744,-4.1731,-4.2145,-4.2409,-4.2629,-4.2806,-4.2975,-4.3086,-4.3104,-4.3233,-4.3394,-4.3394,-4.2933,-4.2341,-4.2304,-4.1174,-3.9761,-3.9439,-3.9103,-3.886,0.0,0.0,0.0,-3.9262,-3.9412,-3.9627,-3.9428,-3.899,-3.8483,-3.803,-3.7682,-3.7298,-3.6831,-3.6739,-3.6492,-3.5847,-3.5636,-3.5537,-3.5504,-3.5504,-3.5504,-3.5504,-3.5326,-3.518,-3.518,-3.5001,-3.4968,-3.518,-3.518,-3.5442,-3.5973,-3.6476,-3.7298,-3.8539,-3.886,-3.9094,-3.9299,-3.9432,-3.9563,-3.9703,-3.9833,-3.9961,-4.0096,-4.0096,-4.0096,-4.0096,-4.0096,-4.0096,-4.0096,-4.0096,-4.0096,-4.0096,-4.0096,-4.0096,-4.0163,-4.0551,-4.0918,-4.13,-4.0989,-4.0989,-4.1035,-4.1146,-4.0995,-4.0669,-4.0131,-4.0067,-3.9977,0.0,0.0,0.0,-4.0479,-4.0665,-4.0598,-4.0139,-3.9368,-3.8891,-3.8891,-3.8358,-3.8138,-3.8358,-3.8377,-3.8469,-3.8707,-3.8707,-3.8707,-3.8707,-3.8496,-3.8478,-3.8636,-3.9028,-3.9193,-3.9261,-3.9838,-3.9999,-3.9886,-4.1025,-4.156,-4.1675,-4.2019,-4.2331,-4.2629,-4.2806,-4.2919,-4.2975,-4.3067,-4.3141,-4.3215,-4.3359,-4.3247,-4.2989,-4.2471,-4.1557,-4.0633,-4.0427,-3.9767,-3.9157,-3.9449,0.0,0.0,0.0,0.0,0.0,-3.8992,-3.899,-3.899,-3.8882,-3.8439,-3.8014,-3.787,-3.749,-3.7148,-3.6952,-3.6414,-3.5926,-3.5671,-3.5638,-3.5621,-3.5504,-3.5326,-3.518,-3.518,-3.5001,-3.4968,-3.518,-3.518,-3.5442,-3.5973,-3.6754,-3.7594,-3.842,-3.8738,-3.9013,-3.9299,-3.9432,-3.9528,-3.9563,-3.9798,-3.9926,-3.9961,-4.0062,-4.0096,-4.0096,-4.0096,-4.0096,-4.0096,-4.0096,-4.0096,-4.0096,-4.0096,-4.0096,-4.0138,-4.0436,-4.083,-4.126,-4.0912,-4.0912,-4.0935,-4.1,-4.1023,-4.0793,-4.016,-4.0281,-4.0377,0.0,0.0,0.0,-4.1248,-4.1127,-4.1044,-4.1095,-4.0671,-4.0267,-3.9918,-3.946,-3.9056,-3.8707,-3.8707,-3.8707,-3.8707,-3.8707,-3.8707,-3.8707,-3.8496,-3.8385,-3.8338,-3.8645,-3.8671,-3.851,-3.9075,-3.9062,-3.8695,-4.0223,-4.0909,-4.1038,-4.1668,-4.2148,-4.251,-4.2747,-4.2861,-4.288,-4.2975,-4.3049,-4.3123,-4.3233,-4.3323,-4.3265,-4.2527,-4.1941,-4.1469,-4.1019,-4.0393,-3.9859,-3.9888,-3.9536,-3.9164,-3.9168,0.0,0.0,-3.9544,-3.9539,-3.9523,-3.9435,-3.9088,-3.8761,-3.8623,-3.8258,-3.7927,-3.7783,-3.7342,-3.6769,-3.6101,-3.5926,-3.5767,-3.5589,-3.5344,-3.518,-3.518,-3.5001,-3.4968,-3.518,-3.518,-3.5539,-3.6258,-3.7074,-3.7815,-3.846,-3.875,-3.9013,-3.9299,-3.9379,-3.9432,-3.9501,-3.972,-3.9849,-3.9901,-4.0037,-4.0096,-4.0096,-4.0096,-4.0096,-4.0096,-4.0096,-4.0096,-4.0096,-4.0096,-4.0096,-4.0121,-4.0395,-4.0806,-4.1277,0.0,-4.0912,-4.0912,-4.0912,-4.0912,-4.0694,-4.0095,-4.0177,-4.0381,0.0,-4.1093,-4.1569,-4.2032,-4.1534,-4.1216,-4.1335,-4.1279,-4.0946,-4.0212,-3.9992,-3.957,-3.8854,-3.8762,-3.8707,-3.8707,-3.8707,-3.8707,-3.8707,-3.8496,-3.8399,-3.8399,-3.8239,-3.8072,-3.7917,-3.8382,-3.8288,-3.7912,-3.9351,-3.9951,-4.0065,-4.1222,-4.1938,-4.2308,-4.2629,-4.2764,-4.2803,-4.2862,-4.2975,-4.3086,-4.3104,-4.3251,-4.3284,-4.2638,-4.2433,-4.2269,-4.1505,-4.1129,-4.0864,-4.0492,-4.0605,-4.0732,-4.0299,-4.0461,0.0,-4.0501,-4.0302,-4.0121,-3.9858,-3.9694,-3.9484,-3.9185,-3.8996,-3.8805,-3.8467,-3.827,-3.7828,-3.6754,-3.632,-3.6053,-3.5816,-3.5524,-3.5311,-3.5246,-3.51,-3.5067,-3.5213,-3.5279,-3.5718,-3.6662,-3.7359,-3.8004,-3.8583,-3.886,-3.9094,-3.9299,-3.9299,-3.9352,-3.9475,-3.9642,-3.9755,-3.9901,-4.0037,-4.0096,-4.0096,-4.0096,-4.0096,-4.0096,-4.0096,-4.0096,-4.0096,-4.0096,-4.0096,-4.0121,-4.0395,-4.0806,-4.1277,-4.0912,-4.0912,-4.0912,-4.0912,-4.0912,-4.086,-4.0728,-4.0828,-4.0966,-4.1051,-4.163,-4.2145,-4.2515,-4.2687,-4.2812,-4.2936,-4.24,-4.1992,-4.1846,-4.0616,-3.9827,-3.9662,-3.9056,-3.8707,-3.8707,-3.8707,-3.8707,-3.8707,-3.8496,-3.8399,-3.8399,-3.8136,-3.7985,-3.7899,-3.7846,-3.7605,-3.7328,-3.8597,-3.9107,-3.9202,-4.0933,-4.1827,-4.2166,-4.2391,-4.2609,-4.2803,-4.2822,-4.2861,-4.2957,-4.3123,-4.3287,-4.3375,-4.3297,-4.3276,-4.3222,-4.3058,-4.2512,-4.1896,-4.1703,-4.1017,-4.0285,-4.0018,-4.0217,0.0,-4.0224,-4.0417,-4.0628,-4.0534,-4.0313,-4.0087,-3.9918,-3.9687,-3.9468,-3.9282,-3.8914,-3.8343,-3.7358,-3.7074,-3.68,-3.6383,-3.6148,-3.5894,-3.5638,-3.5559,-3.5524,-3.5439,-3.5782,-3.6211,-3.6693,-3.7447,-3.8087,-3.8567,-3.886,-3.9094,-3.9299,-3.9299,-3.9299,-3.9325,-3.9573,-3.9703,-3.9755,-3.9986,-4.0096,-4.0096,-4.0096,-4.0096,-4.0096,-4.0096,-4.0096,-4.0096,-4.0096,-4.0096,-4.0121,-4.0395,-4.0806,-4.1277,-4.0912,-4.0912,-4.0912,-4.0912,-4.0912,-4.0912,-4.0912,-4.1006,-4.1117,-4.1169,-4.1635,-4.211,-4.2418,-4.275,-4.3031,-4.3215,-4.2939,-4.2607,-4.2273,-4.1504,-4.0879,-4.0506,-4.012,-3.9884,-3.9884,-3.9884,-3.9884,-3.9884,-3.9705,-3.9385,-3.9002,-3.9116,-3.8941,-3.851,-3.8669,-3.8527,-3.8259,-3.9085,-3.9326,-3.9267,-4.0665,-4.1391,-4.1679,-4.1941,-4.221,-4.247,-4.257,-4.2707,-4.2899,-4.3105,-4.3251,-4.3322,-4.3463,-4.3515,-4.3515,-4.3515,-4.3187,-4.2842,-4.2737,-4.2214,-4.165,-4.1446,-4.1401,0.0,0.0,-4.1138,-4.1163,-4.1065,-4.0537,-4.0168,-4.0407,-3.9874,-3.948,-3.9756,-3.9478,-3.9061,-3.8511,-3.7841,-3.7298,-3.6983,-3.6646,-3.6367,-3.6116,-3.5958,-3.5767,-3.5621,-3.5958,-3.6414,-3.6922,-3.7623,-3.8214,-3.8678,-3.8969,-3.9218,-3.9299,-3.9299,-3.9325,-3.9405,-3.9599,-3.9729,-3.9824,-4.0011,-4.0096,-4.0096,-4.0096,-4.0096,-4.0096,-4.0096,-4.0096,-4.0096,-4.0096,-4.0096,-4.0121,-4.0395,-4.0806,-4.1277,-4.0912,-4.0912,-4.0912,-4.0912,-4.0912,-4.0912,-4.0912,-4.0982,-4.107,-4.1111,-4.1588,-4.2057,-4.2302,-4.2774,-4.3161,-4.3389,-4.3504,-4.3287,-4.2594,-4.2446,-4.2077,-4.1337,-4.1187,-4.1095,-4.1095,-4.1095,-4.1095,-4.1095,-4.0911,-4.0479,-3.9824,-4.0185,-3.9986,-3.9319,-3.9685,-3.9618,-3.9298,-3.9747,-3.9767,-3.9534,-4.0343,-4.0866,-4.1146,-4.149,-4.177,-4.2061,-4.2292,-4.257,-4.2841,-4.3087,-4.3196,-4.3251,-4.3445,-4.3515,-4.3515,-4.3515,-4.3515,-4.3497,-4.3429,-4.334,-4.3196,-4.3031,-4.2768,-4.244,0.0,0.0,0.0,-4.1227,-4.0569,-4.0229,-4.066,-3.9978,-3.9515,-4.0135,-3.9995,-3.9755,-3.9642,-3.8678,-3.787,-3.7666,-3.7208,-3.6861,-3.6693,-3.632,-3.6037,-3.5847,-3.6164,-3.6631,-3.7238,-3.7857,-3.8399,-3.8832,-3.9148,-3.9299,-3.9299,-3.9325,-3.9379,-3.9501,-3.9668,-3.9798,-3.9901,-4.0037,-4.0096,-4.0096,-4.0096,-4.0096,-4.0096,-4.0096,-4.0096,-4.0096,-4.0096,-4.0096,-4.0121,-4.0395,-4.0806,-4.1277,-4.0912,-4.0912,-4.0912,-4.0912,-4.0912,-4.0912,-4.0912,-4.0912,-4.0959,-4.107,-4.1922,-4.2577,-4.2807,-4.3778,-4.4425,-4.4513,-4.4757,-4.4576,-4.3842,-4.336,-4.2776,-4.2095,-4.1447,-4.1095,-4.1095,-4.1095,-4.1095,-4.1095,-4.0911,-4.0754,-4.0663,-4.0366,-4.0164,-4.0074,-3.9761,-3.9476,-3.9224,-3.9591,-3.9576,-3.9361,-3.994,-4.0451,-4.089,-4.1146,-4.1463,-4.1796,-4.2251,-4.257,-4.2822,-4.3049,-4.316,-4.3251,-4.3445,-4.3515,-4.3515,-4.3515,-4.3515,-4.3497,-4.3497,-4.3428,-4.3358,-4.334,-4.3178,-4.2775,-4.1938,0.0,-4.1966,-4.0471,0.0,-4.0724,-4.0567,0.0,0.0,-4.0657,-4.0468,-4.0205,-4.0062,-3.9599,-3.9094,-3.8511,-3.8059,-3.7653,-3.7328,-3.6785,-3.6429,-3.6429,-3.6646,-3.7027,-3.7519,-3.8173,-3.8694,-3.8969,-3.9175,-3.9299,-3.9299,-3.9422,-3.9484,-3.9501,-3.9746,-3.9901,-3.9901,-4.0037,-4.0096,-4.0096,-4.0096,-4.0096,-4.0096,-4.0096,-4.0096,-4.0096,-4.0096,-4.0096,-4.0121,-4.0395,-4.0806,-4.1277,-4.0912,-4.0912,-4.0912,-4.0912,-4.0912,-4.0912,-4.0912,-4.1274,-4.155,-4.1598,-4.2423,-4.306,-4.3232,-4.3768,-4.419,-4.4285,-4.4524,-4.4614,-4.4422,-4.3886,-4.3557,-4.3488,-4.2809,-4.2455,-4.2488,-4.2488,-4.2454,-4.2421,-4.2264,0.0,0.0,0.0,-4.1426,-4.0918,-4.0933,-4.0775,-4.0473,-4.0343,-4.012,-3.9895,-4.0027,-4.0221,-4.0427,-4.0693,-4.1053,-4.1468,-4.1941,-4.2231,-4.2452,-4.2861,-4.2994,-4.3068,-4.334,-4.3446,-4.3464,-4.3497,-4.3515,-4.3515,-4.3515,-4.348,-4.3464,-4.3464,-4.3011,-4.2595,-4.2668,-4.2395,-4.2084,-4.1866,0.0,0.0,0.0,0.0,0.0,0.0,-4.0907,-4.0638,-4.0461,-4.0163,-3.9729,-3.9094,-3.8667,-3.8185,-3.7578,-3.7208,-3.6983,-3.6892,-3.7088,-3.7385,-3.787,-3.8343,-3.8722,-3.8996,-3.9218,-3.9299,-3.9299,-3.9432,-3.9537,-3.9616,-3.9824,-3.9952,-4.0011,-4.007,-4.0096,-4.0096,-4.0096,-4.0096,-4.0096,-4.0096,-4.0096,-4.0096,-4.0096,-4.0096,-4.0121,-4.0395,-4.0758,-4.1146,-4.0912,-4.0912,-4.0912,-4.0912,-4.0912,-4.0981,-4.117,-4.1671,-4.2085,-4.2309,-4.3099,-4.3665,-4.3763,-4.4324,-4.4714,-4.481,-4.5023,-4.5166,-4.5138,-4.4628,-4.4399,-4.4537,-4.3907,-4.3615,-4.3686,-4.3502,-4.3393,-4.334,-4.3233,-4.285,0.0,0.0,-4.2362,-4.1669,-4.1774,-4.1613,-4.1277,-4.0847,-4.0485,-4.0238,-4.0138,-4.0096,-4.0121,-4.0412,-4.0758,-4.1146,-4.1556,-4.1856,-4.2107,-4.2555,-4.2806,-4.2957,-4.3233,-4.3341,-4.3358,-4.3464,-4.3463,-4.348,-4.3497,-4.3515,-4.3515,-4.3515,-4.3005,-4.2642,-4.3026,-4.2701,-4.2394,-4.2522,-4.2123,0.0,0.0,0.0,-4.1126,-4.1586,0.0,-4.1146,-4.0942,-4.0655,-4.0246,-3.9599,-3.9202,-3.8706,-3.7985,-3.7828,-3.7682,-3.7551,-3.7594,-3.7857,-3.8286,-3.8567,-3.8832,-3.9077,-3.9202,-3.9325,-3.9352,-3.9484,-3.9616,-3.9755,-3.9884,-4.0011,-4.0096,-4.0096,-4.0096,-4.0096,-4.0096,-4.0096,-4.0096,-4.0096,-4.0096,-4.0096,-4.0096,-4.0096,-4.0121,-4.0362,-4.0686,-4.1071,-4.0912,-4.0912,-4.0912,-4.0912,-4.0912,-4.1153,-4.1861,-4.1999,-4.2292,-4.3051,-4.3919,-4.4462,-4.4462,-4.5918,-4.6917,-4.69,-4.7037,-4.6866,-4.6291,-4.5758,-4.5272,-4.4905,-4.4301,-4.4042,-4.4176,-4.3542,-4.3214,-4.3214,-4.3123,-4.3104,0.0,0.0,0.0,-4.2356,-4.1849,-4.1386,-4.1001,-4.0638,-4.0345,-4.0113,-4.0096,-4.0096,-4.0121,-4.0412,-4.0621,-4.0849,-4.1123,-4.1529,-4.1945,-4.2154,-4.2518,-4.2919,-4.3068,-4.316,-4.3233,-4.3358,-4.3412,-4.3429,-4.348,-4.3515,-4.3515,-4.3515,-4.3479,-4.3259,-4.2506,-4.291,-4.302,-4.148,-4.1707,-4.2151,-4.2029,-4.1814,-4.1829,-4.2293,-4.2092,0.0,0.0,-4.114,-4.0741,-4.0146,-3.972,-3.9299,-3.8805,-3.8639,-3.85,-3.8363,-3.8303,-3.8411,-3.8777,-3.8914,-3.9094,-3.9272,-3.9299,-3.9352,-3.9501,-3.9642,-3.9755,-3.9901,-4.0037,-4.0113,-4.0096,-4.0096,-4.0096,-4.0096,-4.0096,-4.0096,-4.0096,-4.0096,-4.0096,-4.0096,-4.0096,-4.0096,-4.0138,-4.0263,-4.059,-4.1047,-4.0793,-4.0769,-4.0793,-4.0871,-4.0912,-4.1153,-4.1895,-4.2879,-4.3621,-4.3897,-4.4966,-4.5688,-4.5688,-4.6546,-4.7137,-4.7137,-4.7258,-4.7103,-4.6604,-4.6073,-4.5623,-4.5325,-4.4675,-4.4222,-4.3998,-4.3766,-4.3445,-4.3013,-4.2975,-4.2937,0.0,0.0,0.0,-4.2187,-4.1784,-4.134,-4.0843,-4.0517,-4.0263,-4.0096,-4.0096,-4.0096,-4.0096,-4.0196,-4.032,-4.0493,-4.0724,-4.103,-4.1356,-4.1753,-4.2089,-4.2432,-4.2688,-4.288,-4.3031,-4.316,-4.3305,-4.3394,-4.3429,-4.3481,-4.3515,-4.3515,-4.3094,-4.2763,-4.302,-4.2892,-4.269,-4.269,-4.2893,-4.3025,-4.2938,-4.2795,-4.2704,-4.2733,-4.2575,-4.2318,0.0,-4.1552,-4.11,-4.0628,-4.0096,-3.9642,-3.9299,-3.9202,-3.9121,-3.8925,-3.8909,-3.9007,-3.9255,-3.9202,-3.9272,-3.9448,-3.9432,-3.9432,-3.9501,-3.972,-3.9849,-3.9901,-4.0037,-4.0096,-4.0096,-4.0096,-4.0096,-4.0096,-4.0096,-4.0096,-4.0096,-4.0096,-4.0096,-4.0096,-4.0096,-4.0096,-4.0113,-4.0238,-4.051,-4.0918,-4.0648,-4.083,-4.0981,-4.0851,-4.1071,-4.1654,-4.2672,-4.3622,-4.4423,-4.4931,-4.5726,-4.6319,-4.6576,-4.7238,-4.7626,-4.7626,-4.7712,-4.7648,-4.74,-4.6559,-4.6011,-4.5925,-4.5076,-4.4529,-4.4374,-4.3903,-4.3488,-4.3162,-4.2854,-4.2709,0.0,0.0,0.0,0.0,-4.1542,-4.1117,-4.0693,-4.0412,-4.0213,-4.0096,-4.0096,-4.0096,-4.0096,-4.0096,-4.0163,-4.0238,-4.0427,-4.0645,-4.0913,-4.1311,-4.1683,-4.2002,-4.2331,-4.2571,-4.2749,-4.2956,-4.3123,-4.3251,-4.3305,-4.3358,-4.3392,-4.3445,-4.306,-4.2839,-4.3369,-4.3094,-4.2873,-4.3404,-4.3515,-4.3497,-4.3446,-4.3358,-4.3269,-4.3105,-4.2957,-4.2769,0.0,-4.1987,-4.1556,-4.1225,-4.0556,-4.0011,-3.9746,-3.9668,-3.9573,-3.9382,-3.9382,-3.9435,-3.9563,-3.9484,-3.9484,-3.9563,-3.9563,-3.959,-3.9642,-3.9824,-3.991,-3.9961,-3.9792,-3.9723,-3.9706,-3.9453,-3.9469,-3.9723,-3.9723,-3.9859,-4.0096,-4.0096,-4.0096,-4.0096,-4.0096,-4.0096,-4.0096,-4.0188,-4.0485,-4.0924,-4.0588,-4.1169,-4.1484,-4.094,-4.1533,-4.2595,-4.4061,-4.4216,-4.4644,-4.6059,-4.6178,-4.6419,-4.7102,-4.7921,-4.8446,-4.8446,-4.8446,-4.8487,-4.8581,-4.7191,-4.6443,-4.6661,-4.5507,-4.4918,-4.517,-4.3877,-4.3337,-4.3552,-4.2747,-4.2371,0.0,0.0,0.0,0.0,-4.1163,-4.0789,-4.0485,-4.0337,-4.0213,-4.0096,-4.0096,-4.0096,-4.0096,-4.0096,-4.0096,-4.0138,-4.0238,-4.0419,-4.0628,-4.0884,-4.1283,-4.1709,-4.1959,-4.2207,-4.2434,-4.2749,-4.2845,-4.2865,-4.3069,-4.3105,-4.3123,-4.3248,-4.3266,-4.3284,-4.3407,-4.3424,-4.3442,-4.3479,-4.3497,-4.3497,-4.3479,-4.3497,-4.348,-4.3411,-4.3305,-4.3105,-4.2769,-4.2438,-4.2175,-4.1945,-4.1123,-4.0444,-4.0146,-3.9986,-3.9858,-3.9729,-3.9729,-3.9729,-3.9729,-3.9703,-3.9703,-3.9703,-3.9703,-3.9781,-3.9901,-3.9901,-3.9961,-4.0096,-3.9368,-3.8988,-3.8971,-3.8244,-3.8311,-3.8988,-3.8988,-3.9436,-4.0096,-4.0096,-4.0096,-4.0096,-4.0096,-4.0096,-4.0096,-4.0121,-4.0476,-4.1094,-4.2005,-4.2133,-4.2414,-4.2858,-4.321,-4.3554,-4.3948,-4.4453,-4.4905,-4.5272,-4.6158,-4.6839,-4.7043,-4.8116,-4.8853,-4.8853,-4.8853,-4.8659,-4.8264,-4.7328,-4.6686,-4.6426,-4.5543,-4.4949,-4.4612,-4.3842,-4.3261,-4.293,-4.2206,-4.1881,-4.1881,0.0,0.0,0.0,-4.0843,-4.0573,-4.0337,-4.0213,-4.0121,-4.0096,-4.0096,-4.0096,-4.0096,-4.0096,-4.0096,-4.0096,-4.0138,-4.0263,-4.0395,-4.0566,-4.0795,-4.1082,-4.1351,-4.164,-4.1941,-4.2231,-4.2062,-4.1825,-4.2031,-4.1724,-4.1358,-4.1462,-4.1461,-4.1625,-4.2227,-4.2391,-4.2555,-4.314,-4.3286,-4.3304,-4.3411,-4.3429,-4.3446,-4.3463,-4.3411,-4.3269,-4.3105,-4.2863,-4.2614,-4.2297,-4.1735,-4.1151,-4.0531,-4.0296,-4.0138,-4.0011,-4.0011,-4.0011,-4.0011,-3.991,-3.9849,-3.9849,-3.9849,-3.9875,-3.9901,-3.9986,-4.0062,-4.0096,-3.9368,-3.8988,-3.8971,-3.8244,-3.8311,-3.8988,-3.8988,-3.9436,-4.0096,-4.0096,-4.0096,-4.0096,-4.0096,-4.0096,-4.0121,-4.032,-4.0645,-4.1071,-4.2833,-4.3444,-4.4139,-4.493,-4.5122,-4.4995,-4.4465,-4.4695,-4.5032,-4.5356,-4.6289,-4.7051,-4.7361,-4.8338,-4.9001,-4.9001,-4.9001,-4.8863,-4.8531,-4.7496,-4.6787,-4.6533,-4.5559,-4.4908,-4.4673,-4.4043,-4.3457,-4.2957,-4.2224,-4.171,-4.1378,0.0,0.0,0.0,-4.0549,-4.037,-4.0213,-4.0121,-4.0096,-4.0096,-4.0096,-4.0096,0.0,-4.0096,-4.0096,-4.0096,-4.0096,-4.0163,-4.0238,-4.0362,-4.0541,-4.07,-4.096,-4.1237,-4.1481,-4.1446,-4.1289,-4.1119,-4.1029,-4.0726,-4.0474,-4.0633,-4.0668,-4.0794,-4.1355,-4.1481,-4.1609,-4.2047,-4.243,-4.2704,-4.2757,-4.312,-4.3411,-4.3497,-4.3446,-4.3358,-4.3305,-4.3105,-4.2899,-4.2634,-4.2234,-4.1731,-4.1151,-4.0669,-4.0337,-4.0188,-4.0121,-4.0096,-4.0096,-4.0037,-3.9986,-3.9986,-3.9986,-3.9986,-3.9986,-4.0062,-4.0096,-4.0096,-3.9022,-3.8514,-3.8481,-3.7753,-3.7821,-3.8531,-3.8853,-3.9436,-4.0096,-4.0096,-4.0096,-4.0096,-4.0096,-4.0096,-4.0138,-4.0337,-4.0638,-4.1018,-4.3724,-4.4925,-4.6058,-4.6684,-4.6786,-4.6433,-4.5408,-4.5148,-4.5258,-4.5818,-4.6501,-4.7141,-4.7716,-4.8511,-4.9001,-4.9001,-4.9001,-4.8968,-4.8866,-4.7564,-4.6752,-4.665,-4.5456,-4.4831,-4.4968,-4.428,-4.3709,-4.3205,-4.241,-4.1657,-4.0931,0.0,0.0,-4.0485,-4.0337,-4.0213,-4.0096,-4.0096,-4.0096,-4.0096,-4.0096,-4.0096,-4.0096,-4.0096,-4.0096,-4.0096,-4.0096,-4.0096,-4.0138,-4.0238,-4.0362,-4.0468,-4.0676,-4.0913,-4.1029,-4.0617,-4.051,-4.0465,-3.9985,-3.9796,-3.98,-4.0077,-4.013,-4.022,-4.0521,-4.0574,-4.061,-4.0701,-4.1302,-4.1794,-4.1794,-4.2575,-4.3265,-4.3444,-4.3411,-4.3359,-4.3359,-4.3196,-4.3012,-4.2881,-4.2532,0.0,-4.1753,-4.103,-4.051,-4.0337,-4.0213,-4.0138,-4.0096,-4.0096,-4.0096,-4.0096,-4.0096,-4.0096,-4.0096,-4.0096,-4.0096,-4.0079,-3.87,-3.8041,-3.8024,-3.7263,-3.7347,-3.8091,-3.8717,-3.9436,-4.0096,-4.0096,-4.0096,-4.0096,-4.0096,-4.0096,-4.0096,-4.0238,-4.051,-4.0918,-4.6177,-4.6413,-4.665,-4.6769,-4.6786,-4.673,-4.6518,-4.6455,-4.6285,-4.5799,-4.6887,-4.753,-4.7039,-4.8189,-4.9001,-4.9001,-4.9001,-4.8748,-4.8125,-4.7276,-4.6532,-4.5923,-4.5072,-4.4654,-4.4682,-4.4011,-4.3326,-4.2645,-4.1997,-4.1319,-4.059,-4.0461,-4.0362,-4.033,-4.0188,-4.0138,-4.0096,-4.0096,-4.0096,-4.0096,-4.0096,-4.0096,-4.0096,-4.0096,-4.0096,-4.0096,-4.0096,-4.0096,-4.0096,-4.0138,-4.0163,-4.0213,-4.0337,-4.051,-4.0532,-4.0014,-3.9564,-3.9136,-3.8735,-3.822,-3.7838,-3.8133,-3.8205,-3.8402,-3.9193,-3.9391,-3.959,-4.0239,-4.0528,-4.0691,-4.0745,-4.1576,-4.2466,-4.3141,-4.3196,-4.316,-4.316,-4.2919,-4.2749,-4.265,-4.245,-4.2187,-4.1895,-4.13,-4.0789,-4.0485,-4.0337,-4.0213,-4.0113,-4.0096,-4.0096,-4.0096,-4.0096,-4.0096,0.0,-4.0096,-4.0096,-4.0096,-3.9208,-3.8802,-3.8768,-3.8041,-3.8108,-3.8802,-3.8937,-3.9436,-4.0096,-4.0096,-4.0096,-4.0096,-4.0096,-4.0096,-4.0096,-4.0138,-4.0387,-4.0817,-4.7378,-4.7682,-4.7936,-4.7936,-4.7936,-4.7936,-4.7936,-4.7936,-4.753,-4.6413,-4.7225,-4.7753,-4.7411,-4.8359,-4.9001,-4.9001,-4.9001,-4.8697,-4.7939,-4.7208,-4.6464,-4.5737,-4.4976,-4.4615,-4.4615,-4.4281,-4.3749,-4.2976,-4.2292,-4.1597,-4.0849,-4.04,-4.0188,-4.0188,-4.0138,-4.0096,-4.0096,-4.0096,-4.0096,-4.0096,-4.0096,-4.0096,-4.0096,-4.0096,-4.0096,-4.0096,-4.0096,-4.0096,-4.0096,-4.0096,-4.0096,-4.0096,-4.0188,-4.0288,-4.0283,-3.9682,-3.9089,-3.8533,-3.8074,-3.7449,-3.6992,-3.7226,-3.7375,-3.7629,-3.8114,-3.8258,-3.842,-3.8814,-3.9282,-3.9806,-4.0383,-4.1234,-4.2014,-4.2486,-4.2814,-4.2975,-4.29,-4.2652,-4.2492,-4.245,-4.2246,-4.2061,-4.2019,-4.1653,-4.1232,-4.0789,-4.0541,-4.0337,-4.0213,-4.0138,-4.0096,-4.0096,-4.0096,-4.0096,-4.0096,0.0,-4.0096,-4.0096,-3.9368,-3.8988,-3.8988,-3.8633,-3.8667,-3.9005,-3.9394,-3.9774,-4.0096,-4.0096,-4.0096,-4.0096,-4.0096,-4.0096,-4.0096,-4.0096,-4.0313,-4.0655,-4.8359,-4.8714,-4.9001,-4.9001,-4.9001,-4.9001,-4.9001,-4.9001,-4.8528,-4.7208,-4.7682,-4.8058,-4.7906,-4.8578,-4.9001,-4.9001,-4.9001,-4.8629,-4.7733,-4.7124,-4.6397,-4.55,-4.4891,-4.4615,-4.4615,-4.4615,-4.4198,-4.3392,-4.2658,-4.1914,-4.1187,-4.0468,-4.0096,-4.0096,-4.0096,-4.0096,-4.0096,-4.0096,-4.0096,-4.0096,-4.0096,-4.0096,-4.0096,-4.0096,-4.0096,-4.0096,-4.0096,-4.0096,-4.0096,-4.0096,-4.0096,-4.0096,-4.0096,-4.0163,-4.011,-3.9435,-3.8924,-3.842,-3.7698,-3.7136,-3.6759,-3.6794,-3.6972,-3.7145,-3.7225,-3.7319,-3.7429,-3.7429,-3.8021,-3.8885,-3.9969,-4.0673,-4.127,-4.1796,-4.2267,-4.2587,-4.2616,-4.2371,-4.2184,-4.2163,-4.1934,-4.1849,-4.1977,-4.1845,-4.1565,-4.1163,-4.0782,-4.0493,-4.0337,-4.0188,-4.0096,-4.0096,-4.0096,-4.0096,-4.0096,0.0,-4.0096,-4.0096,-3.952,-3.9225,-3.9225,-3.9225,-3.9225,-3.9259,-3.9859,-4.0096,-4.0096,-4.0096,-4.0096,-4.0096,-4.0096,-4.0096,-4.0096,-4.0096,-4.0246,-4.051,-4.9763,-4.9407,-4.9001,-4.9001,-4.9001,-4.9001,-4.9001,-4.9001,-4.8714,-4.7889,-4.8443,-4.8646,-4.7956,-4.8578,-4.9001,-4.9001,-4.9001,-4.8409,-4.6989,-4.6836,-4.616,-4.4767,-4.4649,-4.4615,-4.4615,-4.4615,-4.4198,-4.3392,-4.2658,-4.1914,-4.1187,-4.0468,-4.0096,-4.0096,-4.0096,-4.0096,0.0,-4.0096,-4.0096,-4.0096,-4.0096,-4.0096,-4.0096,-4.0096,-4.0096,-4.0096,-4.0096,-4.0096,-4.0096,-4.0096,-4.0096,-4.0096,-4.0096,-4.0113,-3.9985,-3.9233,-3.9076,-3.884,-3.7513,-3.718,-3.7128,-3.6638,-3.6564,-3.6588,-3.6673,-3.6776,-3.6876,-3.6876,-3.7179,-3.7766,-3.885,-3.912,-3.9659,-4.1209,-4.1438,-4.1646,-4.2241,-4.2058,-4.1801,-4.1692,-4.1538,-4.1515,-4.1648,-4.1626,-4.1604,-4.156,-4.1053,-4.0676,-4.0493,-4.0238,-4.0096,-4.0096,-4.0096,-4.0096,-4.0096,-4.0096,-4.0096,-4.0096,-4.0028,-3.9994,-3.9994,-3.9994,-3.9994,-4.0011,-4.0079,-4.0096,-4.0096,-4.0096,-4.0096,-4.0096,-4.0096,-4.0096,-4.0096,-4.0096,-4.0188,-4.0337,-4.9949,-4.9509,-4.9001,-4.9001,-4.9001,-4.9001,-4.9001,-4.9001,-4.89,-4.8612,-4.8832,-4.89,-4.8595,-4.8832,-4.9001,-4.9001,-4.9001,-4.8376,-4.6887,-4.6786,-4.6126,-4.4666,-4.4615,-4.4615,-4.4615,-4.4615,-4.4445,-4.4113,-4.3335,-4.2591,-4.183,-4.1102,-4.051,-4.0096,-4.0096,-4.0096,-4.0096,-4.0096,-4.0096,-4.0096,-4.0096,-4.0096,-4.0096,-4.0096,-4.0096,-4.0096,-4.0096,-4.0096,-4.0096,-4.0096,-4.0096,-4.0096,-4.0096,-4.0096,-4.0045,-3.9757,-3.9376,-3.8967,-3.8381,-3.7665,-3.7012,-3.6794,-3.6535,-3.6335,-3.6339,-3.6426,-3.6492,-3.6492,-3.6713,-3.706,-3.7707,-3.8282,-3.9054,-4.0314,-4.0846,-4.1355,-4.1976,-4.1762,-4.1538,-4.1493,-4.1267,-4.1198,-4.1448,-4.1408,-4.1386,-4.1471,-4.1088,-4.0782,-4.0648,-4.0288,-4.0096,-4.0096,0.0,-4.0096,-4.0096,-4.0096,-4.0096,-4.0096,-4.0096,-4.0096,-4.0096,-4.0096,-4.0096,-4.0096,-4.0096,-4.0096,-4.0096,-4.0096,-4.0096,-4.0096,-4.0096,-4.0096,-4.0096,-4.0096,-4.0121,-4.0188,-4.9902,-4.9478,-4.9001,-4.9001,-4.9001,-4.9001,-4.9001,-4.9001,-4.9001,-4.9001,-4.9001,-4.9001,-4.9001,-4.9001,-4.9001,-4.9001,-4.9001,-4.8477,-4.7208,-4.6921,-4.6227,-4.4976,-4.4733,-4.4615,-4.4615,-4.4615,-4.4615,-4.4615,-4.3792,-4.3149,-4.2591,-4.1644,-4.0916,-4.0417,-4.0197,-4.0096,-4.0096,-4.0096,-4.0096,-4.0096,-4.0096,-4.0096,-4.0096,-4.0096,-4.0096,-4.0096,-4.0096,-4.0096,-4.0096,-4.0096,-4.0096,-4.0096,-4.0096,-4.0096,-4.0096,-4.0096,-3.974,-3.9276,-3.9056,-3.8282,-3.7396,-3.6995,-3.6621,-3.631,-3.6087,-3.6084,-3.6191,-3.6255,-3.6385,-3.6571,-3.6873,-3.7466,-3.8272,-3.9421,-4.0038,-4.0679,-4.1516,-4.1391,-4.1226,-4.1198,-4.0942,-4.0894,-4.1175,-4.1111,-4.1111,-4.1244,-4.0965,-4.0769,-4.0697,-4.0313,-4.0096,-4.0096,0.0,0.0,-4.0096,-4.0096,-4.0096,-4.0096,-4.0096,-4.0096,-4.0096,-4.0096,-4.0096,-4.0096,-4.0096,-4.0096,-4.0096,-4.0096,-4.0096,-4.0096,-4.0096,-4.0096,-4.0096,-4.0096,-4.0096,-4.0096,-4.9762,-4.9417,-4.9001,-4.9001,-4.9001,-4.9001,-4.9001,-4.9001,-4.9001,-4.9001,-4.9001,-4.9001,-4.9001,-4.9001,-4.9001,-4.9001,-4.9001,-4.8697,-4.7922,-4.7208,-4.6464,-4.572,-4.4976,-4.4615,-4.4615,-4.4615,-4.4615,-4.4615,-4.3792,-4.3392,-4.3341,-4.1897,-4.1204,-4.1153,-4.0434,-4.0096,-4.0096,-4.0096,-4.0096,-4.0096,-4.0096,-4.0096,-4.0096,-4.0096,-4.0096,-4.0096,-4.0096,-4.0096,-4.0096,-4.0096,-4.0096,-4.0096,-4.0096,-4.0096,-4.0096,-4.0096,-4.0096,-3.9943,-3.9191,-3.8988,-3.8616,-3.7168,-3.6795,-3.6592,-3.5791,-3.5711,-3.5883,-3.6161,-3.6187,-3.6268,-3.6482,-3.652,-3.7047,-3.8651,-3.8916,-3.9412,-4.0799,-4.089,-4.0772,-4.0721,-4.0583,-4.0558,-4.0697,-4.0697,-4.0769,-4.0912,-4.0655,-4.0558,-4.0697,-4.0313,-4.0096,-4.0096,-4.0096,0.0,-4.0096,-4.0096,-4.0096,-4.0096,-4.0096,-4.0096,-4.0096,-4.0096,-4.0096,-4.0096,-4.0096,-4.0096,-4.0096,-4.0096,-4.0096,-4.0096,-4.0096,-4.0096,-4.0096,-4.0096,-4.0096,-4.0096,-4.9308,-4.8921,-4.8483,-4.8658,-4.8784,-4.8863,-4.8863,-4.8956,-4.9001,-4.9001,-4.9001,-4.9001,-4.9001,-4.9001,-4.9001,-4.9001,-4.9001,-4.8697,-4.7939,-4.7699,-4.7005,-4.5754,-4.5483,-4.5111,-4.4615,-4.4615,-4.4615,-4.4615,-4.4333,-4.3944,-4.3375,-4.2405,-4.1677,-4.1187,-4.095,-4.0561,-4.0096,-4.0096,-4.0096,-4.0096,-4.0096,-4.0096,-4.0096,-4.0096,-4.0096,-4.0096,-4.0096,-4.0096,-4.0096,-4.0096,-4.0096,-4.0096,-4.0096,-4.0096,-4.0096,-4.0096,-4.0096,-4.0045,-3.9808,-3.9377,-3.8886,-3.8413,-3.7557,-3.6745,-3.6468,-3.6034,-3.5689,-3.5778,-3.5861,-3.5971,-3.6127,-3.6642,-3.7395,-3.8533,-3.9121,-3.979,-4.0786,-4.0823,-4.0728,-4.0697,-4.0502,-4.0429,-4.0558,-4.0461,-4.0461,-4.0607,-4.0461,-4.0412,-4.0558,-4.0288,-4.0096,0.0,-4.0096,0.0,-4.0096,-4.0096,-4.0096,-4.0096,-4.0096,-4.0096,-4.0096,-4.0096,-4.0096,-4.0096,-4.0096,-4.0096,-4.0096,-4.0096,-4.0096,-4.0096,-4.0096,-4.0096,-4.0096,-4.0096,-4.0096,-4.0096,-4.8315,-4.815,-4.7951,-4.8146,-4.8292,-4.8436,-4.8549,-4.8721,-4.8846,-4.8909,-4.897,-4.9001,-4.9001,-4.9001,-4.9001,-4.9001,-4.9001,-4.8798,-4.8359,-4.8041,-4.7483,-4.6583,-4.6007,-4.5483,-4.501,-4.475,0.0,-4.4615,-4.4615,-4.4333,-4.3842,-4.3064,-4.2472,-4.2016,-4.1457,-4.0933,-4.0476,-4.0231,-4.0096,-4.0096,-4.0096,-4.0096,-4.0096,-4.0096,-4.0096,-4.0096,-4.0096,-4.0096,-4.0096,-4.0096,-4.0096,-4.0096,-4.0096,-4.0096,-4.0096,-4.0096,-4.0096,-4.0096,-4.0096,-3.9774,-3.9368,-3.9056,-3.8319,-3.7489,-3.6931,-3.618,-3.56,-3.56,-3.5667,-3.5835,-3.6236,-3.6746,-3.7462,-3.8579,-3.9144,-3.9727,-4.0504,-4.0534,-4.0461,-4.0461,-4.0337,-4.0263,-4.032,-4.0288,-4.0263,-4.032,-4.0263,-4.0263,-4.0362,-4.0196,-4.0096,-4.0096,-4.0096,-4.0096,-4.0096,-4.0096,-4.0096,-4.0096,-4.0096,-4.0096,-4.0096,-4.0096,-4.0096,-4.0096,-4.0096,-4.0096,-4.0096,-4.0096,-4.0096,-4.0096,-4.0096,-4.0096,-4.0096,-4.0096,-4.0096,-4.0096,-4.6965,-4.7186,-4.7371,-4.7605,-4.7638,-4.7754,-4.8098,-4.8324,-4.8515,-4.8738,-4.8863,-4.897,-4.897,-4.897,-4.9001,-4.9001,-4.9001,-4.9001,-4.9001,-4.8376,-4.7939,-4.7889,-4.6599,-4.5805,-4.5703,-4.501,-4.4649,-4.4615,-4.4615,-4.4615,-4.4581,-4.3842,-4.3443,-4.3325,-4.1982,-4.1322,-4.1238,-4.0476,-4.018,-4.018,-4.013,-4.0096,-4.0096,-4.0096,-4.0096,-4.0096,-4.0096,-4.0096,-4.0096,-4.0096,-4.0096,-4.0096,-4.0096,-4.0096,-4.0096,-4.0096,-4.0096,-4.0096,-4.0096,-4.0096,-3.9943,-3.9242,-3.9039,-3.8599,-3.7151,-3.6214,-3.5667,-3.5616,-3.5633,-3.5904,-3.666,-3.688,-3.7405,-3.8768,-3.9039,-3.9334,-4.0011,-4.0096,-4.0096,-4.0096,-4.0096,-4.0096,-4.0096,-4.0096,-4.0096,-4.0096,-4.0096,-4.0096,-4.0096,0.0,-4.0096,-4.0096,-4.0096,-4.0096,-4.0096,-4.0096,-4.0096,-4.0096,-4.0096,-4.0096,-4.0096,-4.0096,-4.0096,-4.0096,-4.0096,-4.0096,-4.0096,-4.0096,-4.0096,-4.0096,-4.0096,-4.0096,-4.0096,-4.0096,-4.0096,-4.0096,-4.6198,-4.6304,-4.6426,-4.6791,-4.6947,-4.7152,-4.7538,-4.7754,-4.8,-4.8292,-4.8356,-4.85,-4.8801,-4.8849,-4.8894,-4.9001,-4.9001,-4.9001,-4.9001,-4.8849,-4.8494,-4.7906,-4.7551,-4.687,-4.572,-4.5534,-4.5162,-4.4615,-4.4615,-4.4615,-4.4615,-4.4429,-4.3995,-4.3375,-4.3047,-4.2574,-4.1982,-4.1255,-4.0933,-4.0882,-4.0333,-4.0096,-4.0096,-4.0096,-4.0096,-4.0096,-4.0096,-4.0096,-4.0096,-4.0096,-4.0096,-4.0096,-4.0096,-4.0096,-4.0096,-4.0096,-4.0096,-4.0096,-4.0096,-4.0096,-4.0062,-3.9893,-3.9436,-3.8599,-3.7151,-3.666,-3.6332,-3.5718,-3.6096,-3.6552,-3.6761,-3.7726,-3.8582,-3.8937,-3.9462,-3.991,-4.0079,-4.0096,-4.0096,-4.0096,-4.0096,-4.0096,-4.0096,-4.0096,-4.0096,-4.0096,-4.0096,-4.0096,-4.0096,-4.0096,-4.0096,-4.0096,-4.0096,-4.0096,-4.0096,-4.0096,-4.0096,-4.0096,-4.0096,-4.0096,-4.0096,-4.0096,-4.0096,-4.0096,-4.0096,-4.0096,-4.0096,-4.0096,-4.0096,-4.0096,-4.0096,-4.0096,-4.0096,-4.0096,-4.0096,-4.0096,-4.5562,-4.5635,-4.5744,-4.6032,-4.6159,-4.6356,-4.6809,-4.7066,-4.732,-4.7638,-4.7853,-4.8065,-4.8276,-4.8436,-4.8564,-4.8627,-4.8877,-4.9001,-4.9001,-4.9001,-4.8832,-4.8426,-4.8075,-4.7517,-4.6735,-4.6058,-4.5331,-4.4615,-4.4615,-4.4615,-4.4615,-4.4615,-4.4378,-4.3927,-4.3572,-4.32,-4.276,-4.2016,-4.1694,-4.166,-4.1255,-4.0908,-4.0595,-4.0595,-4.0375,-4.0096,-4.0096,-4.0096,-4.0096,-4.0096,-4.0096,-4.0096,-4.0096,-4.0096,-4.0096,-4.0096,-4.0096,-4.0096,-4.0096,-4.0096,-4.0096,-4.0096,-3.9554,-3.8785,-3.7997,-3.7533,-3.7178,-3.6732,-3.7009,-3.7398,-3.7743,-3.8447,-3.9106,-3.9453,-3.9842,-4.0096,-4.0096,-4.0096,-4.0096,-4.0096,-4.0096,-4.0096,-4.0096,-4.0096,-4.0096,-4.0096,-4.0096,-4.0096,-4.0096,-4.0096,-4.0096,-4.0096,-4.0096,-4.0096,-4.0096,-4.0096,-4.0096,-4.0096,-4.0096,-4.0096,-4.0096,-4.0096,-4.0096,-4.0096,-4.0096,-4.0096,-4.0096,-4.0096,-4.0096,-4.0096,-4.0096,-4.0096,-4.0096,-4.0096,-4.0096,-4.0096,-4.535,-4.5403,-4.5463,-4.5671,-4.5614,-4.572,-4.6247,-4.6401,-4.6547,-4.6896,-4.727,-4.7488,-4.7555,-4.7853,-4.8065,-4.8098,-4.8515,-4.8846,-4.897,-4.897,-4.897,-4.9001,-4.8409,-4.799,-4.7889,-4.6464,-4.5382,-4.4784,-4.4649,-4.4615,-4.4615,-4.4615,-4.4615,-4.4581,-4.3893,-4.3589,-4.3538,-4.2777,-4.2472,-4.2455,-4.2337,-4.1914,-4.1373,-4.1373,-4.0899,-4.0282,-4.0282,-4.0197,-4.0096,-4.0096,-4.0096,-4.0096,-4.0096,-4.0096,-4.0096,-4.0096,-4.0096,-4.0096,-4.0096,-4.0096,-4.0096,-4.0096,-3.9639,-3.9123,-3.9022,-3.8514,-3.8041,-3.7922,-3.799,-3.8261,-3.887,-3.9089,-3.9385,-3.9994,-4.0096,-4.0096,-4.0096,-4.0096,-4.0096,-4.0096,-4.0096,-4.0096,-4.0096,-4.0096,-4.0096,-4.0096,-4.0096,-4.0096,-4.0096,-4.0096,-4.0096,-4.0096,-4.0096,-4.0096,-4.0096,-4.0096,-4.0096,-4.0096,-4.0096,-4.0096,-4.0096,-4.0096,-4.0096,-4.0096,-4.0096,-4.0096,-4.0096,-4.0096,-4.0096,-4.0096,-4.0096,-4.0096,-4.0096,-4.0096,-4.0096,-4.0096,-4.6251,-4.6359,-4.6453,-4.6633,-4.6229,-4.5993,-4.6406,-4.6013,-4.578,-4.6143,-4.6391,-4.6636,-4.6896,-4.7152,-4.7321,-4.7505,-4.7754,-4.8179,-4.8801,-4.8832,-4.8894,-4.9001,-4.89,-4.8545,-4.7906,-4.6464,-4.5652,-4.5534,-4.4919,-4.4615,-4.4615,-4.4615,-4.4615,-4.4598,-4.4479,-4.4401,-4.435,-4.3572,-4.325,-4.3156,-4.254,-4.2219,-4.2117,-4.2117,-4.166,-4.1035,-4.1035,-4.0629,-4.0096,-4.0096,-4.0096,-4.0096,-4.0096,-4.0096,-4.0096,-4.0096,-4.0096,-4.0096,-4.0096,-4.0096,-4.0096,-4.0096,-4.0011,-3.9774,-3.914,-3.8903,-3.865,-3.8041,-3.8396,-3.8853,-3.8971,-3.952,-3.9977,-4.0079,-4.0096,-4.0096,-4.0096,0.0,-4.0096,-4.0096,-4.0096,-4.0096,-4.0096,-4.0096,-4.0096,-4.0096,-4.0096,-4.0096,-4.0096,-4.0096,-4.0096,-4.0096,-4.0096,-4.0096,-4.0096,-4.0096,-4.0096,-4.0096,-4.0096,-4.0096,-4.0096,-4.0096,-4.0096,-4.0096,-4.0096,-4.0096,-4.0096,-4.0096,-4.0096,-4.0096,-4.0096,-4.0096,-4.0096,-4.0096,-4.0096,-4.0096,-4.6542,-4.6603,-4.6628,-4.6707,-4.619,-4.5858,-4.6111,-4.5609,-4.5284,-4.5541,-4.5744,-4.5945,-4.6072,-4.634,-4.655,-4.6636,-4.6929,-4.727,-4.7704,-4.8195,-4.85,-4.8564,-4.8784,-4.8588,-4.7906,-4.6853,-4.6109,-4.5703,-4.4942,-4.4615,-4.4615,-4.4615,-4.4615,-4.4615,-4.4615,-4.4615,-4.4581,-4.4198,-4.4045,-4.4012,-4.3673,-4.3267,-4.2895,-4.2895,-4.2439,-4.1728,-4.1339,-4.0984,-4.0629,-4.0231,-4.0096,-4.0096,-4.0096,-4.0096,-4.0096,-4.0096,-4.0096,-4.0096,-4.0096,-4.0096,-4.0096,-4.0096,-4.0096,-4.0011,-3.9673,-3.9605,-3.9503,-3.9165,-3.9368,-3.9605,-3.9605,-3.9876,-4.0096,-4.0096,-4.0096,-4.0096,-4.0096,-4.0096,-4.0096,-4.0096,-4.0096,-4.0096,-4.0096,-4.0096,-4.0096,-4.0096,-4.0096,-4.0096,-4.0096,-4.0096,-4.0096,-4.0096,-4.0096,-4.0096,-4.0096,-4.0096,-4.0096,-4.0096,-4.0096,-4.0096,-4.0096,-4.0096,-4.0096,-4.0096,-4.0096,-4.0096,-4.0096,-4.0096,-4.0096,-4.0096,-4.0096,-4.0096,-4.0096,-4.0096,-4.0096,-4.0096,-4.7034,-4.7065,-4.7065,-4.7065,-4.6511,-4.6081,-4.6067,-4.5502,-4.506,-4.507,-4.5225,-4.5358,-4.5358,-4.5635,-4.5801,-4.5801,-4.6124,-4.6407,-4.648,-4.7253,-4.782,-4.8065,-4.8436,-4.8438,-4.7989,-4.7278,-4.6596,-4.5899,-4.5139,-4.4711,-4.4615,-4.4615,-4.457,-4.4542,-4.4542,-4.4542,-4.4542,-4.4542,-4.4542,-4.4615,-4.4615,-4.4215,-4.369,-4.369,-4.3217,-4.2472,-4.1914,-4.161,-4.1339,-4.0595,-4.0367,-4.0333,-4.0146,-4.0096,-4.0096,-4.0096,-4.0096,-4.0096,-4.0096,-4.0096,-4.0096,-4.0096,-4.0096,-4.0096,-4.0096,-4.0096,-4.0096,-4.0096,-4.0096,-4.0096,-4.0096,-4.0096,-4.0096,-4.0096,0.0,-4.0096,-4.0096,-4.0096,-4.0096,-4.0096,-4.0096,-4.0096,-4.0096,-4.0096,-4.0096,-4.0096,-4.0096,-4.0096,-4.0096,-4.0096,-4.0096,-4.0096,-4.0096,-4.0096,-4.0096,-4.0096,-4.0096,-4.0096,-4.0096,-4.0096,-4.0096,-4.0096,-4.0096,-4.0096,-4.0096,-4.0096,-4.0096,-4.0096,-4.0096,-4.0096,-4.0096,-4.0096,-4.0096,-4.0096,-4.0096,-4.0096,-4.8343,-4.8466,-4.8466,-4.8466,-4.7912,-4.725,-4.6658,-4.5981,-4.5334,-4.474,-4.4799,-4.4949,-4.4949,-4.5114,-4.5241,-4.5241,-4.5447,-4.5578,-4.5614,-4.5929,-4.6636,-4.7704,-4.8065,-4.8243,-4.8176,-4.7634,-4.7052,-4.643,-4.5707,-4.5086,-4.4615,-4.4615,-4.4497,-4.4338,-4.4338,-4.4338,-4.4338,-4.4338,-4.444,-4.4615,-4.4615,-4.4564,-4.4513,-4.4513,-4.4012,-4.3291,-4.324,-4.2811,-4.21,-4.1373,-4.1119,-4.1001,-4.0333,-4.0096,-4.0096,-4.0096,-4.0096,-4.0096,-4.0096,-4.0096,-4.0096,-4.0096,-4.0096,-4.0096,-4.0096,-4.0096,-4.0096,-4.0096,-4.0096,-4.0096,-4.0096,-4.0096,-4.0096,-4.0096,0.0,0.0,-4.0096,-4.0096,-4.0096,-4.0096,-4.0096,-4.0096,-4.0096,-4.0096,-4.0096,-4.0096,-4.0096,-4.0096,-4.0096,-4.0096,-4.0096,-4.0096,-4.0096,-4.0096,-4.0096,-4.0096,-4.0096,-4.0096,-4.0096,-4.0096,-4.0096,-4.0096,-4.0096,-4.0096,-4.0096,-4.0096,-4.0096,-4.0096,-4.0096,-4.0096,-4.0096,-4.0096,-4.0096,-4.0096,-4.0096,-4.0096,-4.8558,-4.862,-4.862,-4.862,-4.8065,-4.7511,-4.7265,-4.6296,-4.5495,-4.5234,-4.491,-4.4723,-4.4723,-4.4776,-4.4814,-4.4814,-4.4986,-4.5136,-4.5136,-4.5358,-4.5981,-4.7084,-4.7388,-4.7572,-4.7721,-4.7174,-4.6789,-4.657,-4.5574,-4.4976,-4.4796,-4.4327,-4.4064,-4.3977,-4.3919,-4.3889,-4.3873,-4.3948,-4.4035,-4.4109,-4.4241,-4.4286,-4.4315,-4.4384,-4.4226,-4.3906,-4.3534,-4.3206,-4.2878,-4.2134,-4.188,-4.1745,-4.1001,-4.0781,-4.0679,-4.0231,-4.0096,-4.0096,-4.0096,-4.0096,-4.0096,-4.0096,-4.0096,-4.0096,-4.0096,-4.0096,-4.0096,-4.0096,-4.0096,-4.0096,-4.0096,-4.0096,-4.0096,-4.0096,0.0,-4.0096,-4.0096,-4.0096,-4.0096,-4.0096,-4.0096,-4.0096,-4.0096,-4.0096,-4.0096,-4.0096,-4.0096,-4.0096,-4.0096,-4.0096,-4.0096,-4.0096,-4.0096,-4.0096,-4.0096,-4.0096,-4.0096,-4.0096,-4.0096,-4.0096,-4.0096,-4.0096,-4.0096,-4.0096,-4.0096,-4.0096,-4.0096,-4.0096,-4.0096,-4.0096,-4.0096,-4.0096,-4.0096,-4.0096,-4.0096,-4.0096,-4.862,-4.862,-4.862,-4.862,-4.8235,-4.785,-4.7635,-4.6819,-4.6065,-4.5649,-4.5187,-4.4818,-4.4641,-4.461,-4.461,-4.461,-4.4723,-4.4799,-4.4799,-4.5002,-4.5505,-4.634,-4.662,-4.6809,-4.6947,-4.6713,-4.6503,-4.634,-4.5612,-4.5043,-4.4624,-4.4128,-4.3764,-4.3505,-4.3416,-4.3386,-4.3386,-4.3476,-4.3535,-4.3578,-4.373,-4.3818,-4.3877,-4.4006,-4.415,-4.4186,-4.3822,-4.372,-4.3673,-4.2895,-4.2642,-4.2523,-4.1779,-4.139,-4.1102,-4.0578,-4.0282,-4.0096,-4.0096,-4.0096,-4.0096,-4.0096,-4.0096,-4.0096,-4.0096,-4.0096,-4.0096,-4.0096,-4.0096,-4.0096,-4.0096,-4.0096,-4.0096,-4.0096,-4.0096,-4.0096,-4.0096,-4.0096,-4.0096,-4.0096,-4.0096,-4.0096,-4.0096,-4.0096,-4.0096,-4.0096,-4.0096,-4.0096,-4.0096,-4.0096,-4.0096,-4.0096,-4.0096,-4.0096,-4.0096,-4.0096,-4.0096,-4.0096,-4.0096,-4.0096,-4.0096,-4.0096,-4.0096,-4.0096,-4.0096,-4.0096,-4.0096,-4.0096,-4.0096,-4.0096,-4.0096,-4.0096,-4.0096,-4.0096,-4.0096,-4.0096,-4.862,-4.862,-4.862,-4.862,-4.862,-4.8389,-4.7711,-4.7604,-4.7127,-4.5772,-4.5588,-4.5326,-4.4687,-4.461,-4.461,-4.461,-4.461,-4.461,-4.461,-4.4799,-4.5061,-4.5468,-4.5801,-4.5985,-4.5985,-4.6407,-4.6314,-4.569,-4.5908,-4.5359,-4.4113,-4.4113,-4.366,-4.2916,-4.2916,-4.2899,-4.2899,-4.2899,-4.2976,-4.3096,-4.3096,-4.3171,-4.3306,-4.3519,-4.3802,-4.4126,-4.4253,-4.444,-4.4496,-4.369,-4.3409,-4.3274,-4.254,-4.1796,-4.1221,-4.1221,-4.0679,-4.0113,-4.0113,-4.0096,-4.0096,-4.0096,-4.0096,-4.0096,-4.0096,-4.0096,-4.0096,-4.0096,-4.0096,-4.0096,-4.0096,-4.0096,-4.0096,-4.0096,-4.0096,-4.0096,-4.0096,-4.0096,-4.0096,-4.0096,-4.0096,-4.0096,-4.0096,-4.0096,-4.0096,-4.0096,-4.0096,-4.0096,-4.0096,-4.0096,-4.0096,-4.0096,-4.0096,-4.0096,-4.0096,-4.0096,-4.0096,-4.0096,-4.0096,-4.0096,-4.0096,-4.0096,-4.0096,-4.0096,-4.0096,-4.0096,-4.0096,-4.0096,-4.0096,-4.0096,-4.0096,-4.0096,-4.0096,-4.0096,-4.0096,-4.0096,-4.862,-4.862,-4.862,-4.862,-4.862,-4.8543,-4.8343,-4.7912,-4.7296,-4.6419,-4.588,-4.5326,-4.4687,-4.461,-4.461,-4.461,-4.461,-4.461,-4.461,-4.4663,-4.4723,-4.4874,-4.521,-4.5447,-4.5447,-4.5672,-4.5742,-4.5572,-4.5346,-4.5024,-4.4659,-4.4194,-4.3568,-4.2878,-4.2747,-4.2443,-4.198,-4.2077,-4.2158,-4.219,-4.2349,-4.2523,-4.2711,-4.2927,-4.3279,-4.3641,-4.386,-4.4138,-4.4361,-4.4097,-4.4131,-4.4096,-4.3318,-4.2574,-4.1965,-4.1965,-4.1441,-4.0865,-4.0865,-4.0476,-4.0096,-4.0096,-4.0096,-4.0096,-4.0096,-4.0096,-4.0096,-4.0096,-4.0096,-4.0096,-4.0096,-4.0096,-4.0096,-4.0096,-4.0096,-4.0096,-4.0096,-4.0096,-4.0096,-4.0096,-4.0096,-4.0096,-4.0096,-4.0096,-4.0096,-4.0096,-4.0096,-4.0096,-4.0096,-4.0096,-4.0096,-4.0096,-4.0096,-4.0096,-4.0096,-4.0096,-4.0096,-4.0096,-4.0096,-4.0096,-4.0096,-4.0096,-4.0096,-4.0096,-4.0096,-4.0096,-4.0096,-4.0096,-4.0096,-4.0096,-4.0096,-4.0096,-4.0096,-4.0096,-4.0096,-4.0096,-4.862,-4.862,-4.862,-4.862,-4.862,-4.862,-4.862,-4.8266,-4.7758,-4.708,-4.6403,-4.5726,-4.5087,-4.4779,-4.461,-4.461,-4.461,-4.461,-4.461,-4.461,-4.461,-4.461,-4.4814,-4.498,-4.498,-4.5136,-4.5247,-4.5247,-4.5101,-4.4883,-4.4547,-4.4153,-4.3636,-4.2974,-4.2871,-4.2566,-4.2208,-4.2278,-4.2311,-4.228,-4.2161,-4.2264,-4.2461,-4.243,-4.2695,-4.3113,-4.3399,-4.3697,-4.3931,-4.4064,-4.4241,-4.4316,-4.39,-4.327,-4.2662,-4.2662,-4.2085,-4.1365,-4.1052,-4.0579,-4.0134,-3.9926,-3.9986,-4.0096,-4.0096,-4.0096,-4.0096,-4.0096,-4.0096,-4.0096,-4.0096,-4.0096,-4.0096,-4.0096,-4.0096,-4.0096,-4.0096,-4.0096,-4.0096,-4.0096,-4.0096,-4.0096,-4.0096,-4.0096,-4.0096,-4.0096,-4.0096,-4.0096,-4.0096,-4.0096,-4.0096,-4.0096,-4.0096,-4.0096,-4.0096,-4.0096,-4.0096,-4.0096,-4.0096,-4.0096,-4.0096,-4.0096,-4.0096,-4.0096,-4.0096,-4.0096,-4.0096,-4.0096,-4.0096,-4.0096,-4.0096,-4.0096,-4.0096,-4.0096,-4.0096,-4.0096,-4.862,-4.862,-4.862,-4.862,-4.862,-4.862,-4.862,-4.862,-4.8373,-4.7696,-4.7065,-4.6403,-4.5664,-4.5072,-4.4687,-4.4625,-4.461,-4.461,-4.461,-4.461,-4.461,-4.461,-4.461,-4.461,-4.461,-4.4761,-4.4874,-4.4874,-4.5055,-4.4802,-4.4148,-4.4148,-4.379,-4.3121,-4.3121,-4.3105,-4.3043,-4.3043,-4.3043,-4.2996,-4.2408,-4.2351,-4.2579,-4.2146,-4.2237,-4.2651,-4.2979,-4.3176,-4.3276,-4.3608,-4.3877,-4.4068,-4.4179,-4.3754,-4.3233,-4.3233,-4.2568,-4.1694,-4.0939,-4.0553,-4.0205,-3.9671,-3.983,-4.0104,-4.0087,-4.0087,-4.0087,-4.0087,-4.007,-4.0045,-4.0045,-4.007,-4.0087,-4.0087,-4.007,-4.0096,-4.0096,-4.0096,-4.0096,-4.0096,-4.0096,-4.0096,-4.0096,-4.0096,-4.0096,-4.0096,-4.0096,-4.0096,-4.0096,-4.0096,-4.0096,-4.0096,-4.0096,-4.0096,-4.0096,-4.0096,-4.0096,-4.0096,-4.0096,-4.0096,-4.0096,-4.0096,-4.0096,-4.0096,-4.0096,-4.0096,-4.0096,-4.0096,-4.0096,-4.0096,-4.0096,-4.0096,-4.0096,-4.0096,-4.0096,-4.0096,-4.862,-4.862,-4.862,-4.862,-4.862,-4.862,-4.862,-4.862,-4.8373,-4.7696,-4.7481,-4.6927,-4.5711,-4.5464,-4.5157,-4.4671,-4.461,-4.461,-4.461,-4.461,-4.461,-4.461,-4.461,-4.461,-4.461,-4.4648,-4.4648,-4.4648,-4.4701,-4.4662,-4.4507,-4.4507,-4.4136,-4.3488,-4.3488,-4.321,-4.271,-4.271,-4.271,-4.2695,-4.2541,-4.2607,-4.2758,-4.2829,-4.2748,-4.2646,-4.2991,-4.2944,-4.2803,-4.3127,-4.3369,-4.3472,-4.3502,-4.3522,-4.3494,-4.3494,-4.2862,-4.2076,-4.1898,-4.1321,-4.0627,-4.0028,-3.9968,-4.001,-3.9967,-3.9935,-3.9935,-3.9935,-3.9858,-3.9781,-3.9781,-3.9858,-3.9935,-3.9935,-4.0037,-4.0096,-4.0096,-4.0096,-4.0096,-4.0096,-4.0096,-4.0096,-4.0096,-4.0096,-4.0096,-4.0096,-4.0096,-4.0096,-4.0096,-4.0096,-4.0096,-4.0096,-4.0096,-4.0096,-4.0096,-4.0096,-4.0096,-4.0096,-4.0096,-4.0096,-4.0096,-4.0096,-4.0096,-4.0096,-4.0096,-4.0096,-4.0096,-4.0096,-4.0096,-4.0096,-4.0096,-4.0096,-4.0096,-4.0096,-4.0096,-4.0096,-4.8578,-4.862,-4.862,-4.862,-4.862,-4.862,-4.862,-4.862,-4.8481,-4.8127,-4.7804,-4.7342,-4.6619,-4.5972,-4.5311,-4.4671,-4.461,-4.461,-4.461,-4.461,-4.461,-4.461,-4.461,-4.461,-4.461,-4.461,-4.461,-4.461,-4.461,-4.461,-4.461,-4.461,-4.4425,-4.4086,-4.4086,-4.3864,-4.3541,-4.3541,-4.3541,-4.3525,-4.3202,-4.3158,-4.3242,-4.3024,-4.2915,-4.2881,-4.3137,-4.3014,-4.2735,-4.2541,-4.2648,-4.2865,-4.2958,-4.308,-4.3265,-4.3265,-4.2788,-4.2169,-4.1736,-4.1166,-4.0593,-4.0121,-4.0044,-3.9997,-3.9658,-3.9582,-3.9556,-3.9478,-3.9398,-3.9372,-3.9372,-3.9478,-3.9609,-3.9781,-3.991,-4.0037,-4.007,-4.0096,-4.0096,-4.0096,-4.0096,-4.0096,-4.0096,-4.0096,-4.0096,-4.0096,-4.0096,-4.0096,-4.0096,-4.0096,-4.0096,-4.0096,-4.0096,-4.0096,-4.0096,-4.0096,-4.0096,-4.0096,-4.0096,-4.0096,-4.0096,-4.0096,-4.0096,-4.0096,-4.0096,-4.0096,-4.0096,-4.0096,-4.0096,-4.0096,-4.0096,-4.0096,-4.0096,-4.0096,-4.0096,-4.0096,-4.8453,-4.8537,-4.8537,-4.8537,-4.8578,-4.862,-4.862,-4.862,-4.862,-4.862,-4.8127,-4.7727,-4.7619,-4.6496,-4.5541,-4.501,-4.4964,-4.4964,-4.4964,-4.4964,-4.4964,-4.4964,-4.4818,-4.4756,-4.4756,-4.4671,-4.461,-4.461,-4.461,-4.461,-4.461,-4.461,-4.461,-4.461,-4.461,-4.461,-4.461,-4.461,-4.461,-4.4564,-4.4009,-4.3852,-4.3886,-4.3314,-4.3144,-4.3214,-4.3388,-4.3249,-4.2829,-4.21,-4.2107,-4.2414,-4.2381,-4.2523,-4.2681,-4.2681,-4.2429,-4.1965,-4.1247,-4.0816,-4.0497,-4.0133,-4.0128,-4.0049,-3.9416,-3.9254,-3.9193,-3.8931,-3.886,-3.886,-3.886,-3.8952,-3.9152,-3.9504,-3.9703,-3.9884,-4.0037,-4.0062,-4.0062,-4.0062,-4.0062,-4.007,-4.0096,-4.0096,-4.0096,-4.0096,-4.0096,-4.0096,-4.0096,-4.0096,-4.0096,-4.0096,-4.0096,-4.0096,-4.0096,-4.0096,-4.0096,-4.0096,-4.0096,-4.0096,-4.0096,-4.0096,-4.0096,-4.0096,-4.0096,-4.0096,-4.0096,-4.0096,-4.0096,-4.0096,-4.0096,-4.0096,-4.0096,-4.0096,-4.0096,-4.0096,-4.8091,-4.8218,-4.8328,-4.8328,-4.8495,-4.862,-4.862,-4.862,-4.862,-4.862,-4.8543,-4.825,-4.7665,-4.6927,-4.6419,-4.6326,-4.6326,-4.6326,-4.6326,-4.6326,-4.6326,-4.6326,-4.5757,-4.5449,-4.5449,-4.4918,-4.461,-4.461,-4.461,-4.461,-4.461,-4.461,-4.461,-4.461,-4.461,-4.461,-4.461,-4.461,-4.461,-4.461,-4.4517,-4.4486,-4.4471,-4.4379,-4.4016,-4.3544,-4.3675,-4.3458,-4.297,-4.2282,-4.22,-4.2291,-4.1678,-4.1621,-4.1785,-4.1785,-4.1621,-4.1425,-4.1297,-4.1131,-4.0906,-4.0398,-4.0258,-4.0134,-3.9595,-3.9514,-3.9345,-3.8541,-3.8298,-3.8214,-3.8214,-3.8327,-3.8551,-3.9023,-3.9302,-3.9582,-3.9884,-3.9926,-3.9926,-3.9926,-3.9926,-3.9961,-4.007,-4.0096,-4.0096,-4.0096,-4.0096,-4.0096,-4.0096,-4.0096,-4.0096,-4.0096,-4.0096,-4.0096,-4.0096,-4.0096,-4.0096,-4.0096,-4.0096,-4.0096,-4.0096,-4.0096,-4.0096,-4.0096,-4.0096,-4.0096,-4.0096,-4.0096,-4.0096,-4.0096,-4.0096,-4.0096,-4.0096,-4.0096,-4.0096,-4.0096,-4.7964,-4.8091,-4.8133,-4.8133,-4.8218,-4.8244,-4.8244,-4.8244,-4.8286,-4.8412,-4.8453,-4.8388,-4.8163,-4.7573,-4.7004,-4.6634,-4.6603,-4.6603,-4.6603,-4.6603,-4.6603,-4.6603,-4.6311,-4.6157,-4.6157,-4.548,-4.5141,-4.5141,-4.4756,-4.461,-4.461,-4.461,-4.461,-4.461,-4.461,-4.461,-4.461,-4.461,-4.461,-4.461,-4.461,-4.461,-4.461,-4.461,-4.4425,-4.4117,-4.3806,-4.3555,-4.3273,-4.2607,-4.2481,-4.256,-4.2233,-4.2278,-4.2372,-4.198,-4.1734,-4.152,-4.113,-4.0916,-4.0737,-4.0611,-4.06,-4.0446,-3.9907,-3.9819,-3.9514,-3.8448,-3.8195,-3.8054,-3.7658,-3.7815,-3.8075,-3.8427,-3.8816,-3.9142,-3.9388,-3.9478,-3.9556,-3.9668,-3.9746,-3.9833,-3.9977,-4.0062,-4.0096,-4.0096,-4.0096,-4.0096,-4.0096,-4.0096,-4.0096,-4.0096,-4.0096,-4.0096,-4.0096,-4.0096,-4.0096,-4.0096,-4.0096,-4.0096,-4.0096,-4.0096,-4.0096,-4.0096,-4.0096,-4.0096,-4.0096,-4.0096,-4.0096,-4.0096,-4.0096,-4.0096,-4.0096,-4.0096,-4.0096,-4.0096]},{"header":{"parameterUnit":"m.s-1","parameterCategory":1,"la1":30.6,"la2":28.766,"lo1":-90.7593,"lo2":-88.6598,"dy":0.0162,"dx":0.0183,"nx":116,"ny":114,"refTime":"2024-07-05T00:00:00:Z","depth":0,"parameterNumber":3,"parameterNumberName":"V-component_of_WINDS"},"data":[0.0,0.0,0.0,0.0,0.0,0.0,0.0,0.0,0.0,0.0,0.0,0.0,0.0,0.0,0.0,0.0,0.0,0.0,0.0,0.0,0.0,0.0,0.0,0.0,0.0,0.0,0.0,0.0,0.0,0.0,0.0,0.0,0.0,0.0,0.0,0.0,0.0,0.0,0.0,0.0,0.0,0.0,0.0,0.0,0.0,0.0,0.0,0.0,0.0,0.0,0.0,0.0,0.0,0.0,0.0,0.0,0.0,0.0,0.0,0.0,0.0,0.0,0.0,0.0,0.0,0.0,0.0,0.0,0.0,0.0,0.0,0.0,0.0,0.0,0.0,0.0,0.0,0.0,0.0,0.0,0.0,0.0,0.0,0.0,0.0,0.0,0.0,0.0,0.0,0.0,0.0,0.0,0.0,0.0,0.0,0.0,0.0,0.0,0.0,0.0,0.0,0.0,0.0,0.0,0.0,0.0,0.0,0.0,0.0,0.0,0.0,0.0,0.0,0.0,0.0,0.0,0.0,0.0,0.0,0.0,0.0,0.0,0.0,0.0,0.0,0.0,0.0,0.0,0.0,0.0,0.0,0.0,0.0,0.0,0.0,0.0,0.0,0.0,0.0,0.0,0.0,0.0,0.0,0.0,0.0,0.0,0.0,0.0,0.0,0.0,0.0,0.0,0.0,0.0,0.0,0.0,0.0,0.0,0.0,0.0,0.0,0.0,0.0,0.0,0.0,0.0,0.0,0.0,0.0,0.0,0.0,0.0,0.0,0.0,0.0,0.0,0.0,0.0,0.0,0.0,0.0,0.0,0.0,0.0,0.0,0.0,0.0,0.0,0.0,0.0,0.0,0.0,0.0,0.0,0.0,0.0,0.0,0.0,0.0,0.0,0.0,0.0,0.0,0.0,0.0,0.0,0.0,0.0,0.0,0.0,0.0,0.0,0.0,0.0,0.0,0.0,0.0,0.0,0.0,0.0,0.0,0.0,0.0,0.0,0.0,0.0,0.0,0.0,0.0,0.0,0.0,0.0,0.0,0.0,0.0,0.0,0.0,0.0,0.0,0.0,0.0,0.0,0.0,0.0,0.0,0.0,0.0,0.0,0.0,0.0,0.0,0.0,0.0,0.0,0.0,0.0,0.0,0.0,0.0,0.0,0.0,0.0,0.0,0.0,0.0,0.0,0.0,0.0,0.0,0.0,0.0,0.0,0.0,0.0,0.0,0.0,0.0,0.0,0.0,0.0,0.0,0.0,0.0,0.0,0.0,0.0,0.0,0.0,0.0,0.0,0.0,0.0,0.0,0.0,0.0,0.0,0.0,0.0,0.0,0.0,0.0,0.0,0.0,0.0,0.0,0.0,0.0,0.0,0.0,0.0,0.0,0.0,0.0,0.0,0.0,0.0,0.0,0.0,0.0,0.0,0.0,0.0,0.0,0.0,0.0,0.0,0.0,0.0,0.0,0.0,0.0,0.0,0.0,0.0,0.0,0.0,0.0,0.0,0.0,0.0,0.0,0.0,0.0,0.0,0.0,0.0,0.0,0.0,0.0,0.0,0.0,0.0,0.0,0.0,0.0,0.0,0.0,0.0,0.0,0.0,0.0,0.0,0.0,0.0,0.0,0.0,0.0,0.0,0.0,0.0,0.0,0.0,0.0,0.0,0.0,0.0,0.0,0.0,0.0,0.0,0.0,0.0,0.0,0.0,0.0,0.0,0.0,0.0,0.0,0.0,0.0,0.0,0.0,0.0,0.0,0.0,0.0,0.0,0.0,0.0,0.0,0.0,0.0,0.0,0.0,0.0,0.0,0.0,0.0,0.0,0.0,0.0,0.0,0.0,0.0,0.0,0.0,0.0,0.0,0.0,0.0,0.0,0.0,0.0,0.0,0.0,0.0,0.0,0.0,0.0,0.0,0.0,0.0,0.0,0.0,0.0,0.0,0.0,0.0,0.0,0.0,0.0,0.0,0.0,0.0,0.0,0.0,0.0,0.0,0.0,0.0,0.0,0.0,0.0,0.0,0.0,0.0,0.0,0.0,0.0,0.0,0.0,0.0,0.0,0.0,0.0,0.0,0.0,0.0,0.0,0.0,0.0,0.0,0.0,0.0,0.0,0.0,0.0,0.0,0.0,0.0,0.0,0.0,0.0,0.0,0.0,0.0,0.0,0.0,0.0,0.0,0.0,0.0,0.0,0.0,0.0,0.0,0.0,0.0,0.0,0.0,0.0,0.0,0.0,0.0,0.0,0.0,0.0,0.0,0.0,0.0,0.0,0.0,0.0,0.0,0.0,0.0,0.0,0.0,0.0,0.0,0.0,0.0,0.0,0.0,0.0,0.0,0.0,0.0,0.0,0.0,0.0,0.0,0.0,0.0,0.0,0.0,0.0,0.0,0.0,0.0,0.0,0.0,0.0,0.0,0.0,0.0,0.0,0.0,0.0,0.0,0.0,0.0,0.0,0.0,0.0,0.0,0.0,0.0,0.0,0.0,0.0,0.0,0.0,0.0,0.0,0.0,0.0,0.0,0.0,0.0,0.0,0.0,0.0,0.0,0.0,0.0,0.0,0.0,0.0,0.0,0.0,0.0,0.0,0.0,0.0,0.0,0.0,0.0,0.0,0.0,0.0,0.0,0.0,0.0,0.0,0.0,0.0,0.0,0.0,0.0,0.0,0.0,0.0,0.0,0.0,0.0,0.0,0.0,0.0,0.0,0.0,0.0,0.0,0.0,0.0,0.0,0.0,0.0,0.0,0.0,0.0,0.0,0.0,0.0,0.0,0.0,0.0,0.0,0.0,0.0,0.0,0.0,0.0,0.0,0.0,0.0,0.0,0.0,0.0,0.0,0.0,0.0,0.0,0.0,0.0,0.0,0.0,0.0,0.0,0.0,0.0,0.0,0.0,0.0,0.0,0.0,0.0,0.0,0.0,0.0,0.0,0.0,0.0,0.0,0.0,0.0,0.0,0.0,0.0,0.0,0.0,0.0,0.0,0.0,0.0,0.0,0.0,0.0,0.0,0.0,0.0,0.0,0.0,0.0,0.0,0.0,0.0,0.0,0.0,0.0,0.0,0.0,0.0,0.0,0.0,0.0,0.0,0.0,0.0,0.0,0.0,0.0,0.0,0.0,0.0,0.0,0.0,0.0,0.0,0.0,0.0,0.0,0.0,0.0,0.0,0.0,0.0,0.0,0.0,0.0,0.0,0.0,0.0,0.0,0.0,0.0,0.0,0.0,0.0,0.0,0.0,0.0,0.0,0.0,0.0,0.0,0.0,0.0,0.0,0.0,0.0,0.0,0.0,0.0,0.0,0.0,0.0,0.0,0.0,0.0,0.0,0.0,0.0,0.0,0.0,0.0,0.0,0.0,0.0,0.0,0.0,0.0,0.0,0.0,0.0,0.0,0.0,0.0,0.0,0.0,0.0,0.0,0.0,0.0,0.0,0.0,0.0,0.0,0.0,0.0,0.0,0.0,0.0,0.0,0.0,0.0,0.0,0.0,0.0,0.0,0.0,0.0,0.0,0.0,0.0,0.0,0.0,0.0,0.0,0.0,0.0,0.0,0.0,0.0,0.0,0.0,0.0,0.0,0.0,0.0,0.0,0.0,0.0,0.0,0.0,0.0,0.0,0.0,0.0,0.0,0.0,0.0,0.0,0.0,0.0,0.0,0.0,0.0,0.0,0.0,0.0,0.0,0.0,0.0,0.0,0.0,0.0,0.0,0.0,0.0,0.0,0.0,0.0,0.0,0.0,0.0,0.0,0.0,0.0,0.0,0.0,0.0,0.0,0.0,0.0,0.0,0.0,0.0,0.0,0.0,0.0,0.0,0.0,0.0,0.0,0.0,0.0,0.0,0.0,0.0,0.0,0.0,0.0,0.0,0.0,0.0,0.0,0.0,0.0,0.0,0.0,0.0,0.0,0.0,0.0,0.0,0.0,0.0,0.0,0.0,0.0,0.0,0.0,0.0,0.0,0.0,0.0,0.0,0.0,0.0,0.0,0.0,0.0,0.0,0.0,0.0,0.0,0.0,0.0,0.0,0.0,0.0,0.0,0.0,0.0,0.0,0.0,0.0,0.0,0.0,0.0,0.0,0.0,0.0,0.0,0.0,0.0,0.0,0.0,0.0,0.0,0.0,0.0,0.0,0.0,0.0,0.0,0.0,0.0,0.0,0.0,0.0,0.0,0.0,0.0,0.0,0.0,0.0,0.0,0.0,0.0,0.0,0.0,0.0,0.0,0.0,0.0,0.0,0.0,0.0,0.0,0.0,0.0,0.0,0.0,0.0,0.0,0.0,0.0,0.0,0.0,0.0,0.0,0.0,0.0,0.0,0.0,0.0,0.0,0.0,0.0,0.0,0.0,0.0,0.0,0.0,0.0,0.0,0.0,0.0,0.0,0.0,0.0,0.0,0.0,0.0,0.0,0.0,0.0,0.0,0.0,0.0,0.0,0.0,0.0,0.0,0.0,0.0,0.0,0.0,0.0,0.0,0.0,0.0,0.0,0.0,0.0,0.0,0.0,0.0,0.0,0.0,0.0,0.0,0.0,0.0,0.0,0.0,0.0,0.0,0.0,0.0,0.0,0.0,0.0,0.0,0.0,0.0,0.0,0.0,0.0,0.0,0.0,0.0,0.0,0.0,0.0,0.0,0.0,0.0,0.0,0.0,0.0,0.0,0.0,0.0,0.0,0.0,0.0,0.0,0.0,0.0,0.0,0.0,0.0,0.0,0.0,0.0,0.0,0.0,0.0,0.0,0.0,0.0,0.0,0.0,0.0,0.0,0.0,0.0,0.0,0.0,0.0,0.0,0.0,0.0,0.0,0.0,0.0,0.0,0.0,0.0,0.0,0.0,0.0,0.0,0.0,0.0,0.0,0.0,0.0,0.0,0.0,0.0,0.0,0.0,0.0,0.0,0.0,0.0,0.0,0.0,0.0,0.0,0.0,0.0,0.0,0.0,0.0,0.0,0.0,0.0,0.0,0.0,0.0,0.0,0.0,0.0,0.0,0.0,0.0,0.0,0.0,0.0,0.0,0.0,0.0,0.0,0.0,0.0,0.0,0.0,0.0,0.0,0.0,0.0,0.0,0.0,0.0,0.0,0.0,0.0,0.0,0.0,0.0,0.0,0.0,0.0,0.0,0.0,0.0,0.0,0.0,0.0,0.0,0.0,0.0,0.0,0.0,0.0,0.0,0.0,0.0,0.0,0.0,0.0,0.0,0.0,0.0,0.0,0.0,0.0,0.0,0.0,0.0,0.0,0.0,0.0,0.0,0.0,0.0,0.0,0.0,0.0,0.0,0.0,0.0,0.0,0.0,0.0,0.0,0.0,0.0,0.0,0.0,0.0,0.0,0.0,0.0,0.0,0.0,0.0,0.0,0.0,0.0,0.0,0.0,0.0,0.0,0.0,0.0,0.0,0.0,0.0,0.0,0.0,0.0,0.0,0.0,0.0,0.0,0.0,0.0,0.0,0.0,0.0,0.0,0.0,0.0,0.0,0.0,0.0,0.0,0.0,0.0,0.0,0.0,0.0,0.0,0.0,0.0,0.0,0.0,0.0,0.0,0.0,0.0,0.0,0.0,0.0,0.0,0.0,0.0,0.0,0.0,0.0,0.0,0.0,0.0,0.0,0.0,0.0,0.0,0.0,0.0,0.0,0.0,0.0,0.0,0.0,0.0,0.0,0.0,0.0,0.0,0.0,0.0,0.0,0.0,0.0,0.0,0.0,0.0,0.0,0.0,0.0,0.0,0.0,0.0,0.0,0.0,0.0,0.0,0.0,0.0,0.0,0.0,0.0,0.0,0.0,0.0,0.0,0.0,0.0,0.0,0.0,0.0,0.0,0.0,0.0,0.0,0.0,0.0,0.0,0.0,0.0,0.0,0.0,0.0,0.0,0.0,0.0,0.0,0.0,0.0,0.0,0.0,0.0,0.0,0.0,0.0,0.0,0.0,0.0,0.0,0.0,0.0,0.0,0.0,0.0,0.0,0.0,0.0,0.0,0.0,0.0,0.0,0.0,0.0,0.0,0.0,0.0,0.0,0.0,0.0,0.0,0.0,0.0,0.0,0.0,0.0,0.0,0.0,0.0,0.0,0.0,0.0,0.0,0.0,0.4058,0.2973,0.0,0.0,0.0,0.0,0.0,0.0,0.0,0.0,0.0,0.0,0.0,0.0,0.0,0.0,0.0,0.0,0.0,0.0,0.0,0.0,0.0,0.0,0.0,1.4659,1.526,1.5722,1.579,1.5908,1.6047,0.0,0.0,0.0,0.0,0.0,1.383,1.3552,1.3341,1.3123,1.3123,1.3086,1.2995,1.2077,1.1206,1.0443,0.0,0.0,0.0,0.0,0.0,0.0,0.0,0.0,0.0,0.0,0.0,0.0,0.0,0.0,0.0,0.0,0.0,0.0,0.0,0.0,0.0,0.0,0.0,0.0,0.0,0.0,0.0,0.0,0.0,0.0,0.0,0.0,0.0,0.0,0.0,0.0,0.0,0.0,0.0,0.0,0.0,0.0,0.0,0.0,0.0,0.0,0.0,0.0,0.0,0.0,0.0,0.0,0.0,0.0,0.0,0.0,0.0,0.0,0.0,0.0,0.0,0.0,0.0,0.0,0.0,0.0,0.0,0.0,0.0,0.0,0.4602,0.3697,0.0,0.0,0.0,0.0,0.0,0.0,0.0,0.0,0.0,0.0,0.0,0.0,0.0,0.0,0.0,0.0,0.0,0.0,0.0,0.0,0.0,1.38,1.3853,1.4771,1.5635,1.6214,1.6385,1.6665,1.7103,1.6764,0.0,0.0,0.0,1.522,1.5,1.4686,1.4361,1.4038,1.4165,1.4165,1.4029,1.3864,1.322,1.2154,1.1324,0.0,0.0,0.0,0.0,0.0,0.0,0.0,0.0,0.0,0.0,0.0,0.0,0.0,0.0,0.0,0.0,0.0,0.0,0.0,0.0,0.0,0.0,0.0,0.0,0.0,0.0,0.0,0.0,0.0,0.0,0.0,0.0,0.0,0.0,0.0,0.0,0.0,0.0,0.0,0.0,0.0,0.0,0.0,0.0,0.0,0.0,0.0,0.0,0.0,0.0,0.0,0.0,0.0,0.0,0.0,0.0,0.0,0.0,0.0,0.0,0.0,0.0,0.0,0.6437,0.6387,0.6387,0.6387,0.6287,0.6037,0.5006,0.4343,0.3899,0.2729,0.0,0.0,0.0,0.0,0.0,0.0,0.0,0.0,0.0,0.0,0.0,0.0,0.0,0.0,0.0,0.0,0.0,0.0,0.0,1.423,1.445,1.5462,1.6588,1.7615,1.7861,1.8081,1.8416,1.8385,0.0,0.0,1.7471,1.7142,1.6604,1.6542,1.627,1.576,1.5891,1.5891,1.576,1.5454,1.5013,1.4395,1.2683,1.1567,1.0959,0.0,0.0,0.0,0.0,0.0,0.0,0.0,0.0,0.0,0.0,0.0,0.0,0.0,0.0,0.0,0.0,0.0,0.0,0.0,0.0,0.0,0.0,0.0,0.0,0.0,0.0,0.0,0.0,0.0,0.0,0.0,0.0,0.0,0.0,0.0,0.0,0.0,0.0,0.0,0.0,0.0,1.1375,1.1192,0.0,0.0,0.0,0.0,0.0,0.0,0.0,0.0,0.0,0.0,0.0,0.0,0.0,0.7532,0.7114,0.7047,0.6907,0.6742,0.6489,0.6387,0.6387,0.6387,0.6387,0.6337,0.5924,0.0,0.4301,0.3646,0.0,0.0,0.0,0.0,0.0,0.0,0.0,0.0,0.0,0.0,0.0,0.0,0.0,0.0,0.0,0.0,0.0,0.0,0.0,0.0,0.0,1.5949,1.7034,1.7881,1.8242,1.8599,1.9021,1.9085,1.8975,1.8695,1.8665,1.8477,1.81,1.7782,1.7359,1.6832,1.6877,1.6877,1.6832,1.6595,1.6226,1.5651,1.4554,1.3384,1.2176,1.1621,0.0,0.0,0.0,0.0,0.0,0.0,0.0,0.0,0.0,0.0,0.0,0.0,0.0,0.0,0.0,0.0,0.0,0.0,0.0,0.0,0.0,0.0,0.0,0.0,0.0,0.0,0.0,0.0,0.0,0.0,0.0,0.0,0.0,0.0,0.0,0.0,0.0,0.0,0.0,1.2656,1.268,1.2588,1.1836,1.1025,0.0,0.0,0.0,0.0,0.0,0.0,0.0,0.0,0.0,0.7922,0.7968,0.7891,0.7724,0.7452,0.7214,0.6952,0.6726,0.6539,0.6387,0.6387,0.6387,0.6387,0.6287,0.5889,0.5236,0.4397,0.3636,0.2885,0.0,0.0,0.0,0.0,-0.0683,-0.0787,0.0,0.0,0.0,0.0,0.0,0.0,0.0,0.0,0.0,0.0,0.0,0.0,1.5242,1.651,1.7589,1.8264,1.8663,1.9091,0.0,0.0,1.9748,1.9886,1.9838,1.9737,1.9565,1.8912,1.8289,1.7749,1.7804,1.7804,1.7749,1.7567,1.7207,1.6641,1.613,1.4965,1.3345,1.2789,1.2136,0.0,0.0,0.0,0.0,0.0,0.0,0.0,0.0,0.0,0.0,0.0,0.0,0.0,0.0,0.0,0.0,0.0,0.0,0.0,0.0,0.0,0.0,0.0,0.0,0.0,0.0,0.0,0.0,0.0,0.0,0.0,0.0,0.0,0.0,0.0,0.0,0.0,0.0,1.3843,1.3884,1.3901,1.3176,1.239,0.0,0.0,0.0,0.0,0.0,0.0,0.8585,0.8493,0.8426,0.8378,0.8308,0.8263,0.8223,0.7893,0.7535,0.7242,0.7008,0.674,0.6433,0.64,0.6387,0.6387,0.6387,0.6287,0.6039,0.509,0.4487,0.4081,0.2671,0.1915,0.146,0.0397,-0.01,-0.0252,0.0,0.0,0.0,0.0,0.0,0.0,0.0,0.0,0.0,0.0,0.0,1.5614,1.5985,1.7349,1.8569,1.9349,1.9563,1.9873,0.0,0.0,2.0686,2.1188,2.12,2.1153,2.1093,2.0058,1.9258,1.8718,1.8866,1.8854,1.8718,1.8398,1.8023,1.76,1.7017,1.5891,1.4382,1.3914,1.3144,1.2198,0.0,0.0,0.0,0.0,0.0,0.0,0.0,0.0,0.0,0.0,0.0,0.0,0.0,0.0,0.0,0.0,0.0,0.0,0.0,0.0,0.0,0.0,0.0,0.0,0.0,0.0,0.0,0.0,0.0,0.0,0.0,0.0,0.0,0.0,0.0,0.0,0.0,0.0,0.0,1.5026,1.4513,0.0,0.0,0.0,0.0,1.0788,1.0162,0.961,0.9114,0.8957,0.8731,0.8525,0.8621,0.8628,0.8482,0.8355,0.8034,0.7586,0.7245,0.6924,0.6605,0.6438,0.6387,0.6387,0.6387,0.6387,0.6337,0.5787,0.5236,0.4684,0.3828,0.3176,0.2573,0.1511,0.0806,0.0303,0.0,0.0,0.0,1.1015,1.1678,1.2258,1.27,1.2983,1.3262,1.3549,1.4639,1.5654,0.0,1.7529,1.8556,1.9361,1.9652,1.9885,2.0161,0.0,2.0656,2.0825,2.1357,2.1448,2.1066,2.0378,1.9706,1.9196,1.9237,1.9237,1.9184,1.8987,1.8655,1.8251,1.7722,1.6933,1.593,1.505,1.4319,1.3635,1.2731,1.1953,0.0,0.0,0.0,0.0,0.0,0.0,0.0,0.0,0.0,0.0,0.0,0.0,0.0,0.0,0.0,0.0,0.0,0.0,0.0,0.0,0.0,0.0,0.0,0.0,0.0,0.0,0.0,0.0,0.0,0.0,0.0,0.0,0.0,0.0,0.0,0.0,0.0,1.5596,1.5447,0.0,1.4501,1.3902,1.32,1.24,1.1805,1.1135,1.0424,1.0124,0.9792,0.9473,0.9262,0.9101,0.9099,0.8733,0.8363,0.8044,0.7644,0.7261,0.6989,0.6659,0.6554,0.65,0.6419,0.6387,0.6387,0.6187,0.5887,0.5489,0.4485,0.3984,0.3682,0.2421,0.1765,0.1312,0.9309,0.9718,0.0,1.1141,1.1753,1.2274,1.2832,1.3118,1.3433,1.3881,1.4849,1.5893,1.6925,1.7712,1.8571,1.958,1.9699,1.9851,2.0118,0.0,2.0676,2.0825,2.1515,2.1731,2.1384,2.0859,2.0309,1.9746,1.9694,1.9581,1.9394,1.9215,1.8983,1.8644,1.821,1.7727,1.724,1.6386,1.5624,1.4853,1.3954,1.3254,1.2652,0.0,0.0,0.0,0.0,0.0,0.0,0.0,0.0,0.0,0.0,0.0,0.0,0.0,0.0,0.0,0.0,0.0,0.0,0.0,0.0,0.0,0.0,0.0,0.0,0.0,0.0,0.0,0.0,0.0,0.0,0.0,0.0,0.0,0.0,1.5798,1.6037,1.6127,1.6188,1.6004,1.5601,1.5145,1.4587,1.3822,1.3168,1.2432,1.166,1.1216,1.0833,1.0401,1.003,0.9761,0.9544,0.9163,0.8733,0.8352,0.7996,0.7662,0.7278,0.6942,0.6709,0.6616,0.6481,0.6425,0.6387,0.6387,0.6289,0.6039,0.524,0.4889,0.4686,0.3479,0.2823,0.237,0.9309,0.9718,1.0277,1.1141,1.1753,1.2274,1.2832,1.319,1.361,1.4129,1.5193,1.6326,1.7544,1.7916,1.8653,2.0029,1.9806,1.9802,2.0357,2.0509,2.0782,2.1289,2.1793,2.2064,2.2119,2.1588,2.1004,2.0422,2.0258,1.9925,1.9411,1.9118,1.8921,1.8772,1.8396,1.8249,1.8282,1.7897,1.7002,1.5843,1.5395,1.491,1.4315,0.0,0.0,0.0,0.0,0.0,0.0,0.0,0.0,0.0,0.0,0.0,0.0,0.0,0.0,0.0,0.0,0.0,0.0,0.0,0.0,0.0,0.0,0.0,0.0,0.0,0.0,0.0,0.0,0.0,0.0,0.0,0.0,0.0,1.5798,1.6106,1.64,1.6687,1.6727,1.664,1.6351,1.6086,1.5632,1.4928,1.4221,1.3514,1.2717,1.2274,1.1782,1.1181,1.0911,1.0472,0.9816,0.9541,0.9099,0.8484,0.8352,0.8018,0.7414,0.7284,0.6997,0.6624,0.6622,0.65,0.6387,0.6387,0.6387,0.6387,0.6089,0.5839,0.5536,0.4738,0.4085,0.3376,0.9309,0.9718,1.0277,1.1141,1.1753,1.2298,1.2895,1.3286,1.3776,1.4407,1.5131,1.6006,1.7077,1.7472,1.8083,1.9154,1.916,1.9444,2.0271,2.0284,2.0673,2.1601,2.1517,2.1621,2.2021,2.1514,2.1166,2.0993,2.0314,1.9917,1.9747,1.9083,1.8714,1.8584,1.8623,1.8506,1.8329,1.8549,1.8243,1.749,1.6057,1.5343,1.5034,0.0,0.0,0.0,0.0,0.0,0.0,0.0,0.0,0.0,0.0,0.0,0.0,0.0,0.0,0.0,0.0,0.0,0.0,0.0,0.0,0.0,0.0,0.0,0.0,0.0,0.0,0.0,0.0,0.0,0.0,0.0,1.6055,1.6152,1.6152,1.6636,1.6991,1.7065,1.7215,1.7341,1.7244,1.699,1.6677,1.6193,1.5629,1.5039,1.4399,1.3863,1.3305,1.2713,1.2005,1.124,1.0472,0.9926,0.9375,0.8771,0.8559,0.8375,0.8204,0.7579,0.7236,0.7006,0.6709,0.65,0.6387,0.6387,0.6387,0.6387,0.6089,0.5942,0.5839,0.519,0.4384,0.3476,0.9335,0.9718,1.0259,1.1141,1.1703,1.2249,1.2886,1.3334,1.3847,1.4558,1.5153,1.5927,1.7039,1.7226,1.7727,1.8872,1.8864,1.9265,2.0381,2.0745,2.1349,2.2337,2.1903,2.1911,2.249,2.1949,2.1509,2.1192,2.064,2.0069,1.9517,1.8959,1.8634,1.8503,1.8482,1.843,1.8413,1.8746,1.8612,1.8043,1.7056,1.648,1.6154,1.5417,1.5124,1.5039,1.4467,1.3974,1.3583,1.348,0.0,0.0,0.0,0.0,0.0,0.0,0.0,0.0,0.0,0.0,0.0,0.0,0.0,0.0,0.0,0.0,0.0,0.0,0.0,0.0,0.0,0.0,0.0,0.0,1.6767,1.6944,1.6876,1.7035,1.7246,1.7367,1.7534,1.7582,1.7582,1.7483,1.7219,1.6955,1.6471,1.5992,1.541,1.4976,1.4439,1.3689,1.3029,1.2219,1.1076,1.0472,0.9816,0.9103,0.8823,0.8598,0.8478,0.8016,0.7559,0.7159,0.688,0.6602,0.6387,0.6387,0.6387,0.6387,0.0,0.0,0.0,0.0,0.4987,0.4182,0.9335,0.9706,1.0257,1.1099,1.1603,1.215,1.2861,1.3334,1.386,1.4606,1.5175,1.5948,1.7165,1.7062,1.7458,1.8798,1.8732,1.9222,2.069,2.1602,2.2423,2.3164,2.256,2.2512,2.3088,2.2511,2.1877,2.1213,2.101,2.0291,1.9107,1.883,1.8636,1.8502,1.8204,1.8247,1.8526,1.8756,1.8534,1.8051,1.8165,1.7964,1.7461,1.6616,1.6301,1.626,1.5887,1.5535,1.5159,1.4884,0.0,0.0,0.0,0.0,0.0,0.0,0.0,0.0,0.0,0.0,0.0,0.0,0.0,0.0,0.0,0.0,0.0,0.0,0.0,0.0,0.0,0.0,0.0,0.0,1.7734,1.7981,1.7842,1.7562,1.745,1.7601,1.7582,1.7582,1.7582,1.7582,1.7483,1.7279,1.6955,1.6524,1.6051,1.5779,0.0,0.0,0.0,1.3132,1.1678,1.1131,1.0363,0.9489,0.9213,0.8878,0.8592,0.84,0.7987,0.7317,0.7142,0.6808,0.6437,0.6437,0.6437,0.6387,0.6387,0.6387,0.6387,0.6092,0.5691,0.519,0.9237,0.9655,1.018,1.0718,1.1427,1.2101,1.2676,1.3238,1.386,1.4606,1.5175,1.5794,1.6595,1.6812,1.7156,1.7765,1.8288,1.9369,0.0,0.0,2.2834,2.3101,2.263,2.2423,2.2555,2.1924,2.1507,2.1354,2.0695,2.0171,1.9792,1.91,1.8683,1.85,1.861,1.8599,1.8534,1.9104,1.9179,1.8871,1.8955,1.8757,1.831,1.7748,1.786,1.8178,1.7523,1.6935,1.651,1.6449,1.6111,1.5824,1.6703,0.0,0.0,0.0,0.0,0.0,0.0,0.0,0.0,0.0,0.0,0.0,0.0,0.0,0.0,0.0,0.0,0.0,0.0,0.0,0.0,1.9615,1.9292,1.8956,1.8978,1.8695,1.8293,1.7681,1.7582,1.7582,1.7582,1.7582,1.7582,1.7536,1.7272,1.7067,1.6961,1.643,1.5891,1.5292,1.4708,1.3732,1.2273,1.1896,1.1185,1.0147,1.0036,0.0,0.9206,0.8781,0.8361,0.7898,0.7504,0.7113,0.6742,0.6742,0.6589,0.6387,0.6387,0.6387,0.6387,0.6092,0.5942,0.5792,0.9185,0.9629,1.0154,1.0624,1.1242,1.1927,1.2603,1.3176,1.3776,1.4547,1.5142,1.5714,1.6297,1.6684,1.7023,1.7323,1.8584,0.0,0.0,2.2497,2.3135,2.3436,2.2903,2.2622,2.2705,2.2039,2.1505,2.1102,2.0693,2.0271,1.9851,1.9363,1.9265,1.9435,1.9389,1.9433,1.9556,1.9856,1.9832,1.9547,1.9661,1.9779,1.9831,1.9033,1.9036,1.9386,1.8854,1.8322,1.7839,1.7658,1.7411,1.7281,1.8043,1.8171,1.8073,0.0,0.0,0.0,0.0,0.0,0.0,0.0,0.0,0.0,0.0,0.0,0.0,0.0,0.0,2.095,2.1274,0.0,2.0843,2.1138,2.0767,2.0295,1.9937,1.9509,1.8893,1.7905,1.7799,1.7747,1.7635,1.7582,1.7582,1.7582,1.7483,1.7331,1.7232,1.6914,1.6424,1.5725,1.5405,1.4541,1.3083,1.2758,1.2105,1.0966,1.0802,1.0425,0.9899,0.9575,0.9148,0.857,0.8113,0.7651,0.7188,0.6892,0.6639,0.6387,0.6387,0.6387,0.6387,0.6239,0.6189,0.6139,0.9185,0.9577,1.0076,1.0539,1.1074,1.1678,1.2455,1.2987,1.361,1.443,1.504,1.5603,1.61,1.6656,1.7218,0.0,0.0,0.0,0.0,2.2724,2.3348,2.3782,2.3211,2.2945,2.3061,2.2387,2.174,2.1099,2.1099,2.079,2.0189,2.0082,2.0258,2.0688,2.0377,2.0414,2.0726,2.0704,2.0501,2.021,2.0444,2.0922,2.13,2.0473,2.0259,2.0323,1.9944,1.9462,1.8931,1.8596,1.8438,1.8476,1.8997,1.9097,1.9131,1.9551,1.9658,0.0,0.0,0.0,0.0,0.0,0.0,0.0,0.0,2.1497,2.165,2.2002,2.2193,2.2429,2.2657,2.2777,2.2742,2.2553,2.2171,2.1678,2.1006,2.0388,1.9628,1.8534,1.8174,1.7911,1.7694,1.7635,1.7582,1.7582,1.7582,1.7536,1.7279,1.7232,1.6855,1.6099,1.5945,1.5292,1.3943,1.3673,1.3024,1.1951,1.1678,1.1192,1.0621,1.05,1.0011,0.9271,0.865,0.8131,0.7633,0.7089,0.6742,0.6487,0.6487,0.6437,0.6387,0.6387,0.6387,0.6387,0.9185,0.9439,0.9803,1.0265,1.0794,1.1377,1.2051,1.2672,1.3328,1.4129,1.4777,1.5379,1.5957,1.6796,1.8006,1.9711,0.0,0.0,2.2435,2.3047,2.3508,2.3797,2.3453,2.3262,2.3262,2.2621,2.2217,2.214,2.214,2.2072,2.1915,2.1896,2.1831,2.1721,2.1565,2.1361,2.1146,2.1384,2.1207,2.0868,2.1576,2.2009,2.2168,2.2179,2.1879,2.1365,2.073,2.015,1.9649,1.9309,1.8988,1.8866,1.9503,1.9458,1.9384,2.0353,2.0531,2.0462,2.0849,2.1268,2.156,2.1412,2.2053,2.2663,0.0,2.2639,2.2921,2.2969,2.3098,2.3386,2.3752,2.3758,2.3853,2.4153,2.3615,2.2926,2.2367,2.1615,2.0806,1.9983,1.8736,1.7964,1.7964,1.7747,1.7582,1.7582,1.7582,1.7582,1.7582,1.7331,1.7014,1.6624,1.6152,1.5571,1.4874,1.46,1.4008,1.3098,1.3098,1.2489,1.1469,1.1333,1.0827,1.002,0.8896,0.8233,0.7889,0.7388,0.6992,0.6742,0.6742,0.6589,0.6387,0.6387,0.6387,0.6387,0.9159,0.9283,0.9491,0.9929,1.0488,1.1124,1.1877,1.2353,1.2953,1.3752,1.4385,1.5074,1.5961,1.7111,1.8389,1.984,2.0285,2.1146,2.2672,2.291,2.3363,2.417,2.3506,2.3182,2.3302,2.2624,2.2305,2.2305,2.2305,2.2301,2.2263,2.2263,2.242,2.2729,2.3006,2.3241,2.3422,2.3658,2.3475,2.3011,2.3022,2.3056,2.309,2.2879,2.2736,2.2506,2.1522,2.0858,0.0,0.0,1.9715,1.9514,2.0046,2.0033,2.0014,2.0881,2.1077,2.1106,2.1456,2.1993,2.2413,2.2282,2.2822,2.3355,2.314,2.3191,2.3276,2.3135,2.3582,2.4016,2.419,2.4602,2.4937,2.4952,2.4529,2.4035,2.3529,2.2728,2.192,2.1105,2.0078,1.9146,1.8325,1.801,1.7747,1.7635,1.7582,1.7582,1.7582,1.7483,1.7325,1.7008,1.6577,1.6099,1.5517,1.5256,1.4773,1.4067,1.3875,1.3425,1.2717,1.2496,1.1867,1.0965,0.9801,0.8977,0.8432,0.7885,0.7437,0.7042,0.6842,0.6742,0.6589,0.6437,0.6387,0.6387,0.9133,0.9211,0.9316,0.974,1.0154,1.0744,1.1544,1.2017,1.2573,1.3448,1.4108,1.5026,1.6416,1.7569,1.8667,1.9764,2.0167,2.097,2.2387,2.2729,2.3308,2.4341,2.3973,2.3751,2.3795,2.3359,2.3117,2.3117,2.3117,2.3225,2.3394,2.3409,2.3686,2.4164,2.4587,2.4991,2.5332,2.5413,2.5134,2.4653,2.4309,2.4035,2.3793,2.3478,2.3402,2.333,2.2292,2.162,0.0,0.0,2.0528,2.0281,2.0455,2.0441,2.0445,2.1002,2.1271,2.1497,2.1953,2.2484,2.291,2.3002,2.3446,2.3841,2.3624,2.358,2.3537,2.3319,2.3865,2.4369,2.4496,2.5086,2.5489,2.5411,2.5186,2.4833,2.4381,2.3678,2.2929,2.2131,2.131,2.0328,1.899,1.8429,1.801,1.7747,1.7635,1.7582,1.7582,1.7582,1.7529,1.7331,1.7008,1.663,1.6152,1.5844,1.5422,1.4821,1.4573,1.417,1.372,1.3302,1.262,1.1785,1.085,0.9965,0.9221,0.8676,0.8084,0.7487,0.7241,0.7042,0.6892,0.6589,0.6487,0.6387,0.9133,0.9211,0.9316,0.974,0.9825,1.0128,1.0998,1.1569,1.2289,1.3352,1.4088,1.5325,1.7503,1.8245,1.8957,1.9914,2.0497,2.0968,2.1426,2.2602,2.3517,2.4078,2.5088,2.5432,2.5046,2.5161,2.5204,2.5204,2.5204,2.5542,2.6173,2.6241,2.6294,2.6287,2.625,2.6198,2.6153,2.5886,2.5514,2.5102,2.5279,2.4847,2.4095,2.4226,2.3972,2.3509,2.2891,0.0,0.0,0.0,2.1388,2.1008,2.0679,2.0485,2.0412,2.0494,2.0942,2.1607,2.2531,2.2981,2.3247,2.3442,2.3859,2.411,2.3841,2.3797,2.3797,2.3797,2.3939,2.4241,2.4713,2.4982,2.5225,2.5615,2.544,2.5186,2.4932,2.443,2.3786,2.2979,2.2173,2.1259,2.013,1.9049,1.8272,1.8016,1.7747,1.7582,1.7582,1.7582,1.7582,1.7582,1.7331,1.7014,1.6677,1.6424,1.601,1.5482,1.5206,1.478,1.4265,1.3473,1.2861,1.2322,1.178,1.1096,1.031,0.976,0.9069,0.8333,0.8088,0.764,0.7138,0.6892,0.6639,0.6387,0.9159,0.9452,0.9728,0.997,1.0263,1.0652,1.1146,1.1499,1.2034,1.299,1.4535,0.0,0.0,0.0,0.0,0.0,1.9875,2.0527,2.1466,2.2222,2.3094,2.4122,2.4849,2.5316,2.5493,2.5772,2.5944,2.6026,2.6026,2.6149,2.6364,2.638,2.6402,2.6449,2.7319,2.7632,2.7559,2.8287,2.8269,2.7736,2.7483,2.6679,2.5601,2.5217,2.4544,2.373,0.0,0.0,0.0,2.2235,2.1932,2.1596,2.1514,2.1345,2.1252,2.1599,2.2056,2.2493,2.2665,2.3065,2.3428,2.3492,2.3939,2.4325,2.411,2.4067,2.4024,2.3841,2.4105,2.4411,2.4571,2.5145,2.5543,2.5502,2.5672,2.5713,2.5489,2.5137,2.4587,2.3777,2.3129,2.2274,2.1011,1.9724,1.8698,1.8069,1.7911,1.7799,1.7635,1.7582,1.7582,1.7582,1.7331,1.7173,1.7008,1.6537,1.6131,1.5743,1.514,1.4636,1.4264,1.3856,1.3539,1.3346,1.2516,1.1883,1.1389,1.0502,0.9764,0.9118,0.8528,0.8035,0.769,0.7238,0.6989,0.6886,0.9332,0.9614,0.9928,1.023,1.0533,0.0,0.0,0.0,0.0,0.0,0.0,0.0,0.0,0.0,0.0,0.0,0.0,1.9975,2.0901,2.1625,2.2614,2.3881,2.4715,2.535,2.5819,2.6218,2.6489,2.6704,2.6704,2.6834,2.7103,2.7103,2.7226,2.7503,2.8317,2.8765,2.895,2.9561,2.9549,2.9042,2.8553,2.7683,2.6653,2.6004,2.5252,0.0,0.0,0.0,0.0,2.277,2.2469,2.2322,2.2199,2.2133,2.2237,2.2897,2.3116,2.3172,2.3304,2.3442,2.3647,2.3917,2.4199,2.4386,2.4456,2.4368,2.4239,2.411,2.4247,2.4456,2.4573,2.5154,2.5595,2.5558,2.5861,2.6052,2.5868,2.5635,2.5186,2.448,2.3926,2.3079,2.1827,2.0712,1.9576,1.8541,1.8174,1.7911,1.7747,1.7635,1.7582,1.7582,1.743,1.7279,1.7179,1.6808,1.6348,1.5766,1.5026,1.457,1.4298,1.4112,1.3973,1.3883,1.3201,1.271,1.2322,1.1487,1.0797,1.0252,0.932,0.873,0.8333,0.7736,0.7441,0.7291,0.9562,0.9729,0.9925,0.0,0.0,0.0,0.0,0.0,0.0,0.0,0.0,0.0,0.0,0.0,0.0,0.0,0.0,0.0,1.9721,2.0888,0.0,2.3368,2.4681,2.5603,2.6084,2.6559,2.6928,2.7199,2.7215,2.7599,2.8348,2.8363,2.8686,2.929,2.9235,2.9541,3.011,2.9729,2.9406,2.909,2.8498,2.7877,2.7255,2.6593,0.0,0.0,0.0,0.0,0.0,2.3405,2.3074,2.3165,2.2849,2.294,2.3337,2.4283,2.4059,2.3649,2.4354,2.4158,2.3923,2.463,2.4519,2.4367,2.4808,2.4743,2.454,2.454,2.4378,2.4329,2.4703,2.5037,2.5365,2.5722,2.5994,2.61,2.61,2.5868,2.5489,2.4981,2.448,2.3728,2.2677,2.1818,2.0814,1.948,1.8593,1.8069,1.8016,1.7747,1.7635,1.7582,1.7582,1.7483,1.7232,1.7199,1.6593,1.5487,1.4972,1.4558,1.4298,1.4298,1.416,1.3931,1.3931,1.3588,1.3098,1.2613,1.2127,1.1541,1.0511,0.9764,0.9167,0.8382,0.7892,0.7593,0.0,0.0,0.0,0.0,0.0,0.0,0.0,0.0,0.0,0.0,0.0,0.0,0.0,0.0,0.0,0.0,0.0,0.0,1.8792,2.0432,0.0,0.0,0.0,2.5531,2.6093,2.65,0.0,0.0,0.0,2.745,2.7655,2.7765,2.7856,2.794,2.8873,2.9262,2.9269,2.9971,3.0075,2.9792,0.0,2.851,2.768,0.0,0.0,0.0,0.0,0.0,0.0,2.443,2.4457,2.4589,2.4621,2.4873,2.5169,2.5299,2.5196,2.5027,2.4884,2.4588,2.439,2.4859,2.4781,2.4771,2.522,2.52,2.4999,2.4828,2.4786,2.4689,2.4598,2.5224,2.57,2.5595,2.603,2.6352,2.6149,2.5868,2.5586,2.5235,2.4883,2.4332,2.3479,2.2677,2.1818,2.0865,1.9687,1.875,1.8318,1.8062,1.7799,1.7635,1.7582,1.7582,1.7483,1.6852,1.6202,1.5487,1.4973,1.4563,1.4298,1.4298,1.425,1.4208,1.3979,1.3835,1.3642,1.3152,1.2613,1.2127,1.1438,1.0752,1.001,0.9414,0.8874,0.8432,0.0,0.0,0.0,0.0,0.0,0.0,0.0,0.0,0.0,0.0,0.0,0.0,0.0,0.0,0.0,0.0,0.0,0.0,0.0,1.9975,0.0,0.0,0.0,2.4596,2.5453,2.5973,0.0,0.0,0.0,0.0,0.0,2.7163,2.731,2.7556,2.8155,2.85,2.8667,0.0,0.0,0.0,0.0,0.0,0.0,0.0,0.0,0.0,0.0,0.0,2.5569,2.5602,2.5438,2.5282,2.5762,2.6026,2.6138,2.6302,2.5979,2.5601,2.5556,2.4885,2.4414,2.521,2.5008,2.48,2.5523,2.5411,2.5158,2.4946,2.4903,2.4818,2.454,2.5275,2.584,2.5704,2.631,2.6669,2.6324,2.6133,2.5849,2.5508,2.5235,2.4833,2.4282,2.3628,2.2929,2.2224,2.0498,1.9272,1.8795,1.8279,1.7911,1.7799,1.7635,1.7522,1.7447,1.6693,1.6103,1.5656,1.4989,1.464,1.4496,1.4346,1.4298,1.4298,1.416,1.407,1.4022,1.3636,1.3298,1.3001,1.2224,1.1585,1.0998,1.0256,0.9612,0.9069,0.0,0.0,0.0,0.0,0.0,0.0,0.0,0.0,0.0,1.2799,1.3527,1.4284,1.5195,1.5714,0.0,0.0,0.0,0.0,0.0,0.0,0.0,0.0,0.0,2.3301,2.4414,2.505,2.5522,0.0,0.0,0.0,0.0,0.0,0.0,0.0,0.0,0.0,0.0,0.0,0.0,0.0,0.0,0.0,0.0,0.0,0.0,0.0,0.0,0.0,2.6521,2.6658,2.6166,2.5647,2.646,2.6629,2.6568,2.7105,2.6539,2.5812,2.613,2.5161,2.4378,2.5591,2.5189,2.4745,2.5718,2.5591,2.5242,2.4988,2.4946,2.4861,2.454,2.5275,2.5875,2.5875,2.651,2.688,2.6547,2.6398,2.6162,2.5732,2.5489,2.5235,2.4981,2.448,2.3985,2.3429,2.1353,1.9939,1.9524,1.8646,1.8122,1.8016,1.7759,1.746,1.7206,1.6625,1.6179,1.5911,1.5156,1.4783,1.4688,1.4442,1.4346,1.4298,1.4298,1.4298,1.4298,1.407,1.3931,1.3786,1.2958,1.2419,1.2029,1.1047,1.0355,0.9756,0.0,0.0,0.0,0.0,0.0,0.0,0.0,0.0,0.0,0.0,0.0,0.0,0.0,0.0,0.0,0.0,0.0,0.0,0.0,0.0,0.0,2.0598,2.1668,2.2511,2.311,2.3669,2.4034,2.4224,2.4639,0.0,0.0,0.0,0.0,0.0,0.0,0.0,0.0,0.0,0.0,0.0,0.0,0.0,0.0,0.0,0.0,0.0,0.0,2.6361,0.0,0.0,2.6587,2.6515,2.6832,2.6938,2.693,2.7019,2.6799,2.6451,2.6277,2.5625,2.5207,2.5759,2.541,2.512,2.5967,2.5948,2.5644,2.5242,2.5158,2.5031,2.4583,2.5275,2.5875,2.5875,2.6302,2.6587,2.6506,2.6093,2.5771,2.5703,2.5635,2.5538,2.5235,2.4941,2.4529,2.3985,2.297,2.1861,2.0688,1.962,1.875,1.8016,1.7725,1.7465,1.7199,1.662,1.6173,1.5911,1.5534,1.5118,1.4688,1.464,1.4496,1.4298,1.4298,1.4298,1.4298,1.425,1.4118,1.3883,1.369,1.3346,1.2856,1.2273,1.1731,1.1091,0.0,0.0,0.0,0.0,0.0,0.0,0.0,0.0,0.0,0.0,0.0,0.0,0.0,0.0,0.0,0.0,0.0,0.0,0.0,0.0,0.0,0.0,0.0,2.1479,2.207,2.247,2.2983,2.3588,0.0,2.4201,2.4558,2.4326,2.4197,2.412,2.4047,0.0,0.0,0.0,0.0,0.0,0.0,0.0,0.0,0.0,0.0,0.0,0.0,2.627,2.6361,0.0,2.6589,2.6624,2.6909,2.699,2.699,2.699,2.6659,2.6278,2.6227,2.5491,2.4933,2.5701,2.536,2.507,2.6008,2.5948,2.5644,2.5285,2.5115,2.4946,2.4583,2.5044,2.5616,2.5844,2.6241,2.6496,2.6496,2.6409,2.6191,2.5742,2.5937,2.5937,2.5557,2.5382,2.5137,2.4735,2.4134,2.307,2.1607,2.0388,1.9184,1.8043,1.7897,1.7465,1.675,1.6462,1.6144,1.584,1.5606,1.535,1.5118,1.4981,1.4838,1.4742,1.4742,1.464,1.4496,1.4496,1.4352,1.4064,1.3931,1.3738,1.3443,1.2953,1.2467,1.1878,0.0,0.0,0.0,0.0,0.0,0.0,0.0,0.0,1.1826,1.258,1.2729,1.3123,1.4153,1.4641,0.0,0.0,0.0,0.0,0.0,0.0,0.0,0.0,0.0,2.0334,2.0933,0.0,0.0,2.2835,2.3099,0.0,0.0,0.0,0.0,0.0,2.2786,2.253,2.2463,0.0,0.0,0.0,0.0,2.4203,0.0,0.0,0.0,0.0,0.0,2.6015,2.6097,2.6292,2.6361,2.643,2.6752,2.6854,2.6875,2.6875,2.6456,2.5967,2.6005,2.5173,2.4508,2.5401,2.5138,2.4882,2.579,2.5728,2.5422,2.52,2.4988,2.4818,2.454,2.4879,2.5303,2.5689,2.6145,2.6403,2.6355,2.6596,2.6534,2.5771,2.6045,2.6113,2.5723,2.5693,2.5586,2.5391,2.4883,2.3877,2.2274,2.1148,1.9867,1.8477,1.826,1.7603,1.6468,1.6358,1.6114,1.5784,1.5635,1.554,1.5493,1.5267,1.5124,1.5083,1.5083,1.4987,1.479,1.4736,1.4592,1.4346,1.407,1.3979,1.3925,1.3443,1.305,1.2613,0.0,0.0,0.0,0.0,0.0,0.0,0.0,0.0,1.1564,1.2277,1.2458,1.2863,1.375,1.444,0.0,0.0,0.0,0.0,0.0,0.0,0.0,0.0,0.0,0.0,0.0,0.0,0.0,2.1029,2.1699,0.0,0.0,0.0,0.0,0.0,0.0,2.1321,2.1083,2.086,0.0,0.0,0.0,0.0,0.0,0.0,0.0,0.0,0.0,2.55,2.5688,2.5898,2.598,2.598,2.6201,2.6408,2.6568,2.6568,2.6371,2.6057,2.5511,2.5016,2.469,2.4775,2.4612,2.4585,2.5155,2.5242,2.52,2.4988,2.4903,2.4818,2.454,2.4879,2.5199,2.5241,2.5833,2.6137,2.5893,2.6066,2.6054,2.5742,2.5723,2.5732,2.5693,2.5693,2.5693,2.5693,2.5186,2.4183,2.2526,2.2123,2.1291,1.9876,1.9086,1.8174,1.6947,1.6436,1.6055,1.5784,1.5784,1.5683,1.5493,1.5493,1.5309,1.5083,1.5083,1.5083,1.5035,1.479,1.4688,1.464,1.4346,1.425,1.425,1.3925,1.3786,1.3636,0.0,0.0,0.0,0.0,0.0,0.0,0.0,0.0,1.1411,1.2034,1.2187,1.2456,1.3165,1.3832,0.0,0.0,0.0,0.0,0.0,0.0,0.0,0.0,0.0,0.0,0.0,0.0,1.9926,2.0734,2.1199,0.0,0.0,0.0,0.0,0.0,0.0,2.0584,2.0477,2.0377,0.0,0.0,0.0,0.0,0.0,0.0,0.0,0.0,0.0,0.0,2.4993,2.5276,2.5347,2.5382,2.5606,2.5793,2.6002,2.6258,2.6201,2.5949,2.5529,2.5128,2.4892,2.5115,2.5051,2.4984,2.5367,2.5338,2.5158,2.4946,2.4786,2.4625,2.4497,2.4652,2.4859,2.5137,2.5536,2.5854,2.6036,2.6292,2.6339,2.5995,2.6065,2.6025,2.5713,2.5693,2.5693,2.5693,2.5489,2.503,2.4233,2.3107,2.1816,2.0459,1.9572,1.8462,1.7191,1.6692,1.6305,1.6028,1.5879,1.5778,1.5683,1.5683,1.5642,1.5499,1.5499,1.5452,1.5309,1.5213,1.507,1.4885,1.464,1.4544,1.4496,1.4256,1.4022,1.3835,0.0,0.0,0.0,0.0,0.0,0.0,1.0744,1.0978,1.1316,1.1838,1.2026,1.2347,1.2963,1.3502,1.4034,1.4598,0.0,0.0,0.0,0.0,0.0,0.0,0.0,0.0,0.0,0.0,1.9114,2.008,2.0406,2.0891,0.0,0.0,2.117,2.1052,0.0,0.0,0.0,0.0,0.0,0.0,0.0,0.0,0.0,0.0,0.0,0.0,0.0,0.0,0.0,0.0,0.0,2.4623,2.4874,2.5087,2.5347,2.5723,2.5845,2.5756,2.5289,2.5038,2.4966,2.5169,2.5123,2.5131,2.5368,2.5253,2.5031,2.4828,2.4615,2.4497,2.4497,2.4497,2.4652,2.5117,2.5427,2.5742,2.6155,2.6524,2.6584,2.613,2.6241,2.6173,2.5713,2.5693,2.5693,2.5693,2.5693,2.5635,2.544,2.3929,2.2547,2.1309,2.0264,1.9098,1.7746,1.7185,1.6723,1.6312,1.6076,1.5879,1.5784,1.5784,1.5784,1.5784,1.5784,1.5737,1.5588,1.554,1.5404,1.5172,1.4933,1.479,1.4694,1.449,1.4256,1.4027,0.0,0.0,0.0,0.0,0.0,0.0,0.0,0.0,1.1321,1.1662,1.2096,1.2626,1.324,1.3589,1.3943,1.4284,0.0,0.0,0.0,0.0,0.0,0.0,0.0,0.0,0.0,0.0,1.8217,1.861,1.91,1.9608,2.0206,2.0235,2.013,1.9912,0.0,0.0,0.0,0.0,0.0,0.0,0.0,0.0,0.0,0.0,0.0,0.0,0.0,0.0,0.0,0.0,0.0,0.0,0.0,2.4335,2.4587,2.4898,2.5397,2.5567,2.457,2.4652,2.4925,2.4607,2.4673,2.4821,2.4883,2.4903,2.4818,2.454,2.4497,2.4497,2.4497,2.4497,2.4652,2.5117,2.5595,2.596,2.6155,2.6615,2.6709,2.6149,2.61,2.6014,2.5732,2.5693,2.5693,2.5693,2.5693,2.5693,2.5693,2.4676,2.3635,2.2603,2.1404,2.0125,1.8796,1.8056,1.7318,1.6581,1.6312,1.6076,1.5784,1.5784,1.5784,1.5784,1.5784,1.5784,1.5784,1.5588,1.5493,1.5452,1.522,1.4933,1.4688,1.4688,1.4544,1.425,0.0,0.0,0.0,0.0,0.0,0.0,0.0,0.0,1.1162,1.1458,1.1964,0.0,1.2889,0.0,0.0,0.0,0.0,0.0,0.0,0.0,0.0,0.0,0.0,0.0,0.0,0.0,0.0,1.7786,1.8186,1.8527,1.8718,1.9006,1.9149,1.9091,1.8902,1.8747,0.0,0.0,0.0,0.0,0.0,0.0,2.132,0.0,0.0,0.0,0.0,0.0,0.0,0.0,0.0,0.0,0.0,0.0,0.0,2.3935,2.4524,2.5185,2.5072,2.5174,2.5337,2.5267,2.5416,2.5491,2.5168,2.5115,2.4988,2.4583,2.4497,2.4497,2.4497,2.4497,2.4652,2.5117,2.5595,2.6154,2.6847,2.7198,2.7354,2.7252,2.6695,2.6153,2.5713,2.5693,2.5693,2.5693,2.5693,2.5605,2.5293,2.4643,2.4007,2.3346,2.2108,2.0968,2.0031,1.9301,1.8481,1.7613,1.7052,1.6487,1.6076,1.5879,1.5784,1.5784,1.5784,1.5784,1.5784,1.573,1.573,1.5683,1.5452,1.5309,1.5213,1.5029,1.479,1.4544,0.0,0.0,0.0,0.0,0.0,0.0,0.0,0.0,1.1223,1.1369,1.2037,0.0,0.0,0.0,0.0,0.0,0.0,0.0,0.0,0.0,0.0,0.0,0.0,0.0,0.0,1.6117,1.6492,1.6919,1.7164,1.7399,1.7642,1.7925,1.8126,1.8198,1.8092,1.8105,0.0,0.0,0.0,0.0,0.0,0.0,2.043,0.0,0.0,0.0,0.0,0.0,0.0,0.0,0.0,0.0,0.0,0.0,0.0,0.0,2.41,2.4653,2.4868,2.5172,2.5378,2.5347,2.5464,2.5549,2.5158,2.5073,2.4999,2.4583,2.4497,2.4497,2.4497,2.4642,2.491,2.5399,2.5844,2.6455,2.7386,2.7651,2.7695,2.7582,2.6784,2.6124,2.5713,2.5693,2.5693,2.5693,2.5693,2.5537,2.5135,2.4648,2.4208,2.3731,2.2593,2.1659,2.1033,2.0257,1.9492,1.8627,1.7792,1.7099,1.6494,1.6116,1.5879,1.5784,1.5784,1.5784,0.0,1.5784,1.5784,1.5778,1.5642,1.5588,1.5493,1.5309,1.5077,1.4838,0.0,0.0,0.0,0.0,0.0,0.0,0.0,0.0,0.0,0.0,0.0,0.0,0.0,0.0,0.0,0.0,0.0,0.0,0.0,0.0,0.0,0.0,0.0,0.0,0.0,1.5165,1.5567,1.6004,1.6004,1.6319,1.687,1.6911,1.7033,1.7318,1.7529,1.7732,0.0,0.0,0.0,0.0,1.9359,1.9527,0.0,0.0,0.0,0.0,0.0,0.0,0.0,0.0,0.0,0.0,0.0,0.0,0.0,0.0,0.0,0.0,0.0,2.4682,2.5158,2.4946,2.5031,2.5158,2.4946,2.4903,0.0,2.454,2.4497,2.4497,2.4497,2.4879,2.5334,2.5802,2.6314,2.6889,2.779,2.7906,2.777,2.7269,2.6593,2.6033,2.5742,2.5684,2.5693,2.5693,2.5664,2.5498,2.5086,2.4609,2.418,2.376,2.2907,2.2255,2.1784,2.1078,2.0357,1.9583,1.8673,1.7846,1.7044,1.6494,1.6123,1.5832,1.5832,1.5784,1.5784,1.5784,1.5784,1.5784,1.5784,1.5689,1.554,1.554,1.5356,1.5077,0.0,0.0,0.0,0.0,0.0,0.0,0.0,0.0,0.0,0.0,0.0,0.0,0.0,0.0,0.0,0.0,0.0,0.0,0.0,0.0,0.0,0.0,0.0,0.0,0.0,1.474,1.4901,1.5033,1.5249,1.5492,1.576,1.5933,1.6147,1.6409,1.6599,0.0,0.0,0.0,0.0,0.0,1.8505,1.8745,0.0,0.0,0.0,0.0,1.9942,2.0216,0.0,0.0,0.0,0.0,0.0,0.0,0.0,0.0,2.3492,2.4171,2.4224,0.0,2.5158,2.4946,2.5031,2.5158,0.0,2.4903,2.4818,2.454,2.4497,2.4497,2.4497,2.4879,2.5334,2.5802,2.6314,2.6889,2.779,2.8037,2.7991,2.7535,2.6951,2.6408,2.6033,2.583,2.5693,2.5693,2.542,2.5029,2.459,2.417,2.374,2.3257,2.3062,2.2794,2.253,2.2167,2.1535,2.0628,1.9849,1.8896,1.78,1.7138,1.6534,1.6076,1.5879,1.5784,1.5784,1.5784,1.5784,1.5784,1.5784,1.5784,1.573,1.573,1.5594,1.5404,0.0,0.0,0.0,0.0,0.0,0.0,0.0,0.0,0.0,0.0,0.0,0.0,0.0,0.0,0.0,0.0,0.0,0.0,0.0,0.0,0.0,0.0,0.0,0.0,0.0,1.437,1.4447,1.4566,1.4699,1.495,1.5242,1.5367,1.5541,1.5797,1.5989,0.0,0.0,0.0,0.0,0.0,1.7754,0.0,0.0,0.0,0.0,0.0,1.935,1.9745,0.0,2.0372,2.0527,2.0644,0.0,0.0,0.0,0.0,2.3317,2.4024,2.4163,2.454,2.4871,2.4743,2.4786,2.4871,2.4743,2.47,2.4658,2.454,2.4497,2.4559,2.4776,2.5179,2.5678,2.6123,2.6625,2.7127,2.7821,2.7994,2.7967,2.7613,2.7116,2.6661,2.6324,2.6062,2.5868,2.5868,2.5408,2.4883,2.4443,2.4014,2.3584,2.311,2.3091,2.3047,2.2925,2.2706,2.2264,2.1624,2.0808,1.9894,1.8896,1.7932,1.7145,1.6541,1.6163,1.5927,1.5784,1.5784,1.5784,1.5784,1.5784,1.5784,1.5784,1.5784,1.573,1.5635,0.0,0.0,0.0,0.0,0.0,0.0,0.0,0.0,0.0,0.0,0.0,0.0,0.0,0.0,0.0,0.0,0.0,0.0,0.0,0.0,0.0,0.0,0.0,0.0,1.4088,1.4088,1.4159,1.4356,1.4398,1.4615,1.5048,1.5082,1.5215,1.5431,1.5582,0.0,0.0,0.0,0.0,1.6412,1.7077,0.0,0.0,0.0,0.0,0.0,0.0,0.0,0.0,2.0147,2.0372,2.0635,2.0976,0.0,0.0,0.0,0.0,0.0,2.4046,2.4335,2.4518,2.459,2.4652,2.4726,2.4654,2.4686,2.4666,2.4636,2.4677,2.4854,2.5238,2.5737,2.6204,2.6599,2.7009,2.7444,2.7769,2.7821,2.7772,2.7588,2.7173,2.6794,2.6602,2.6294,2.6119,2.6001,2.5405,2.4832,2.4346,2.3916,2.3525,2.311,2.3091,2.3091,2.3091,2.2925,2.2706,2.2441,2.1624,2.0808,2.0031,1.8904,1.7932,1.7138,1.6588,1.6163,1.5879,1.5832,1.5784,1.5784,1.5784,1.5784,1.5784,1.5784,1.5784,1.5784,0.0,0.0,0.0,0.0,0.0,0.0,0.0,0.0,0.0,0.0,0.0,0.0,0.0,0.0,0.0,0.0,0.0,0.0,0.0,0.0,0.0,0.0,0.0,1.4342,1.4088,1.4088,1.413,1.4166,1.4321,1.4524,1.4783,1.4999,1.5215,1.5389,1.5423,1.5465,1.5514,0.0,1.5981,1.6244,1.661,0.0,0.0,0.0,0.0,0.0,0.0,0.0,0.0,1.9784,2.0137,2.0391,2.0605,0.0,0.0,0.0,0.0,0.0,2.375,2.4196,2.459,2.4983,2.5399,2.5664,2.5455,2.5415,2.5387,2.5158,2.5391,2.5697,2.5772,2.6357,2.6829,2.6949,2.715,2.733,2.7392,2.7413,2.7365,2.7365,2.7075,2.69,2.6853,2.6602,2.6192,2.5632,2.5149,2.4575,2.3906,2.3477,2.3169,2.3091,2.3091,2.3091,2.3091,2.3057,2.2969,2.2706,2.2353,2.1713,2.0808,1.9985,1.8988,1.7893,1.7185,1.6588,1.6123,1.5879,1.5784,1.5784,1.5784,1.5784,1.5784,1.5784,1.5784,1.5784,0.0,0.0,0.0,0.0,0.0,0.0,0.0,0.0,0.0,0.0,0.0,0.0,0.0,0.0,0.0,0.0,0.0,0.0,0.0,0.0,0.0,0.0,1.4836,1.4549,1.4095,1.4088,1.4088,1.4088,1.4208,1.4405,1.4692,1.5082,1.5305,1.5389,1.5389,1.5389,1.5431,1.5499,1.5732,1.605,0.0,0.0,0.0,0.0,0.0,0.0,0.0,0.0,0.0,0.0,1.9902,2.0342,2.0527,0.0,0.0,0.0,0.0,0.0,2.3677,2.4326,2.5026,2.5659,2.5654,2.5578,2.5887,2.5986,2.5967,2.603,2.6201,2.6381,2.6615,2.6837,2.7043,2.7144,2.7222,2.7309,2.7309,2.7309,2.7309,2.7309,2.7167,2.7129,2.7129,2.6618,2.6205,2.5899,2.5107,2.4456,2.3978,2.3555,2.3232,2.3091,2.3091,2.3091,2.3091,2.3091,2.3047,2.2969,2.2706,2.2299,2.1722,2.0898,1.9903,1.8804,1.7978,1.7145,1.6407,1.6123,1.5927,1.5784,1.5784,1.5784,1.5784,1.5784,1.5784,1.5784,0.0,0.0,0.0,0.0,0.0,0.0,0.0,0.0,0.0,0.0,0.0,0.0,0.0,0.0,0.0,0.0,0.0,0.0,0.0,0.0,0.0,0.0,0.0,0.0,1.4095,1.4088,1.4088,1.4088,1.4166,1.437,1.4783,1.5294,1.5498,1.5498,1.5498,1.5498,1.5498,1.5498,1.5731,1.6045,0.0,0.0,0.0,0.0,0.0,0.0,0.0,0.0,0.0,0.0,0.0,0.0,0.0,0.0,0.0,2.1728,2.2453,2.3199,2.3743,2.4495,2.5303,2.6072,2.596,2.5816,2.652,2.6695,2.6753,2.7048,2.7169,2.7308,2.7597,2.7437,2.7232,2.7295,2.7309,2.7309,2.7309,2.7309,2.7309,2.7309,2.7309,2.7309,2.7309,2.6707,2.6222,2.6074,2.5138,2.442,2.4033,2.3726,2.345,2.3188,2.3188,2.3144,2.3091,2.3091,2.3091,2.3091,2.2925,2.275,2.2485,2.1668,2.0808,1.9803,1.8858,1.7893,1.6911,1.6501,1.6123,1.5879,1.5825,1.5784,1.5784,1.5784,1.5784,1.5784,0.0,0.0,0.0,0.0,0.0,0.0,0.0,0.0,0.0,0.0,0.0,0.0,0.0,0.0,0.0,0.0,0.0,0.0,0.0,0.0,0.0,0.0,0.0,0.0,1.4095,1.4088,1.4088,1.4088,1.4279,1.4615,1.509,1.561,1.5877,1.5877,1.5877,1.5877,1.5877,1.5877,1.606,1.6404,1.6734,0.0,0.0,0.0,0.0,0.0,0.0,0.0,0.0,0.0,0.0,0.0,0.0,0.0,2.082,2.1631,2.2244,2.2867,2.3886,2.456,2.5104,2.5968,2.656,2.7049,2.7709,2.7902,2.794,2.8227,2.8487,2.8656,2.869,2.8259,2.7767,2.7347,2.7309,2.7309,2.7309,2.7309,2.7309,2.7309,2.7309,2.7309,2.7309,2.6848,2.6311,2.5691,2.5166,2.4554,2.3868,2.3807,2.3667,2.3503,2.346,2.3363,2.3091,2.3091,2.3091,2.3091,2.3101,2.2969,2.2759,2.2441,2.1758,2.0862,1.9849,1.885,1.79,1.6965,1.64,1.617,1.5879,1.5784,1.5784,1.5784,1.5784,1.5784,0.0,0.0,0.0,0.0,0.0,0.0,0.0,0.0,0.0,0.0,0.0,0.0,0.0,0.0,0.0,0.0,0.0,0.0,0.0,0.0,0.0,0.0,0.0,1.4382,1.4095,1.4088,1.4088,1.4088,1.4447,1.4796,1.5163,1.5684,1.6016,1.6184,1.6001,1.5913,1.5913,1.5913,1.6089,1.6441,1.6771,1.6903,0.0,0.0,0.0,0.0,0.0,0.0,0.0,0.0,1.8585,1.932,0.0,2.0216,2.0624,2.1631,2.2215,2.2827,2.3919,2.4529,2.5136,2.6174,2.6693,2.7205,2.8209,2.8675,2.9024,2.9453,2.95,2.933,2.8862,2.8637,2.8279,2.7584,2.7499,2.7441,2.7309,2.7309,2.7309,2.7309,2.705,2.6874,2.6874,2.6165,2.5623,2.5379,2.4936,2.4467,2.4077,2.4067,2.3937,2.3667,2.359,2.345,2.3373,2.3188,2.3091,2.3091,2.3091,2.3057,2.2969,2.275,2.2211,2.1392,2.0529,1.9583,1.8481,1.7645,1.6951,1.64,1.5974,1.5784,1.5784,1.5784,1.5784,1.5784,0.0,0.0,0.0,0.0,0.0,0.0,0.0,0.0,0.0,0.0,0.0,0.0,0.0,0.0,0.0,0.0,0.0,0.0,0.0,0.0,0.0,0.0,0.0,1.4289,1.4088,1.4088,1.4088,1.4088,1.4489,1.4803,1.5056,1.5742,1.617,1.6404,1.6148,1.606,1.606,1.606,1.6177,1.6448,1.6881,1.6899,0.0,0.0,0.0,0.0,0.0,0.0,0.0,0.0,1.7942,1.8785,0.0,0.0,2.0611,2.1588,2.2314,2.2998,2.3959,2.4572,2.5264,2.6506,2.7166,2.7845,2.9087,2.9543,2.9874,3.0621,3.0544,3.0102,2.9393,2.9117,2.8746,2.7961,2.7867,2.7731,2.7348,2.7233,2.7134,2.6978,2.663,2.6397,2.6397,2.5668,2.5189,2.5189,2.4766,2.4454,2.4282,2.4292,2.4196,2.3927,2.3721,2.3547,2.3503,2.3232,2.3091,2.3091,2.3091,2.3091,2.3091,2.2969,2.2564,2.2015,2.1257,2.0348,1.9301,1.8427,1.7458,1.6541,1.6116,1.5879,1.5784,1.5784,1.5784,1.5784,0.0,0.0,0.0,0.0,0.0,0.0,0.0,0.0,0.0,0.0,0.0,0.0,0.0,0.0,0.0,0.0,0.0,0.0,0.0,0.0,0.0,0.0,0.0,1.4088,1.4088,1.4088,1.4088,1.4088,1.4489,1.4692,1.4713,1.5843,1.6411,1.6411,1.6411,1.6411,1.6411,1.6411,1.6411,1.6463,1.7062,1.695,1.6464,0.0,0.0,0.0,0.0,0.0,0.0,0.0,1.7294,1.8167,1.9024,0.0,0.0,2.1644,2.2522,2.333,2.4041,2.47,2.5519,2.6975,2.8054,2.916,3.0575,3.0497,3.0454,3.1736,3.1649,3.1083,3.0352,2.9795,2.9255,2.8524,2.8384,2.8129,2.7391,2.7144,2.6816,2.6288,2.601,2.592,2.592,2.5482,2.5179,2.5179,2.4755,2.4497,2.4497,2.4497,2.4411,2.4206,2.3937,2.3711,2.3503,2.3232,2.3091,2.3091,2.3091,2.3091,2.3091,2.3091,2.3013,2.2759,2.2015,2.1293,2.0501,1.9301,1.7917,1.6588,1.6312,1.6028,1.5784,1.5784,1.5784,1.5784,0.0,0.0,0.0,0.0,0.0,0.0,0.0,0.0,0.0,0.0,0.0,0.0,0.0,0.0,0.0,0.0,0.0,0.0,0.0,0.0,0.0,0.0,0.0,0.0,0.0,0.0,1.4088,1.4088,1.4489,1.4803,1.507,1.5734,1.6162,1.6404,1.6148,1.6052,1.6052,1.6052,1.6052,1.6082,1.6491,1.6467,1.609,0.0,0.0,0.0,0.0,0.0,0.0,0.0,0.0,0.0,1.8959,0.0,0.0,2.1777,2.2506,2.317,2.3998,2.4583,2.5317,2.6731,2.7762,2.8857,3.0534,3.1187,3.152,3.1909,3.1901,3.1637,3.1071,3.0398,2.9742,2.9206,2.8489,2.7921,2.7555,2.7187,2.6864,2.6715,2.6229,2.5885,2.5885,2.5343,2.4995,2.4995,2.4698,2.4497,2.4497,2.4497,2.4454,2.4411,2.4196,2.398,2.3711,2.3493,2.3276,2.3091,2.3091,2.3091,2.3091,2.3091,2.3013,2.2803,2.2388,2.1891,2.1248,1.9704,1.8419,1.7326,1.6723,1.6312,1.6076,1.5879,1.5784,1.5784,0.0,0.0,0.0,0.0,0.0,0.0,0.0,0.0,0.0,0.0,0.0,1.3908,0.0,0.0,0.0,0.0,0.0,0.0,0.0,0.0,0.0,0.0,0.0,0.0,0.0,1.4088,1.4088,0.0,0.0,1.4789,1.5021,1.5633,1.6016,1.6177,1.6001,1.5913,1.5913,1.5913,1.5913,1.5943,1.6287,1.6118,1.5637,0.0,0.0,0.0,0.0,0.0,0.0,0.0,0.0,0.0,1.8684,0.0,2.0582,2.1707,2.2465,2.3123,2.3867,2.4444,2.5317,2.7016,2.8114,2.9312,3.1327,3.213,3.2376,3.2155,3.2019,3.1785,3.1146,3.0587,3.0059,2.9561,2.8971,2.8405,2.7899,2.7542,2.7183,2.6953,2.6399,2.6001,2.6001,2.5487,2.5158,2.5158,2.4828,2.4658,2.4658,2.454,2.4497,2.4497,2.4282,2.4067,2.3797,2.358,2.3373,2.3091,2.3091,2.3091,2.3091,2.3091,2.3047,2.2882,2.2574,2.2069,2.1481,2.0167,1.9026,1.8056,1.7326,1.677,1.6312,1.6076,1.5879,1.5784,0.0,0.0,1.322,1.3247,0.0,0.0,0.0,0.0,0.0,1.3646,1.362,1.36,0.0,0.0,0.0,1.4021,0.0,0.0,0.0,0.0,0.0,0.0,0.0,0.0,0.0,0.0,0.0,0.0,0.0,1.4692,1.4699,1.5511,1.587,1.587,1.587,1.587,1.587,1.587,1.587,1.5899,1.617,1.5842,1.5161,1.5161,0.0,0.0,0.0,0.0,0.0,0.0,0.0,0.0,1.823,1.9305,2.0333,2.1441,2.2409,2.3188,2.3667,2.4305,2.537,2.7478,2.8844,3.0276,3.2511,3.3006,3.2855,3.2328,3.2022,3.1625,3.091,3.055,3.0223,2.9726,2.9594,2.9236,2.8367,2.8071,2.7713,2.7113,2.661,2.6351,2.6321,2.5904,2.5611,2.5569,2.52,2.4946,2.4903,2.4658,2.454,2.4497,2.4335,2.411,2.3841,2.3624,2.3406,2.3144,2.3091,2.3091,2.3091,2.3091,2.3091,2.3091,2.2662,2.2078,2.1445,2.069,1.982,1.8834,1.8056,1.7326,1.6683,1.6359,1.6123,1.5872,0.0,0.0,1.328,1.3467,0.0,0.0,0.0,0.0,1.3988,1.3988,1.3746,1.36,1.36,1.34,0.0,1.3673,1.3193,0.0,0.0,0.0,0.0,0.0,0.0,0.0,0.0,0.0,0.0,0.0,0.0,1.4692,1.4692,1.5238,1.5491,1.5491,1.5491,1.5491,1.5491,1.5491,1.5491,1.5498,1.5606,1.5289,1.4796,1.4796,1.4509,0.0,0.0,0.0,0.0,0.0,0.0,0.0,1.8042,1.9231,2.0433,2.1443,2.2268,2.2979,2.346,2.4036,2.5027,2.6801,2.9242,3.1438,3.2229,3.2403,3.2365,3.224,3.1834,3.1455,3.1288,3.0723,3.0288,3.0154,2.9504,2.8895,2.8695,2.8362,2.8096,2.795,2.7661,2.7406,2.7226,2.6846,2.6434,2.6071,2.5611,2.5242,2.4903,2.4861,2.47,2.4497,2.4454,2.4325,2.411,2.3851,2.3624,2.3406,2.3188,2.3091,2.3091,2.3091,2.3091,2.3091,2.3003,2.2652,2.2122,2.1445,2.0583,1.9567,1.8611,1.7932,1.7394,1.6979,1.6643,1.64,0.0,0.0,0.0,0.0,0.0,0.0,0.0,0.0,1.3874,1.3874,1.3621,1.34,1.34,1.3166,0.0,0.0,1.3052,1.2851,0.0,0.0,0.0,0.0,0.0,0.0,0.0,0.0,0.0,0.0,1.4489,1.4692,1.4692,1.5166,1.5389,1.5389,1.5389,1.5389,1.5389,1.5389,1.5389,1.5389,1.5389,1.5124,1.4692,1.4692,1.4447,1.4128,1.4416,0.0,0.0,0.0,0.0,0.0,0.0,0.0,1.9857,2.1168,2.1989,2.2627,2.3329,2.3927,2.4909,2.7271,2.9427,3.1137,3.1891,3.1743,3.1449,3.1449,3.1223,3.0934,3.067,3.0315,3.0049,3.0049,2.9603,2.9248,2.9106,2.891,2.8724,2.8645,2.8435,2.8223,2.8115,2.7753,2.7389,2.6999,2.6475,2.5977,2.5569,2.5316,2.5031,2.47,2.47,2.454,2.4206,2.3927,2.3711,2.3503,2.3232,2.3091,2.3091,2.3091,2.3091,2.3091,2.3091,2.2925,2.253,2.1945,2.1221,2.0348,1.9446,1.8673,1.7986,1.7667,1.72,1.6784,0.0,0.0,0.0,0.0,0.0,0.0,0.0,0.0,0.0,1.368,1.3427,1.3267,1.322,1.2971,1.2891,0.0,0.0,0.0,1.2784,0.0,0.0,0.0,0.0,0.0,0.0,0.0,0.0,0.0,1.4489,1.4762,1.486,1.5294,1.5498,1.5549,1.5549,1.552,1.5469,1.5469,1.544,1.5389,1.5389,1.5124,1.4692,1.4692,1.4447,1.4128,1.4416,1.471,1.5055,1.5579,0.0,0.0,0.0,0.0,1.9072,2.0718,2.1588,2.222,2.3154,2.3868,2.5046,2.7788,2.9207,3.0218,3.128,3.1004,3.0543,3.0455,3.047,3.0331,2.988,2.9792,2.9792,2.9792,2.9792,2.9702,2.9509,2.947,2.9392,2.9248,2.9091,2.8961,2.891,2.8566,2.8247,2.7943,2.7366,2.6846,2.6351,2.5863,2.5411,2.4988,2.4903,2.47,2.4249,2.398,2.3754,2.3547,2.3222,2.3091,2.3091,2.3091,2.3091,2.3091,2.3091,2.3013,2.2803,2.2362,2.1722,2.1033,2.0374,1.95,1.8619,1.8404,1.7807,1.7167,0.0,0.0,0.0,0.0,0.0,0.0,0.0,0.0,0.0,0.0,1.3768,1.3447,1.324,1.2971,1.2804,1.2844,1.2569,1.2472,0.0,0.0,0.0,0.0,0.0,0.0,0.0,0.0,0.0,1.4088,1.4489,1.4965,1.5498,1.5719,1.5994,1.6287,1.6287,1.6096,1.5848,1.5848,1.5687,1.5389,1.5389,1.5124,1.4692,1.4692,1.4447,1.4128,1.4416,1.471,1.5055,1.5343,1.5785,0.0,0.0,0.0,1.8703,2.0056,2.1087,2.1926,2.2706,2.3991,2.549,2.6896,2.824,2.9364,2.9816,3.0121,3.0271,2.9966,2.9905,2.988,2.9804,2.9792,2.9792,2.9792,2.9792,2.9792,2.974,2.9753,2.9753,2.9702,2.9663,2.9573,2.9341,2.9118,2.8816,2.8419,2.7955,2.7406,2.6846,2.6351,2.5821,2.52,2.4988,2.4743,2.4454,2.4239,2.4024,2.3754,2.3309,2.3091,2.3091,2.3091,2.3091,2.3091,2.3091,2.3091,2.3013,2.2574,2.2069,2.1561,2.1033,2.0374,1.9646,1.9188,1.8589,1.79,0.0,0.0,0.0,0.0,0.0,0.0,0.0,0.0,0.0,0.0,0.0,1.3553,1.3427,1.3065,1.2784,1.2784,1.2472,0.0,0.0,0.0,0.0,0.0,0.0,0.0,0.0,0.0,0.0,1.4088,1.4703,1.5283,1.59,1.6404,1.6684,1.6808,1.6683,1.6521,1.6388,1.6037,1.579,1.5701,1.5701,1.5482,1.5198,1.5239,1.5042,1.4757,1.4767,1.485,1.5028,1.5156,1.5329,1.5626,1.6123,0.0,0.0,0.0,2.0074,2.1102,2.2585,2.372,2.4794,2.612,2.7041,2.7904,2.8822,2.9322,2.9623,2.9571,2.9702,2.9792,2.9792,2.9792,2.9792,2.9792,2.9792,2.9792,2.9792,2.9792,2.9792,2.9792,2.9792,2.974,2.965,2.9534,2.9378,2.904,2.8712,2.8275,2.7672,2.7092,2.6393,2.5611,2.5232,2.4914,2.4497,2.4282,2.4034,2.3624,2.3276,2.3091,2.3091,2.3091,2.3091,2.3091,2.3091,2.3091,2.3091,2.275,2.2432,2.2069,2.1722,2.1186,2.0456,2.0138,1.9455,1.8635,0.0,0.0,0.0,0.0,0.0,0.0,0.0,0.0,0.0,0.0,0.0,1.3686,1.3613,0.0,0.0,0.0,1.2583,0.0,0.0,0.0,0.0,0.0,0.0,0.0,0.0,0.0,1.4088,1.4088,1.4766,1.5453,1.6242,1.6885,1.7318,1.7509,1.7249,1.7078,1.698,1.6513,1.6277,1.6203,1.6168,1.5987,1.5792,1.5802,1.5575,1.5294,1.5129,1.5093,1.5115,1.5115,1.5115,1.5167,1.5611,1.5951,0.0,0.0,0.0,2.0579,2.245,2.3276,2.3911,2.515,2.5828,2.6576,2.7798,2.8469,2.8973,2.9263,2.9521,2.9702,2.9792,2.9792,2.9792,2.9792,2.9792,2.9792,2.9792,2.9792,2.9792,2.9792,2.9792,2.9792,2.9792,2.9792,2.9702,2.9509,2.9314,2.8922,2.8367,2.7672,2.6899,2.6019,2.5485,2.4988,2.4497,2.4239,2.3937,2.358,2.3232,2.3091,2.3091,2.3091,2.3091,2.3091,2.3091,2.3091,2.3101,2.2925,2.2706,2.2485,2.2362,2.1865,2.1221,2.0862,2.013,1.9271,0.0,0.0,0.0,0.0,0.0,0.0,0.0,0.0,0.0,0.0,0.0,1.3955,1.3633,1.3573,1.3367,1.2837,1.277,0.0,0.0,0.0,0.0,0.0,0.0,0.0,0.0,1.4088,1.4088,1.4088,1.451,1.5326,1.647,1.6919,1.7699,1.868,1.8218,1.7858,1.7552,1.7529,1.7339,1.7005,1.6844,1.658,1.6345,1.6064,1.5709,1.5294,1.5294,1.535,1.5378,1.5378,1.5378,1.5424,1.5706,1.5781,1.5931,0.0,0.0,0.0,2.2098,2.2784,2.3276,2.3774,2.4743,2.5748,2.6437,2.7452,2.8407,2.9013,2.9275,2.9509,2.974,2.9792,2.9792,2.9792,2.9792,2.9792,2.9792,2.9792,2.9792,2.9792,2.9792,2.9792,2.9792,2.9792,2.9792,2.9792,2.9521,2.9184,2.8803,2.7955,2.7062,2.6227,2.5527,2.4988,2.4497,2.4057,2.3797,2.3797,2.3319,2.3091,2.3091,2.3091,2.3091,2.3091,2.3091,2.3091,2.3091,2.3101,2.2969,2.2803,2.2759,2.2451,2.1963,2.1221,2.0492,1.9712,0.0,0.0,0.0,0.0,0.0,0.0,0.0,0.0,0.0,0.0,0.0,0.0,0.0,1.372,1.3513,1.334,1.3153,0.0,0.0,0.0,0.0,0.0,0.0,0.0,0.0,1.4088,1.4088,1.4088,1.4731,1.5405,1.611,1.7017,1.7792,1.8502,1.841,1.8349,1.8347,1.7984,1.7768,1.766,1.74,1.7139,1.6891,1.6694,1.6544,1.6324,1.5807,1.5631,1.5608,1.5275,1.5117,1.5135,1.4986,1.5079,1.5421,1.6657,1.8185,1.9783,2.1227,2.1947,2.2534,2.3381,2.4251,2.502,2.5527,2.6652,2.7684,2.7995,2.8593,2.904,2.9131,2.9495,2.9792,2.9792,2.9792,2.9792,2.9792,2.9792,2.9792,2.9792,2.9895,2.9972,2.9972,3.0113,3.0113,3.0011,2.9921,2.9599,2.9,2.8327,2.7563,2.6674,2.5832,2.5115,2.4497,2.4013,2.3797,2.3797,2.3309,2.3091,2.3091,2.3091,2.3091,2.3091,2.3091,2.3091,2.3091,2.3091,2.3057,2.3013,2.3013,2.2794,2.2495,2.1909,2.1132,2.0221,0.0,0.0,0.0,2.0246,0.0,1.8833,1.7731,1.6919,1.6152,1.5296,0.0,0.0,0.0,0.0,1.382,1.362,1.3333,1.3213,1.3213,0.0,0.0,0.0,0.0,0.0,0.0,1.4088,1.4088,1.4088,1.4738,1.5312,1.5813,1.6726,1.7486,1.8055,1.8411,1.8808,1.9171,1.8792,1.8643,1.859,1.8153,1.7796,1.7461,1.7213,1.7066,1.6904,1.6371,1.607,1.5896,1.5508,1.5281,1.5122,1.4877,1.4865,1.5137,1.6312,1.7405,1.8615,2.0205,2.1145,2.1883,2.2828,2.3687,2.438,2.4765,2.5768,2.6723,2.7103,2.7753,2.8315,2.8566,2.8973,2.9339,2.9611,2.974,2.9792,2.9792,2.9792,2.9792,2.9792,2.9972,3.0113,3.0113,3.0292,3.033,3.0113,3.0113,2.9805,2.9131,2.8538,2.7644,2.6467,2.5706,2.5031,2.4497,2.411,2.3894,2.3797,2.3406,2.3188,2.3091,2.3091,2.3091,2.3091,2.3091,2.3091,2.3091,2.3091,2.3091,2.3091,2.3091,2.3013,2.2838,2.2318,2.1499,2.0591,2.1042,2.1042,2.0952,2.0744,2.0376,1.9773,1.8712,1.7878,1.7101,1.6335,0.0,0.0,0.0,0.0,0.0,1.3686,1.3373,1.3253,1.3253,1.324,0.0,0.0,0.0,0.0,1.4082,1.4088,1.4088,1.4088,1.4489,1.4979,1.5598,1.607,1.6723,1.7533,1.8306,1.913,1.9906,1.9911,1.9911,1.9849,1.9096,1.855,1.804,1.7512,1.72,1.7026,1.6979,1.665,1.6224,1.6224,1.5839,1.5411,1.5398,1.519,1.5064,1.5784,1.6448,1.7352,0.0,0.0,0.0,2.1988,2.2985,2.381,2.4102,2.484,2.5653,2.6321,2.6816,2.7348,2.8007,2.8127,2.8447,2.9223,2.9573,2.9753,2.9792,2.9792,2.9792,2.9792,2.9972,3.0113,3.0113,3.0292,3.033,3.0113,3.0113,2.9805,2.9131,2.8498,2.7348,2.5569,2.5115,2.4786,2.4497,2.4282,2.4067,2.3797,2.358,2.3363,2.3091,2.3091,2.3091,2.3091,2.3091,2.3091,2.3091,2.3091,2.3091,2.3091,2.3091,2.3091,2.3013,2.2362,2.1642,2.0817,2.1508,2.1508,2.1419,2.1248,2.1114,2.0722,1.9791,1.9164,1.8483,0.0,0.0,0.0,1.5539,1.5103,1.4776,1.4609,1.4329,1.4155,1.4155,1.3961,1.3881,1.3961,1.3968,1.4001,1.4088,1.4088,1.4088,1.4088,1.4489,1.4867,1.5268,1.5967,1.6586,1.7122,1.7893,1.8758,1.967,2.0231,2.0382,2.0102,1.9371,1.8681,1.804,1.7512,1.7286,1.72,1.7073,1.6885,1.6697,1.6319,1.6116,1.5913,1.5511,1.528,1.5243,1.562,1.6067,1.6722,1.8134,0.0,0.0,0.0,0.0,0.0,2.3198,2.4069,2.484,2.5009,2.5684,2.631,2.6517,2.7051,2.7551,2.7782,2.8514,2.9157,2.947,2.9509,2.956,2.9792,2.9972,3.0113,3.0113,3.0292,3.033,3.0113,3.0113,2.9805,2.9131,2.8075,2.694,2.5853,2.5338,2.4914,2.4497,2.4282,2.4163,2.4067,2.3677,2.346,2.3363,2.3188,2.3091,2.3091,2.3091,2.3091,2.3091,2.3091,2.3091,2.3091,2.3091,2.3091,2.3057,2.253,2.1767,2.0853,2.1696,2.1696,2.1651,2.1571,2.1526,2.1292,2.0518,1.9974,1.9421,0.0,0.0,0.0,1.5989,1.5428,1.5091,1.5008,1.4803,1.4656,1.4529,1.4362,1.4215,1.4088,1.4088,1.4088,1.4088,1.4088,1.4088,1.4088,1.4489,1.4783,1.4957,1.5613,1.6166,1.6595,1.7397,1.8319,1.9345,2.0219,2.0508,2.0293,1.9708,1.9042,1.8319,1.7707,1.7481,1.7434,1.72,1.7066,1.6932,1.665,1.6414,1.6123,1.5584,1.5369,1.535,1.5438,1.5708,1.6205,1.7344,1.8226,1.9102,2.0227,0.0,0.0,2.2601,2.3348,2.3983,2.4166,2.4722,2.5232,2.5443,2.5988,2.6434,2.664,2.7255,2.8023,2.891,2.9157,2.9353,2.9599,2.9921,3.0113,3.0113,3.0292,3.033,3.0113,3.0113,2.9689,2.8776,2.7684,2.6663,2.5759,2.5285,2.4914,2.4497,2.4368,2.4282,2.4206,2.3807,2.359,2.3503,2.3232,2.3091,2.3091,2.3091,2.3091,2.3091,2.3091,2.3091,2.3091,2.3091,2.3091,2.3047,2.2564,2.1811,2.0862,0.0,2.1696,2.1696,2.1696,2.1696,2.1523,2.0983,2.0527,2.0078,0.0,1.8673,1.7538,1.6398,1.5788,1.5359,1.5147,1.5075,1.4903,1.4636,1.4556,1.4402,1.4142,1.4108,1.4088,1.4088,1.4088,1.4088,1.4088,1.4489,1.4692,1.4692,1.5208,1.5673,1.6144,1.6889,1.7854,1.8902,1.9996,2.0411,2.0359,2.005,1.95,1.8781,1.804,1.7768,1.7675,1.7426,1.72,1.7026,1.6979,1.6602,1.6129,1.5624,1.5444,1.5437,1.5364,1.548,1.5789,1.6669,1.7656,1.8617,1.9492,2.0616,0.0,2.2047,2.257,2.3047,2.3537,2.3851,2.4196,2.4605,2.4903,2.52,2.5642,2.5935,2.661,2.8139,2.8697,2.9,2.9263,2.9677,2.996,3.0037,3.0177,3.0216,3.0075,2.9998,2.9443,2.8259,2.733,2.6426,2.5538,2.5115,2.4786,2.4497,2.4497,2.4411,2.4249,2.3937,2.3711,2.3503,2.3232,2.3091,2.3091,2.3091,2.3091,2.3091,2.3091,2.3091,2.3091,2.3091,2.3091,2.3047,2.2564,2.1811,2.0862,2.1696,2.1696,2.1696,2.1696,2.1696,2.1668,2.1542,2.131,2.1043,2.0748,1.9468,1.8325,1.7502,1.6761,1.622,1.6,1.559,1.5284,1.5231,1.4783,1.4496,1.4436,1.4215,1.4088,1.4088,1.4088,1.4088,1.4088,1.4489,1.4692,1.4692,1.536,1.5831,1.6136,1.6603,1.7237,1.8055,1.9454,2.0088,2.0245,2.0241,1.9783,1.905,1.8542,1.8087,1.7675,1.7628,1.7481,1.7192,1.6824,1.6454,1.6163,1.5812,1.5698,1.5732,1.5725,1.5683,1.5769,1.6165,1.678,1.7412,1.7922,1.9075,0.0,2.0606,2.1377,2.2059,2.2353,2.275,2.3144,2.3396,2.3787,2.4186,2.4487,2.5031,2.5863,2.7267,2.7684,2.8047,2.8618,2.8882,2.9197,2.9509,2.9574,2.9677,2.9869,2.9365,2.8803,2.8219,2.7144,2.6238,2.5527,2.5115,2.4786,2.4497,2.4497,2.4497,2.4454,2.4013,2.3797,2.3711,2.3319,2.3091,2.3091,2.3091,2.3091,2.3091,2.3091,2.3091,2.3091,2.3091,2.3091,2.3047,2.2564,2.1811,2.0862,2.1696,2.1696,2.1696,2.1696,2.1696,2.1696,2.1696,2.1517,2.1347,2.1203,2.0138,1.908,1.8334,1.7598,1.7005,1.6643,1.6215,1.5877,1.5596,1.5312,1.503,1.4743,1.4603,1.4566,1.4566,1.4566,1.4566,1.4566,1.4993,1.5119,1.4972,1.5854,1.6279,1.6396,1.6964,1.771,1.8506,1.9701,2.0472,2.0879,2.0944,2.0637,2.0048,1.9446,1.8904,1.8411,1.8179,1.7854,1.7387,1.6817,1.6494,1.6305,1.5927,1.5784,1.5784,1.5784,1.5772,1.5805,1.6085,1.6469,1.6934,1.7327,1.8271,0.0,0.0,2.0399,2.1087,2.132,2.1611,2.1923,2.234,2.2732,2.314,2.3594,2.4133,2.4765,2.5611,2.6558,2.7348,2.7805,2.8247,2.8605,2.8922,2.9118,2.9353,2.956,2.9118,2.8514,2.7886,2.6899,2.6019,2.5359,2.4946,2.4625,2.4497,2.4497,2.4454,2.4325,2.397,2.3754,2.3634,2.3276,2.3091,2.3091,2.3091,2.3091,2.3091,2.3091,2.3091,2.3091,2.3091,2.3091,2.3047,2.2564,2.1811,2.0862,2.1696,2.1696,2.1696,2.1696,2.1696,2.1696,2.1696,2.1562,2.1437,2.1401,2.0678,1.9891,1.9222,1.8543,1.7933,1.753,1.7191,1.6779,1.6244,1.6081,1.5732,1.5199,1.5042,1.5008,1.5008,1.5008,1.5008,1.5008,1.5449,1.5539,1.5337,1.6389,1.6819,1.6741,1.7565,1.8422,1.9273,2.0252,2.0978,2.1577,2.1847,2.1615,2.1078,2.0348,1.9812,1.9279,1.8719,1.8179,1.7581,1.6918,1.6636,1.6494,1.5974,1.5784,1.5784,1.5784,1.5784,1.5832,1.6076,1.6312,1.6636,1.7005,1.7606,1.8234,0.0,0.0,0.0,1.9996,2.0227,2.0553,2.1166,2.1537,2.2016,2.2707,2.3266,2.3711,2.3937,2.5359,2.6517,2.6805,2.747,2.7966,2.8219,2.8697,2.9052,2.9223,2.8831,2.8235,2.7429,2.6569,2.5779,2.5158,2.47,2.4497,2.4497,2.4454,2.4368,2.4206,2.3894,2.3677,2.3503,2.3232,2.3091,2.3091,2.3091,2.3091,2.3091,2.3091,2.3091,2.3091,2.3091,2.3091,2.3047,2.2564,2.1811,2.0862,2.1696,2.1696,2.1696,2.1696,2.1696,2.1696,2.1696,2.1696,2.1607,2.1437,2.1188,2.0881,2.0361,1.9893,1.9547,1.9297,1.8825,1.8293,1.7713,1.6971,1.6313,1.5739,1.5239,1.5008,1.5008,1.5008,1.5008,1.5008,1.5449,1.5695,1.566,1.6617,1.7049,1.7062,1.8016,1.8724,1.929,2.0555,2.1376,2.1931,2.2655,2.2422,2.157,2.1078,2.0447,1.9712,1.8812,1.8179,1.7628,1.712,1.6784,1.6494,1.5974,1.5784,1.5784,1.5784,1.5784,1.5832,1.5832,1.6021,1.6265,1.6312,1.6737,1.7174,1.7157,0.0,1.8247,1.7913,0.0,1.9098,1.9567,0.0,0.0,2.1675,2.2432,2.2979,2.3188,2.397,2.4786,2.5611,2.6279,2.6857,2.7307,2.8099,2.859,2.859,2.8183,2.7649,2.701,2.6113,2.5369,2.4946,2.4658,2.4497,2.4497,2.4335,2.4196,2.4206,2.3764,2.3503,2.3503,2.3232,2.3091,2.3091,2.3091,2.3091,2.3091,2.3091,2.3091,2.3091,2.3091,2.3091,2.3047,2.2564,2.1811,2.0862,2.1696,2.1696,2.1696,2.1696,2.1696,2.1696,2.1696,2.1888,2.2034,2.1944,2.1967,2.1881,2.1496,2.1111,2.0724,2.0474,1.9998,1.9456,1.8913,1.8122,1.7322,1.6585,1.6006,1.561,1.5464,1.5464,1.5557,1.5703,1.6065,0.0,0.0,0.0,1.7424,1.7421,1.86,1.9449,2.0069,2.1225,2.2011,2.2457,2.2935,2.2872,2.2467,2.198,2.1257,2.0393,1.9446,1.8858,1.8404,1.7481,1.7099,1.6911,1.6258,1.6028,1.5981,1.5832,1.5784,1.5784,1.5784,1.5879,1.5981,1.5981,1.6135,1.635,1.6486,1.686,1.7163,1.7181,0.0,0.0,0.0,0.0,0.0,0.0,2.1579,2.2122,2.2485,2.3013,2.3754,2.4786,2.5411,2.606,2.6928,2.747,2.7805,2.7926,2.7632,2.7162,2.6517,2.5863,2.5327,2.4903,2.4625,2.4497,2.4497,2.4282,2.411,2.398,2.3634,2.3416,2.3276,2.3135,2.3091,2.3091,2.3091,2.3091,2.3091,2.3091,2.3091,2.3091,2.3091,2.3091,2.3047,2.2564,2.19,2.1078,2.1696,2.1696,2.1696,2.1696,2.1696,2.1733,2.1833,2.2099,2.2318,2.2437,2.2615,2.267,2.2479,2.2281,2.2111,2.1916,2.1475,2.0942,2.0393,1.9521,1.8618,1.7712,1.7019,1.6524,1.6279,1.6103,1.6116,1.6312,1.6595,1.6664,0.0,0.0,1.7818,1.7902,1.9203,2.0184,2.0862,2.1776,2.2441,2.2882,2.3057,2.3091,2.3047,2.2574,2.19,2.1078,2.0212,1.9629,1.9134,1.8064,1.7512,1.7192,1.6595,1.6366,1.6265,1.5981,1.5927,1.5879,1.5832,1.5784,1.5784,1.5784,1.5812,1.5837,1.5926,1.6125,1.6327,1.6429,1.6593,0.0,0.0,0.0,1.8742,1.9835,0.0,2.1078,2.1597,2.2132,2.2828,2.397,2.4615,2.5316,2.6351,2.661,2.6816,2.7033,2.694,2.6569,2.5946,2.5527,2.5158,2.4775,2.4615,2.4454,2.4411,2.4196,2.398,2.3711,2.3493,2.3276,2.3091,2.3091,2.3091,2.3091,2.3091,2.3091,2.3091,2.3091,2.3091,2.3091,2.3091,2.3091,2.3047,2.2662,2.2033,2.1266,2.1696,2.1696,2.1696,2.1696,2.1696,2.1824,2.2199,2.2272,2.2428,2.2831,2.2985,2.3084,2.3084,2.3586,2.3905,2.3897,2.358,2.3048,2.2266,2.1337,2.0334,1.9177,1.8294,1.7738,1.7457,1.6878,1.6588,1.6588,1.6878,1.6979,0.0,0.0,0.0,1.8527,1.9737,2.069,2.1401,2.2122,2.2652,2.3101,2.3091,2.3091,2.3047,2.2574,2.2113,2.1606,2.1123,2.0311,1.9392,1.8934,1.8102,1.7286,1.7019,1.6784,1.6541,1.6265,1.6177,1.613,1.5879,1.5784,1.5784,1.5784,1.5825,1.5745,1.5471,1.5618,1.5658,1.5149,1.5438,1.5812,1.6134,1.6577,1.7219,1.828,1.9072,0.0,0.0,2.1132,2.1891,2.3003,2.3807,2.4497,2.52,2.5454,2.5664,2.5937,2.5957,2.5726,2.5242,2.5031,2.4786,2.454,2.4497,2.4411,2.4206,2.3937,2.3711,2.3503,2.3232,2.3101,2.3091,2.3091,2.3091,2.3091,2.3091,2.3091,2.3091,2.3091,2.3091,2.3091,2.3091,2.3091,2.3057,2.2838,2.2211,2.1311,2.1919,2.1963,2.1919,2.1731,2.1696,2.1824,2.2217,2.2739,2.3133,2.3279,2.3972,2.4485,2.4485,2.5076,2.5461,2.5461,2.5194,2.4651,2.3746,2.2846,2.1761,2.0358,1.9657,1.8885,1.8056,1.7849,1.7498,1.7052,1.7145,1.7293,0.0,0.0,0.0,1.9004,1.9874,2.0781,2.1659,2.2344,2.2838,2.3091,2.3091,2.3091,2.3091,2.2916,2.2696,2.2388,2.1882,2.1302,2.0619,1.9803,1.9126,1.845,1.79,1.7434,1.7005,1.6784,1.6461,1.617,1.6076,1.5933,1.5784,1.5784,1.5685,1.5565,1.5658,1.5611,1.5538,1.5538,1.5665,1.5873,1.6107,1.6427,1.6876,1.7537,1.8017,1.8565,0.0,2.0266,2.1168,2.2059,2.3091,2.3937,2.4497,2.4615,2.4743,2.4978,2.4967,2.485,2.4529,2.4615,2.454,2.4292,2.4282,2.4282,2.4206,2.3807,2.359,2.3503,2.3232,2.3091,2.3091,2.3091,2.3091,2.3091,2.3091,2.3091,2.3091,2.3091,2.3091,2.3091,2.3091,2.3091,2.3101,2.2882,2.2397,2.1642,2.2185,2.2342,2.2309,2.1893,2.1895,2.2089,2.2629,2.3255,2.3745,2.4079,2.4827,2.5412,2.5552,2.605,2.6399,2.6399,2.6243,2.5871,2.5137,2.4302,2.3317,2.2214,2.1319,2.0411,1.9467,1.9033,1.8516,1.7878,1.7806,1.78,0.0,0.0,0.0,0.0,2.0374,2.1177,2.198,2.2574,2.2925,2.3091,2.3091,2.3091,2.3091,2.3091,2.3013,2.2882,2.2467,2.2069,2.1526,2.0709,1.9994,1.9363,1.8681,1.8125,1.7652,1.7246,1.6878,1.6548,1.6407,1.6211,1.6062,1.5974,1.5832,1.5698,1.5785,1.5685,1.5605,1.5744,1.5784,1.5832,1.6028,1.6211,1.6447,1.6817,1.7138,1.7552,0.0,1.9301,2.0212,2.0836,2.2192,2.3276,2.3764,2.3894,2.4013,2.4251,2.4251,2.4166,2.4067,2.4196,2.4196,2.4067,2.4067,2.4024,2.3937,2.3634,2.345,2.3363,2.3032,2.2877,2.2867,2.2721,2.273,2.2877,2.2877,2.2955,2.3091,2.3091,2.3091,2.3091,2.3091,2.3091,2.3091,2.2969,2.2441,2.1588,2.2498,2.282,2.2936,2.2344,2.2316,2.2648,2.3428,2.3758,2.424,2.5073,2.5465,2.5797,2.6176,2.6632,2.6854,2.6854,2.6854,2.6739,2.6446,2.5689,2.502,2.4485,2.3187,2.2273,2.1666,2.0518,1.9636,1.9107,1.8753,1.8589,0.0,0.0,0.0,0.0,2.1087,2.1802,2.2441,2.2706,2.2925,2.3091,2.3091,2.3091,2.3091,2.3091,2.3091,2.3057,2.2882,2.252,2.2059,2.1624,2.0808,1.9894,1.9455,1.8958,1.8396,1.7652,1.7365,1.721,1.6749,1.6601,1.6499,1.6224,1.6177,1.6129,1.5852,1.5805,1.5812,1.5825,1.5832,1.5832,1.5825,1.5832,1.5879,1.6123,1.6407,1.6817,1.7552,1.8288,1.8888,1.9392,2.1123,2.2476,2.3003,2.3319,2.3537,2.3754,2.3754,2.3754,2.3754,2.3797,2.3797,2.3797,2.3797,2.3667,2.3503,2.3503,2.3363,2.3091,2.2672,2.251,2.25,2.208,2.2119,2.251,2.251,2.2711,2.3091,2.3091,2.3091,2.3091,2.3091,2.3091,2.3091,2.3047,2.2378,2.1221,2.3645,2.3777,2.3875,2.4002,2.389,2.3833,2.4048,2.4388,2.47,2.4966,2.5784,2.6366,2.6481,2.7361,2.7922,2.7922,2.7922,2.767,2.7099,2.6573,2.5879,2.5011,2.4343,2.3586,2.2792,2.1979,2.1217,2.0419,1.9849,1.953,1.953,0.0,0.0,0.0,2.1659,2.2201,2.2706,2.2925,2.3047,2.3091,2.3091,2.3091,2.3091,2.3091,2.3091,2.3091,2.3057,2.2838,2.2564,2.2255,2.1748,2.1159,2.0673,2.0085,1.9446,1.8858,1.8125,1.7432,1.6928,1.6488,1.6083,1.5812,1.576,1.5822,1.5998,1.6008,1.607,1.6344,1.64,1.6353,1.6123,1.6076,1.6028,1.5927,1.6123,1.6447,1.6817,1.7372,1.7924,1.8611,1.9795,2.1024,2.2236,2.274,2.3057,2.3276,2.3276,2.3276,2.3276,2.345,2.359,2.359,2.359,2.3547,2.3503,2.3319,2.3188,2.3091,2.2672,2.251,2.25,2.208,2.2119,2.251,2.251,2.2711,2.3091,2.3091,2.3091,2.3091,2.3091,2.3091,2.3047,2.2696,2.2069,2.1266,2.4481,2.483,2.5228,2.5615,2.5594,2.5263,2.4648,2.4838,2.5155,2.5336,2.6189,2.6824,2.7069,2.7838,2.8291,2.8291,2.8291,2.814,2.7738,2.7146,2.6538,2.5993,2.5254,2.4573,2.3941,2.3295,2.2562,2.1652,2.111,2.0739,2.0574,0.0,0.0,0.0,2.2246,2.2608,2.2925,2.3047,2.3091,2.3091,2.3091,2.3091,0.0,2.3091,2.3091,2.3091,2.3091,2.3013,2.2882,2.2662,2.2299,2.1926,2.1436,2.0898,2.0232,1.9492,1.8762,1.8039,1.731,1.6869,1.6507,1.6006,1.5917,1.5915,1.5875,1.5871,1.592,1.6141,1.6288,1.6339,1.6199,1.6176,1.6123,1.5832,1.6028,1.6265,1.6407,1.6871,1.7387,1.7878,1.8804,1.9849,2.1024,2.2024,2.2706,2.2969,2.3047,2.3091,2.3091,2.3232,2.3319,2.3319,2.3319,2.3319,2.3319,2.3188,2.3091,2.3091,2.2529,2.2236,2.2217,2.1797,2.1836,2.2246,2.2432,2.2711,2.3091,2.3091,2.3091,2.3091,2.3091,2.3091,2.3057,2.2706,2.2122,2.141,2.5244,2.5937,2.6592,2.6953,2.7012,2.6606,2.5364,2.5349,2.5671,2.5989,2.6645,2.7217,2.7549,2.8008,2.8291,2.8291,2.8291,2.8271,2.8213,2.7461,2.6992,2.6934,2.5915,2.5235,2.499,2.4418,2.367,2.2791,2.2372,2.1917,2.1535,0.0,0.0,2.2441,2.2706,2.2925,2.3091,2.3091,2.3091,2.3091,2.3091,2.3091,2.3091,2.3091,2.3091,2.3091,2.3091,2.3091,2.3057,2.2882,2.2662,2.2432,2.1971,2.1526,2.0962,1.9865,1.9323,1.8869,1.7803,1.7459,1.7254,1.6498,1.6316,1.6199,1.5809,1.5727,1.5742,1.5777,1.601,1.6148,1.6148,1.6183,1.6123,1.592,1.6123,1.6319,1.6319,1.6744,1.716,1.738,1.8218,0.0,1.9803,2.1302,2.2397,2.2706,2.2925,2.3057,2.3091,2.3091,2.3091,2.3091,2.3091,2.3091,2.3091,2.3091,2.3091,2.3081,2.2344,2.1963,2.1953,2.1514,2.1562,2.1992,2.2353,2.2711,2.3091,2.3091,2.3091,2.3091,2.3091,2.3091,2.3091,2.2882,2.2397,2.1642,2.666,2.6797,2.6934,2.7002,2.7012,2.6912,2.6654,2.6686,2.6588,2.6376,2.707,2.7441,2.7158,2.7822,2.8291,2.8291,2.8291,2.8144,2.7855,2.7295,2.6865,2.6514,2.5957,2.5586,2.5538,2.49,2.4326,2.3821,2.3219,2.2668,2.2211,2.2485,2.2662,2.2759,2.2969,2.3057,2.3091,2.3091,2.3091,2.3091,2.3091,2.3091,2.3091,2.3091,2.3091,2.3091,2.3091,2.3091,2.3091,2.3057,2.3013,2.2925,2.2706,2.2397,2.195,2.1053,2.0268,1.9512,1.8372,1.7721,1.7244,1.6531,1.6365,1.64,1.6435,1.6417,1.65,1.6719,1.6684,1.6544,1.6307,1.6168,1.6195,1.6398,1.669,1.6838,1.6838,1.7286,1.7652,1.7939,1.8458,1.9004,1.9592,2.0817,2.1802,2.2441,2.2706,2.2925,2.3101,2.3091,2.3091,2.3091,2.3091,2.3091,0.0,2.3091,2.3091,2.3091,2.2637,2.2402,2.2383,2.1963,2.2002,2.2402,2.248,2.2711,2.3091,2.3091,2.3091,2.3091,2.3091,2.3091,2.3091,2.3057,2.2618,2.1874,2.7353,2.7529,2.7676,2.7676,2.7676,2.7676,2.7676,2.7676,2.7441,2.6797,2.7266,2.764,2.7373,2.792,2.8291,2.8291,2.8291,2.8115,2.7748,2.7256,2.6826,2.6406,2.5967,2.5693,2.5693,2.5373,2.5005,2.4625,2.405,2.3534,2.3111,2.3032,2.2969,2.2969,2.3057,2.3091,2.3091,2.3091,2.3091,2.3091,2.3091,2.3091,2.3091,2.3091,2.3091,2.3091,2.3091,2.3091,2.3091,2.3091,2.3091,2.3091,2.2969,2.2794,2.2444,2.1714,2.1004,2.0219,1.9191,1.8518,1.7942,1.7359,1.7082,1.6901,1.682,1.6734,1.6705,1.6827,1.6826,1.6692,1.6367,1.6398,1.6444,1.6362,1.6811,1.72,1.7333,1.7885,1.8311,1.8458,1.892,1.9279,1.9371,2.0147,2.0952,2.1802,2.2299,2.2706,2.2925,2.3057,2.3091,2.3091,2.3091,2.3091,2.3091,0.0,2.3091,2.3091,2.2672,2.251,2.251,2.2305,2.2324,2.2519,2.2744,2.2906,2.3091,2.3091,2.3091,2.3091,2.3091,2.3091,2.3091,2.3091,2.275,2.2132,2.792,2.8125,2.8291,2.8291,2.8291,2.8291,2.8291,2.8291,2.8018,2.7256,2.7529,2.7816,2.7728,2.8047,2.8291,2.8291,2.8291,2.8076,2.7559,2.7207,2.6787,2.6269,2.5918,2.5693,2.5693,2.5693,2.5518,2.5116,2.4629,2.4199,2.3779,2.3305,2.3091,2.3091,2.3091,2.3091,2.3091,2.3091,2.3091,2.3091,2.3091,2.3091,2.3091,2.3091,2.3091,2.3091,2.3091,2.3091,2.3091,2.3091,2.3091,2.3091,2.3091,2.3013,2.2751,2.2198,2.1632,2.0969,2.0044,1.9435,1.8932,1.8345,1.7983,1.7668,1.7408,1.7204,1.7057,1.7057,1.7028,1.6908,1.6504,1.664,1.6727,1.6464,1.697,1.7531,1.787,1.8589,1.9058,1.9104,1.9554,1.9737,1.9463,1.9791,2.0329,2.1087,2.1856,2.2388,2.2706,2.2969,2.3091,2.3091,2.3091,2.3091,2.3091,0.0,2.3091,2.3091,2.276,2.2646,2.2646,2.2646,2.2646,2.2666,2.2955,2.3091,2.3091,2.3091,2.3091,2.3091,2.3091,2.3091,2.3091,2.3091,2.2828,2.2397,2.873,2.8525,2.8291,2.8291,2.8291,2.8291,2.8291,2.8291,2.8125,2.7718,2.7969,2.8086,2.7757,2.8047,2.8291,2.8291,2.8291,2.7949,2.7129,2.7041,2.665,2.5781,2.5713,2.5693,2.5693,2.5693,2.5518,2.5116,2.4629,2.4199,2.3779,2.3305,2.3091,2.3091,2.3091,2.3091,0.0,2.3091,2.3091,2.3091,2.3091,2.3091,2.3091,2.3091,2.3091,2.3091,2.3091,2.3091,2.3091,2.3091,2.3091,2.3091,2.3091,2.3101,2.2969,2.2594,2.2277,2.1863,2.0794,2.0345,1.995,1.9123,1.8882,1.8794,1.8585,1.8336,1.8135,1.8135,1.7733,1.7261,1.6892,1.6858,1.7039,1.7386,1.7696,1.8054,1.8642,1.9333,1.9882,2.011,2.0428,2.0473,2.0201,2.0246,2.0292,2.0382,2.1257,2.1971,2.2388,2.2882,2.3091,2.3091,2.3091,2.3091,2.3091,2.3091,2.3091,2.3091,2.3052,2.3033,2.3033,2.3033,2.3033,2.3042,2.3081,2.3091,2.3091,2.3091,2.3091,2.3091,2.3091,2.3091,2.3091,2.3091,2.2969,2.2706,2.8838,2.8584,2.8291,2.8291,2.8291,2.8291,2.8291,2.8291,2.8232,2.8066,2.8193,2.8232,2.8057,2.8193,2.8291,2.8291,2.8291,2.793,2.707,2.7012,2.6631,2.5723,2.5693,2.5693,2.5693,2.5693,2.5596,2.5469,2.5019,2.459,2.415,2.373,2.3389,2.3091,2.3091,2.3091,2.3091,2.3091,2.3091,2.3091,2.3091,2.3091,2.3091,2.3091,2.3091,2.3091,2.3091,2.3091,2.3091,2.3091,2.3091,2.3091,2.3091,2.3091,2.3062,2.2896,2.2619,2.2272,2.1881,2.1202,2.0569,2.0238,1.9734,1.932,1.9271,1.9063,1.8895,1.8895,1.8505,1.8025,1.7483,1.7446,1.7541,1.7686,1.8079,1.852,1.9185,1.992,2.0428,2.0518,2.097,2.1105,2.0609,2.0645,2.069,2.0564,2.1275,2.1856,2.2185,2.2794,2.3091,2.3091,0.0,2.3091,2.3091,2.3091,2.3091,2.3091,2.3091,2.3091,2.3091,2.3091,2.3091,2.3091,2.3091,2.3091,2.3091,2.3091,2.3091,2.3091,2.3091,2.3091,2.3091,2.3091,2.3047,2.2969,2.8957,2.8638,2.8291,2.8291,2.8291,2.8291,2.8291,2.8291,2.8291,2.8291,2.8291,2.8291,2.8291,2.8291,2.8291,2.8291,2.8291,2.7988,2.7256,2.709,2.6689,2.5967,2.5762,2.5693,2.5693,2.5693,2.5693,2.5693,2.5283,2.4912,2.459,2.4043,2.3623,2.3276,2.3149,2.3091,2.3091,2.3091,2.3091,2.3091,2.3091,2.3091,2.3091,2.3091,2.3091,2.3091,2.3091,2.3091,2.3091,2.3091,2.3091,2.3091,2.3091,2.3091,2.3091,2.3091,2.2886,2.2676,2.2549,2.1935,2.132,2.1038,2.0509,2.0023,1.9901,1.9745,1.9548,1.9429,1.9143,1.8785,1.8184,1.8172,1.8255,1.8382,1.8723,1.924,2.0025,2.0637,2.1006,2.1105,2.1597,2.1687,2.115,2.123,2.123,2.1015,2.1553,2.1963,2.2097,2.275,2.3091,2.3091,0.0,0.0,2.3091,2.3091,2.3091,2.3091,2.3091,2.3091,2.3091,2.3091,2.3091,2.3091,2.3091,2.3091,2.3091,2.3091,2.3091,2.3091,2.3091,2.3091,2.3091,2.3091,2.3091,2.3091,2.9312,2.8819,2.8291,2.8291,2.8291,2.8291,2.8291,2.8291,2.8291,2.8291,2.8291,2.8291,2.8291,2.8291,2.8291,2.8291,2.8291,2.8115,2.7738,2.7256,2.6826,2.6396,2.5967,2.5693,2.5693,2.5693,2.5693,2.5693,2.5283,2.5116,2.5086,2.4189,2.3789,2.376,2.3286,2.3091,2.3091,2.3091,2.3091,2.3091,2.3091,2.3091,2.3091,2.3091,2.3091,2.3091,2.3091,2.3091,2.3091,2.3091,2.3091,2.3091,2.3091,2.3091,2.3091,2.3091,2.3091,2.3003,2.2627,2.251,2.2295,2.1405,2.119,2.1073,2.0664,2.0411,2.0147,1.9685,1.9597,1.9487,1.9042,1.9011,1.9183,1.9694,1.9775,2.0136,2.1239,2.157,2.1793,2.2052,2.2264,2.2309,2.2097,2.2097,2.1963,2.1696,2.2132,2.2309,2.2097,2.275,2.3091,2.3091,2.3091,0.0,2.3091,2.3091,2.3091,2.3091,2.3091,2.3091,2.3091,2.3091,2.3091,2.3091,2.3091,2.3091,2.3091,2.3091,2.3091,2.3091,2.3091,2.3091,2.3091,2.3091,2.3091,2.3091,2.9921,2.954,2.9132,2.8877,2.8664,2.8568,2.8568,2.8408,2.8291,2.8291,2.8291,2.8291,2.8291,2.8291,2.8291,2.8291,2.8291,2.8115,2.7748,2.7539,2.7139,2.6416,2.626,2.6045,2.5693,2.5693,2.5693,2.5693,2.5596,2.5371,2.5106,2.4482,2.4062,2.3779,2.3643,2.3418,2.3091,2.3091,2.3091,2.3091,2.3091,2.3091,2.3091,2.3091,2.3091,2.3091,2.3091,2.3091,2.3091,2.3091,2.3091,2.3091,2.3091,2.3091,2.3091,2.3091,2.3091,2.3062,2.2925,2.2734,2.2451,2.2178,2.1629,2.1161,2.1055,2.0752,2.045,2.0294,2.0186,1.999,1.9666,1.974,1.9988,2.0219,2.0528,2.0934,2.1515,2.182,2.1998,2.2097,2.2451,2.2583,2.2309,2.2485,2.2485,2.222,2.2485,2.2574,2.2309,2.2794,2.3091,0.0,2.3091,0.0,2.3091,2.3091,2.3091,2.3091,2.3091,2.3091,2.3091,2.3091,2.3091,2.3091,2.3091,2.3091,2.3091,2.3091,2.3091,2.3091,2.3091,2.3091,2.3091,2.3091,2.3091,2.3091,3.0632,3.0307,2.9963,2.9649,2.9448,2.9248,2.9099,2.8771,2.8558,2.8451,2.8344,2.8291,2.8291,2.8291,2.8291,2.8291,2.8291,2.8174,2.792,2.7806,2.7483,2.6894,2.6562,2.626,2.5986,2.5771,0.0,2.5693,2.5693,2.5596,2.5312,2.4863,2.4521,2.4258,2.3935,2.3633,2.3369,2.3169,2.3091,2.3091,2.3091,2.3091,2.3091,2.3091,2.3091,2.3091,2.3091,2.3091,2.3091,2.3091,2.3091,2.3091,2.3091,2.3091,2.3091,2.3091,2.3091,2.3091,2.3091,2.2906,2.2672,2.2549,2.2068,2.159,2.1268,2.0889,2.0605,2.0605,2.0489,2.043,2.0397,2.0526,2.0765,2.1165,2.1475,2.1795,2.2164,2.2353,2.2485,2.2485,2.2706,2.2838,2.2696,2.2794,2.2838,2.2696,2.2838,2.2838,2.2662,2.2916,2.3091,2.3091,2.3091,2.3091,2.3091,2.3091,2.3091,2.3091,2.3091,2.3091,2.3091,2.3091,2.3091,2.3091,2.3091,2.3091,2.3091,2.3091,2.3091,2.3091,2.3091,2.3091,2.3091,2.3091,2.3091,2.3091,3.1381,3.1084,3.0836,3.0547,3.0495,3.0276,2.9764,2.9396,2.9079,2.8781,2.8568,2.8344,2.8344,2.8344,2.8291,2.8291,2.8291,2.8291,2.8291,2.793,2.7748,2.7718,2.6904,2.6445,2.6387,2.5986,2.5713,2.5693,2.5693,2.5693,2.5674,2.5312,2.5145,2.5077,2.4238,2.3857,2.3809,2.3369,2.314,2.314,2.311,2.3091,2.3091,2.3091,2.3091,2.3091,2.3091,2.3091,2.3091,2.3091,2.3091,2.3091,2.3091,2.3091,2.3091,2.3091,2.3091,2.3091,2.3091,2.3091,2.3003,2.2656,2.2539,2.2285,2.1395,2.0908,2.0644,2.0615,2.0625,2.0781,2.1112,2.1239,2.1541,2.2383,2.2539,2.2652,2.3042,2.3091,2.3091,2.3091,2.3091,2.3091,2.3091,2.3091,2.3091,2.3091,2.3091,2.3091,2.3091,0.0,2.3091,2.3091,2.3091,2.3091,2.3091,2.3091,2.3091,2.3091,2.3091,2.3091,2.3091,2.3091,2.3091,2.3091,2.3091,2.3091,2.3091,2.3091,2.3091,2.3091,2.3091,2.3091,2.3091,2.3091,2.3091,2.3091,3.2499,3.2348,3.2207,3.171,3.1443,3.1135,3.0578,3.0276,2.9921,2.9448,2.9343,2.9142,2.8674,2.8631,2.8514,2.8291,2.8291,2.8291,2.8291,2.8203,2.7998,2.7728,2.7523,2.706,2.6396,2.6289,2.6074,2.5693,2.5693,2.5693,2.5693,2.5586,2.54,2.5106,2.4853,2.458,2.4238,2.3818,2.3633,2.3603,2.3227,2.3091,2.3091,2.3091,2.3091,2.3091,2.3091,2.3091,2.3091,2.3091,2.3091,2.3091,2.3091,2.3091,2.3091,2.3091,2.3091,2.3091,2.3091,2.3091,2.3071,2.2974,2.2711,2.2285,2.1395,2.1112,2.0977,2.0674,2.084,2.1103,2.1171,2.1726,2.2275,2.248,2.2783,2.2984,2.3081,2.3091,2.3091,2.3091,2.3091,2.3091,2.3091,2.3091,2.3091,2.3091,2.3091,2.3091,2.3091,2.3091,2.3091,2.3091,2.3091,2.3091,2.3091,2.3091,2.3091,2.3091,2.3091,2.3091,2.3091,2.3091,2.3091,2.3091,2.3091,2.3091,2.3091,2.3091,2.3091,2.3091,2.3091,2.3091,2.3091,2.3091,2.3091,2.3091,3.3484,3.3385,3.3235,3.2835,3.2622,3.2308,3.1648,3.13,3.095,3.0422,3.012,2.9816,2.9511,2.9248,2.9036,2.893,2.8504,2.8291,2.8291,2.8291,2.8193,2.7959,2.7826,2.7503,2.6982,2.6592,2.6172,2.5693,2.5693,2.5693,2.5693,2.5693,2.5557,2.5361,2.5156,2.4941,2.4687,2.4258,2.4072,2.4053,2.3818,2.3559,2.3437,2.3437,2.331,2.3091,2.3091,2.3091,2.3091,2.3091,2.3091,2.3091,2.3091,2.3091,2.3091,2.3091,2.3091,2.3091,2.3091,2.3091,2.3091,2.3091,2.2779,2.2393,2.1882,2.167,2.1465,2.1261,2.1367,2.1592,2.1736,2.2197,2.2578,2.2721,2.2945,2.3091,2.3091,2.3091,2.3091,2.3091,2.3091,2.3091,2.3091,2.3091,2.3091,2.3091,2.3091,2.3091,2.3091,2.3091,2.3091,2.3091,2.3091,2.3091,2.3091,2.3091,2.3091,2.3091,2.3091,2.3091,2.3091,2.3091,2.3091,2.3091,2.3091,2.3091,2.3091,2.3091,2.3091,2.3091,2.3091,2.3091,2.3091,2.3091,2.3091,2.3091,3.4485,3.4447,3.4337,3.4027,3.3907,3.36,3.2836,3.2415,3.2066,3.1483,3.0991,3.0692,3.0588,3.012,2.9816,2.9764,2.9079,2.8558,2.8344,2.8344,2.8344,2.8291,2.7949,2.7777,2.7718,2.6826,2.6201,2.5791,2.5713,2.5693,2.5693,2.5693,2.5693,2.5674,2.5342,2.5166,2.5137,2.4697,2.4521,2.4512,2.4443,2.4199,2.3887,2.3887,2.3613,2.3198,2.3198,2.3149,2.3091,2.3091,2.3091,2.3091,2.3091,2.3091,2.3091,2.3091,2.3091,2.3091,2.3091,2.3091,2.3091,2.3091,2.2828,2.2588,2.2529,2.2236,2.1963,2.1894,2.1934,2.209,2.2441,2.2568,2.2682,2.3033,2.3091,2.3091,2.3091,2.3091,2.3091,2.3091,2.3091,2.3091,2.3091,2.3091,2.3091,2.3091,2.3091,2.3091,2.3091,2.3091,2.3091,2.3091,2.3091,2.3091,2.3091,2.3091,2.3091,2.3091,2.3091,2.3091,2.3091,2.3091,2.3091,2.3091,2.3091,2.3091,2.3091,2.3091,2.3091,2.3091,2.3091,2.3091,2.3091,2.3091,2.3091,2.3091,3.5973,3.6057,3.5968,3.5702,3.5233,3.4737,3.4182,3.3661,3.3185,3.2611,3.2258,3.1902,3.1483,3.1135,3.0877,3.063,3.0276,2.9669,2.8674,2.8621,2.8514,2.8291,2.8232,2.8027,2.7728,2.6826,2.6357,2.6289,2.5869,2.5693,2.5693,2.5693,2.5693,2.5684,2.5615,2.5635,2.5605,2.5156,2.4971,2.4979,2.456,2.4375,2.4316,2.4316,2.4053,2.3691,2.3691,2.3457,2.3091,2.3091,2.3091,2.3091,2.3091,2.3091,2.3091,2.3091,2.3091,2.3091,2.3091,2.3091,2.3091,2.3091,2.3042,2.2906,2.2598,2.2461,2.2314,2.1963,2.2168,2.2432,2.25,2.276,2.3023,2.3081,2.3091,2.3091,2.3091,0.0,2.3091,2.3091,2.3091,2.3091,2.3091,2.3091,2.3091,2.3091,2.3091,2.3091,2.3091,2.3091,2.3091,2.3091,2.3091,2.3091,2.3091,2.3091,2.3091,2.3091,2.3091,2.3091,2.3091,2.3091,2.3091,2.3091,2.3091,2.3091,2.3091,2.3091,2.3091,2.3091,2.3091,2.3091,2.3091,2.3091,2.3091,2.3091,3.6362,3.6411,3.6348,3.6246,3.5764,3.5268,3.4905,3.4369,3.3892,3.3545,3.3235,3.2924,3.2711,3.2297,3.1993,3.1902,3.1505,3.0991,3.0318,2.9606,2.9142,2.9036,2.8664,2.8265,2.7728,2.7051,2.6621,2.6387,2.5947,2.5693,2.5693,2.5693,2.5693,2.5693,2.5693,2.5693,2.5674,2.5518,2.543,2.541,2.5215,2.498,2.4766,2.4766,2.4502,2.4092,2.3867,2.3662,2.3457,2.3169,2.3091,2.3091,2.3091,2.3091,2.3091,2.3091,2.3091,2.3091,2.3091,2.3091,2.3091,2.3091,2.3091,2.3042,2.2847,2.2808,2.275,2.2555,2.2672,2.2808,2.2808,2.2964,2.3091,2.3091,2.3091,2.3091,2.3091,2.3091,2.3091,2.3091,2.3091,2.3091,2.3091,2.3091,2.3091,2.3091,2.3091,2.3091,2.3091,2.3091,2.3091,2.3091,2.3091,2.3091,2.3091,2.3091,2.3091,2.3091,2.3091,2.3091,2.3091,2.3091,2.3091,2.3091,2.3091,2.3091,2.3091,2.3091,2.3091,2.3091,2.3091,2.3091,2.3091,2.3091,2.3091,2.3091,3.6747,3.6771,3.6771,3.6771,3.6338,3.5841,3.5509,3.4994,3.4576,3.4272,3.4003,3.3793,3.3793,3.3385,3.3124,3.3124,3.2672,3.2269,3.2095,3.0981,3.0172,2.9816,2.9248,2.8675,2.8127,2.7641,2.7106,2.6633,2.6192,2.5879,2.5693,2.5693,2.5732,2.5781,2.5781,2.5781,2.5781,2.5781,2.5781,2.5693,2.5693,2.5527,2.5225,2.5225,2.4951,2.4521,2.4199,2.4023,2.3867,2.3437,2.3247,2.3227,2.312,2.3091,2.3091,2.3091,2.3091,2.3091,2.3091,2.3091,2.3091,2.3091,2.3091,2.3091,2.3091,2.3091,2.3091,2.3091,2.3091,2.3091,2.3091,2.3091,2.3091,2.3091,0.0,2.3091,2.3091,2.3091,2.3091,2.3091,2.3091,2.3091,2.3091,2.3091,2.3091,2.3091,2.3091,2.3091,2.3091,2.3091,2.3091,2.3091,2.3091,2.3091,2.3091,2.3091,2.3091,2.3091,2.3091,2.3091,2.3091,2.3091,2.3091,2.3091,2.3091,2.3091,2.3091,2.3091,2.3091,2.3091,2.3091,2.3091,2.3091,2.3091,2.3091,2.3091,3.7769,3.7866,3.7866,3.7866,3.7433,3.6916,3.6372,3.5843,3.5339,3.4798,3.4531,3.4335,3.4335,3.415,3.4014,3.4014,3.3706,3.3496,3.3446,3.2912,3.1902,3.0391,2.9816,2.9491,2.945,2.8763,2.8063,2.735,2.6923,2.636,2.5693,2.5693,2.582,2.6052,2.6052,2.6052,2.6052,2.6052,2.5917,2.5693,2.5693,2.5664,2.5635,2.5635,2.541,2.5057,2.5028,2.4717,2.4307,2.3887,2.374,2.3672,2.3227,2.3091,2.3091,2.3091,2.3091,2.3091,2.3091,2.3091,2.3091,2.3091,2.3091,2.3091,2.3091,2.3091,2.3091,2.3091,2.3091,2.3091,2.3091,2.3091,2.3091,2.3091,0.0,0.0,2.3091,2.3091,2.3091,2.3091,2.3091,2.3091,2.3091,2.3091,2.3091,2.3091,2.3091,2.3091,2.3091,2.3091,2.3091,2.3091,2.3091,2.3091,2.3091,2.3091,2.3091,2.3091,2.3091,2.3091,2.3091,2.3091,2.3091,2.3091,2.3091,2.3091,2.3091,2.3091,2.3091,2.3091,2.3091,2.3091,2.3091,2.3091,2.3091,2.3091,3.7938,3.7986,3.7986,3.7986,3.7553,3.712,3.6928,3.617,3.5545,3.534,3.493,3.4628,3.4628,3.4592,3.4543,3.4543,3.4286,3.4089,3.4089,3.3793,3.2873,3.1238,3.0774,3.0526,3.0328,2.9621,2.9095,2.8818,2.7791,2.7158,2.685,2.6569,2.6476,2.662,2.6716,2.6764,2.6754,2.6668,2.6524,2.6438,2.6255,2.6217,2.6169,2.6014,2.5857,2.5669,2.5261,2.5008,2.4756,2.4326,2.418,2.4102,2.3672,2.3545,2.3486,2.3169,2.3091,2.3091,2.3091,2.3091,2.3091,2.3091,2.3091,2.3091,2.3091,2.3091,2.3091,2.3091,2.3091,2.3091,2.3091,2.3091,2.3091,2.3091,0.0,2.3091,2.3091,2.3091,2.3091,2.3091,2.3091,2.3091,2.3091,2.3091,2.3091,2.3091,2.3091,2.3091,2.3091,2.3091,2.3091,2.3091,2.3091,2.3091,2.3091,2.3091,2.3091,2.3091,2.3091,2.3091,2.3091,2.3091,2.3091,2.3091,2.3091,2.3091,2.3091,2.3091,2.3091,2.3091,2.3091,2.3091,2.3091,2.3091,2.3091,2.3091,3.7986,3.7986,3.7986,3.7986,3.7685,3.7385,3.7216,3.6579,3.599,3.5665,3.5304,3.5016,3.4799,3.4775,3.4775,3.4775,3.4628,3.4531,3.4531,3.4298,3.3595,3.2297,3.1891,3.1648,3.1443,3.0772,3.0344,3.0093,2.9058,2.8351,2.7952,2.7641,2.7413,2.7384,2.7526,2.7573,2.7573,2.7431,2.7336,2.7231,2.7061,2.6918,2.6822,2.6572,2.6332,2.6157,2.562,2.5369,2.5215,2.4766,2.4619,2.4551,2.4121,2.3896,2.373,2.3428,2.3198,2.3091,2.3091,2.3091,2.3091,2.3091,2.3091,2.3091,2.3091,2.3091,2.3091,2.3091,2.3091,2.3091,2.3091,2.3091,2.3091,2.3091,2.3091,2.3091,2.3091,2.3091,2.3091,2.3091,2.3091,2.3091,2.3091,2.3091,2.3091,2.3091,2.3091,2.3091,2.3091,2.3091,2.3091,2.3091,2.3091,2.3091,2.3091,2.3091,2.3091,2.3091,2.3091,2.3091,2.3091,2.3091,2.3091,2.3091,2.3091,2.3091,2.3091,2.3091,2.3091,2.3091,2.3091,2.3091,2.3091,2.3091,2.3091,2.3091,3.7986,3.7986,3.7986,3.7986,3.7986,3.7805,3.7276,3.7192,3.6819,3.5761,3.5617,3.5412,3.4835,3.4775,3.4775,3.4775,3.4775,3.4775,3.4775,3.4531,3.4188,3.3645,3.3124,3.2801,3.2801,3.2269,3.1682,3.1036,3.0747,2.9951,2.8716,2.8716,2.8625,2.8405,2.8405,2.8395,2.8395,2.8395,2.8243,2.7987,2.7987,2.7835,2.7589,2.7326,2.6907,2.6448,2.6197,2.5917,2.5625,2.5225,2.5125,2.5047,2.456,2.4131,2.3799,2.3799,2.3486,2.3101,2.3101,2.3091,2.3091,2.3091,2.3091,2.3091,2.3091,2.3091,2.3091,2.3091,2.3091,2.3091,2.3091,2.3091,2.3091,2.3091,2.3091,2.3091,2.3091,2.3091,2.3091,2.3091,2.3091,2.3091,2.3091,2.3091,2.3091,2.3091,2.3091,2.3091,2.3091,2.3091,2.3091,2.3091,2.3091,2.3091,2.3091,2.3091,2.3091,2.3091,2.3091,2.3091,2.3091,2.3091,2.3091,2.3091,2.3091,2.3091,2.3091,2.3091,2.3091,2.3091,2.3091,2.3091,2.3091,2.3091,2.3091,2.3091,3.7986,3.7986,3.7986,3.7986,3.7986,3.7926,3.7769,3.7433,3.6952,3.6266,3.5845,3.5412,3.4835,3.4775,3.4775,3.4775,3.4775,3.4775,3.4775,3.4738,3.4628,3.4433,3.3991,3.3706,3.3706,3.3335,3.3005,3.2807,3.2047,3.1453,3.1053,3.073,3.0365,2.9954,3.0141,2.9996,2.9669,2.9463,2.9314,2.9268,2.9106,2.8885,2.8606,2.8211,2.7704,2.7204,2.6812,2.639,2.5936,2.5846,2.5672,2.5459,2.501,2.458,2.4228,2.4228,2.3926,2.3594,2.3594,2.3369,2.3091,2.3091,2.3091,2.3091,2.3091,2.3091,2.3091,2.3091,2.3091,2.3091,2.3091,2.3091,2.3091,2.3091,2.3091,2.3091,2.3091,2.3091,2.3091,2.3091,2.3091,2.3091,2.3091,2.3091,2.3091,2.3091,2.3091,2.3091,2.3091,2.3091,2.3091,2.3091,2.3091,2.3091,2.3091,2.3091,2.3091,2.3091,2.3091,2.3091,2.3091,2.3091,2.3091,2.3091,2.3091,2.3091,2.3091,2.3091,2.3091,2.3091,2.3091,2.3091,2.3091,2.3091,2.3091,2.3091,3.7986,3.7986,3.7986,3.7986,3.7986,3.7986,3.7986,3.7709,3.7312,3.6783,3.6254,3.5725,3.5147,3.4907,3.4775,3.4775,3.4775,3.4775,3.4775,3.4775,3.4775,3.4775,3.4543,3.4359,3.4359,3.4089,3.3941,3.3941,3.3221,3.2759,3.2589,3.2301,3.1849,3.1366,3.1506,3.1426,3.109,3.0928,3.0882,3.0859,3.0491,3.0147,2.9801,2.9229,2.8595,2.7998,2.7515,2.704,2.6658,2.6476,2.6255,2.5974,2.5602,2.5171,2.4817,2.4817,2.4605,2.4366,2.4242,2.4082,2.3877,2.3577,2.3319,2.3091,2.3091,2.3091,2.3091,2.3091,2.3091,2.3091,2.3091,2.3091,2.3091,2.3091,2.3091,2.3091,2.3091,2.3091,2.3091,2.3091,2.3091,2.3091,2.3091,2.3091,2.3091,2.3091,2.3091,2.3091,2.3091,2.3091,2.3091,2.3091,2.3091,2.3091,2.3091,2.3091,2.3091,2.3091,2.3091,2.3091,2.3091,2.3091,2.3091,2.3091,2.3091,2.3091,2.3091,2.3091,2.3091,2.3091,2.3091,2.3091,2.3091,2.3091,2.3091,2.3091,3.7986,3.7986,3.7986,3.7986,3.7986,3.7986,3.7986,3.7986,3.7793,3.7264,3.6771,3.6254,3.5677,3.5135,3.4835,3.4787,3.4775,3.4775,3.4775,3.4775,3.4775,3.4775,3.4775,3.4775,3.4775,3.458,3.4433,3.4433,3.4261,3.3915,3.3419,3.3419,3.3148,3.2641,3.2641,3.263,3.2583,3.2583,3.2583,3.2547,3.2029,3.1553,3.1078,3.0411,2.9643,2.8836,2.838,2.7972,2.7636,2.7183,2.6822,2.6544,2.6284,2.5966,2.5657,2.5657,2.5514,2.53,2.5149,2.5217,2.5184,2.4489,2.3814,2.3271,2.3144,2.3144,2.3144,2.3144,2.3135,2.3178,2.3178,2.3135,2.3144,2.3144,2.3135,2.3091,2.3091,2.3091,2.3091,2.3091,2.3091,2.3091,2.3091,2.3091,2.3091,2.3091,2.3091,2.3091,2.3091,2.3091,2.3091,2.3091,2.3091,2.3091,2.3091,2.3091,2.3091,2.3091,2.3091,2.3091,2.3091,2.3091,2.3091,2.3091,2.3091,2.3091,2.3091,2.3091,2.3091,2.3091,2.3091,2.3091,2.3091,2.3091,2.3091,2.3091,3.7986,3.7986,3.7986,3.7986,3.7986,3.7986,3.7986,3.7986,3.7793,3.7264,3.7096,3.6663,3.5713,3.5521,3.528,3.4823,3.4775,3.4775,3.4775,3.4775,3.4775,3.4775,3.4775,3.4775,3.4775,3.4726,3.4726,3.4726,3.4689,3.4581,3.4461,3.4461,3.4174,3.3672,3.3672,3.3457,3.3145,3.3145,3.3145,3.3133,3.3013,3.2767,3.2441,3.2055,3.1344,3.0419,2.9963,2.9239,2.8398,2.794,2.7563,2.7363,2.7315,2.7063,2.6849,2.6849,2.6718,2.6612,2.6564,2.6451,2.6195,2.5501,2.5157,2.4759,2.366,2.3406,2.3406,2.3406,2.3537,2.3667,2.3667,2.3537,2.3406,2.3406,2.3232,2.3091,2.3091,2.3091,2.3091,2.3091,2.3091,2.3091,2.3091,2.3091,2.3091,2.3091,2.3091,2.3091,2.3091,2.3091,2.3091,2.3091,2.3091,2.3091,2.3091,2.3091,2.3091,2.3091,2.3091,2.3091,2.3091,2.3091,2.3091,2.3091,2.3091,2.3091,2.3091,2.3091,2.3091,2.3091,2.3091,2.3091,2.3091,2.3091,2.3091,2.3091,3.8039,3.7986,3.7986,3.7986,3.7986,3.7986,3.7986,3.7986,3.7878,3.7601,3.7348,3.6988,3.6423,3.5918,3.54,3.4823,3.4775,3.4775,3.4775,3.4775,3.4775,3.4775,3.4775,3.4775,3.4775,3.4775,3.4775,3.4775,3.4775,3.4775,3.4775,3.4775,3.4631,3.4366,3.4366,3.427,3.4018,3.4018,3.4018,3.4006,3.3753,3.3492,3.3256,3.2865,3.2265,3.1658,3.1341,3.0541,2.9509,2.9033,2.8631,2.8305,2.8164,2.7977,2.7762,2.7762,2.7853,2.7977,2.7887,2.7963,2.7833,2.6998,2.6693,2.6161,2.4362,2.396,2.4003,2.4133,2.4262,2.4305,2.4305,2.4133,2.3917,2.3667,2.345,2.3232,2.3135,2.3091,2.3091,2.3091,2.3091,2.3091,2.3091,2.3091,2.3091,2.3091,2.3091,2.3091,2.3091,2.3091,2.3091,2.3091,2.3091,2.3091,2.3091,2.3091,2.3091,2.3091,2.3091,2.3091,2.3091,2.3091,2.3091,2.3091,2.3091,2.3091,2.3091,2.3091,2.3091,2.3091,2.3091,2.3091,2.3091,2.3091,2.3091,2.3091,3.8198,3.8092,3.8092,3.8092,3.8039,3.7986,3.7986,3.7986,3.7986,3.7986,3.7601,3.7288,3.7204,3.6326,3.5581,3.5087,3.5051,3.5051,3.5051,3.5051,3.5051,3.5051,3.5016,3.4968,3.4968,3.4823,3.4775,3.4775,3.4775,3.4775,3.4775,3.4775,3.4775,3.4775,3.4775,3.4775,3.4775,3.4775,3.4775,3.4739,3.4306,3.4031,3.3827,3.3386,3.3031,3.2712,3.2547,3.1784,3.0833,3.0308,2.9827,2.9424,2.9128,2.8885,2.8721,2.8721,2.9024,2.9316,2.915,2.9451,2.9558,2.8627,2.8229,2.759,2.5658,2.5007,2.4849,2.5041,2.5115,2.5115,2.5115,2.4935,2.4584,2.409,2.3797,2.3493,2.3232,2.3188,2.3188,2.3188,2.3188,2.3135,2.3091,2.3091,2.3091,2.3091,2.3091,2.3091,2.3091,2.3091,2.3091,2.3091,2.3091,2.3091,2.3091,2.3091,2.3091,2.3091,2.3091,2.3091,2.3091,2.3091,2.3091,2.3091,2.3091,2.3091,2.3091,2.3091,2.3091,2.3091,2.3091,2.3091,2.3091,2.3091,2.3091,2.3091,3.8684,3.8526,3.8356,3.8356,3.8145,3.7986,3.7986,3.7986,3.7986,3.7986,3.7926,3.7697,3.724,3.6663,3.6266,3.6194,3.6194,3.6194,3.6194,3.6194,3.6194,3.6194,3.5749,3.5509,3.5509,3.5015,3.4775,3.4775,3.4775,3.4775,3.4775,3.4775,3.4775,3.4775,3.4775,3.4775,3.4775,3.4775,3.4775,3.4775,3.4703,3.4679,3.4667,3.4595,3.4234,3.3791,3.3589,3.2972,3.216,3.1645,3.1297,3.1009,3.049,3.017,2.9943,2.9943,3.017,3.0374,3.035,3.0574,3.0615,2.9825,2.9653,2.936,2.8439,2.7093,2.598,2.5813,2.5893,2.6019,2.6019,2.5852,2.5516,2.4861,2.438,2.396,2.3493,2.346,2.346,2.346,2.346,2.3363,2.3135,2.3091,2.3091,2.3091,2.3091,2.3091,2.3091,2.3091,2.3091,2.3091,2.3091,2.3091,2.3091,2.3091,2.3091,2.3091,2.3091,2.3091,2.3091,2.3091,2.3091,2.3091,2.3091,2.3091,2.3091,2.3091,2.3091,2.3091,2.3091,2.3091,2.3091,2.3091,2.3091,2.3091,3.8841,3.8684,3.8631,3.8631,3.8526,3.8461,3.8461,3.8461,3.8409,3.825,3.8198,3.806,3.7714,3.7168,3.6723,3.6435,3.6411,3.6411,3.6411,3.6411,3.6411,3.6411,3.6182,3.6062,3.6062,3.5533,3.5268,3.5268,3.4968,3.4775,3.4775,3.4775,3.4775,3.4775,3.4775,3.4775,3.4775,3.4775,3.4775,3.4775,3.4775,3.4775,3.4775,3.4775,3.4631,3.439,3.3995,3.3648,3.3279,3.2767,3.245,3.2217,3.197,3.1715,3.1425,3.1135,3.1235,3.1358,3.1064,3.1184,3.1258,3.0811,3.0664,3.0479,2.9732,2.8996,2.825,2.7425,2.7307,2.7269,2.6985,2.6663,2.629,2.5737,2.5147,2.4637,2.4315,2.4133,2.4003,2.3894,2.3764,2.358,2.3373,2.3188,2.3091,2.3091,2.3091,2.3091,2.3091,2.3091,2.3091,2.3091,2.3091,2.3091,2.3091,2.3091,2.3091,2.3091,2.3091,2.3091,2.3091,2.3091,2.3091,2.3091,2.3091,2.3091,2.3091,2.3091,2.3091,2.3091,2.3091,2.3091,2.3091,2.3091,2.3091,2.3091]}]]